GFSSGP_sfc_thetae_000.txt.gz
Theta_e
338 335 327 326 308 294 289 293 299 297 298 301 304 301 300 301 300 294 312 318 325 331 335 342 345 340 336 333 332 332 331 330 329 329 330 332 332 333 335 336 337 337 338 339 340 341 343 343 346
328 329 323 316 302 287 288 295 296 299 302 302 304 303 302 302 308 311 311 317 316 328 333 334 342 340 337 335 333 333 332 331 330 330 331 332 332 334 334 334 337 338 338 339 339 341 342 344 344
329 330 317 308 295 288 289 295 298 300 303 301 300 305 307 307 313 311 313 316 313 326 332 332 343 342 339 337 335 334 333 332 330 331 331 331 331 331 333 334 335 337 338 339 340 341 342 343 344
328 321 314 300 289 292 295 297 300 301 301 302 303 304 310 314 314 313 314 314 310 323 330 335 346 342 339 336 335 334 333 332 331 332 332 331 331 331 332 334 334 335 338 339 340 341 342 343 344
321 311 301 296 293 295 298 300 300 300 301 300 304 305 306 314 315 314 312 312 309 309 324 333 346 341 339 337 335 334 332 332 332 332 331 331 331 331 332 333 334 334 338 339 340 341 342 343 345
310 308 296 293 293 297 298 301 302 301 301 301 305 305 305 312 312 311 310 310 316 315 313 315 336 343 339 335 335 336 336 333 332 332 331 330 330 331 331 332 334 334 338 339 339 341 344 345 346
309 305 299 296 294 296 299 301 300 299 300 300 304 302 304 307 310 309 308 308 309 309 310 311 311 318 326 330 334 332 333 331 330 330 331 330 330 330 330 332 334 335 337 339 339 341 343 345 345
312 304 295 294 294 294 300 301 301 302 302 309 310 301 298 304 308 308 307 306 306 307 309 309 311 316 317 321 329 326 327 326 327 328 328 328 328 329 330 331 333 335 337 339 339 341 343 345 346
310 298 293 293 296 296 298 297 303 306 305 307 308 306 307 308 308 307 305 304 306 310 309 310 316 317 317 319 320 321 324 324 323 322 324 325 319 320 325 330 333 336 337 339 340 340 342 344 344
304 295 297 300 299 297 300 301 303 304 304 305 306 308 309 309 306 305 303 304 306 309 312 316 317 316 317 320 314 315 321 320 319 319 317 315 317 319 326 329 333 335 337 338 340 340 341 341 336
305 299 301 301 302 301 301 301 304 303 300 303 303 304 306 306 305 305 305 304 305 309 315 317 315 317 315 314 314 316 319 320 320 318 320 317 320 319 321 323 325 326 333 331 334 333 333 334 332
302 303 303 302 303 301 301 303 303 304 303 308 308 306 305 305 304 305 306 308 310 312 314 317 315 317 315 315 314 315 318 321 319 315 315 314 317 319 319 321 323 325 327 327 329 331 332 332 334
300 302 304 304 302 302 304 301 302 302 307 308 307 306 305 304 305 307 308 310 312 312 314 315 315 315 316 315 315 314 319 321 317 316 316 317 317 316 318 321 323 324 326 328 329 334 334 333 333
303 303 303 302 301 301 299 301 302 304 308 307 305 303 304 305 305 306 309 310 314 314 313 314 316 316 316 315 314 316 317 317 317 315 317 319 318 316 319 319 321 323 324 327 331 334 332 332 333
303 298 300 300 301 299 301 299 299 306 307 306 304 304 305 305 307 307 309 313 314 315 315 315 316 317 316 315 317 317 317 317 317 317 319 321 320 319 320 320 322 322 327 330 332 331 330 330 331
300 297 292 298 301 301 300 293 302 305 304 303 303 304 304 305 307 308 312 314 315 313 315 313 320 316 316 316 317 318 318 317 317 318 319 322 323 324 321 321 323 329 329 330 330 330 328 328 328
296 290 292 296 301 301 297 294 303 304 304 303 302 303 303 304 306 307 313 316 315 315 315 313 314 318 317 316 317 317 318 318 319 320 320 322 324 328 326 325 328 330 329 329 329 328 328 327 327
293 292 295 295 298 299 295 294 301 303 303 303 301 302 303 304 305 309 312 316 316 317 316 316 314 317 317 317 317 317 317 319 321 322 323 324 326 328 328 325 328 328 327 326 327 326 328 329 327
300 297 296 298 300 298 296 295 299 301 303 301 300 300 301 303 306 309 312 316 318 318 314 315 312 314 316 314 313 315 315 317 319 322 324 325 326 329 327 326 328 328 326 326 327 327 326 326 327
299 296 296 298 300 297 296 296 299 301 303 303 301 300 301 302 304 308 311 311 315 316 316 315 314 312 314 315 315 316 316 318 318 320 322 325 327 328 327 327 327 328 326 326 326 326 325 325 326
297 296 296 296 299 298 296 294 297 301 303 305 302 302 302 302 303 306 310 308 312 314 312 316 316 311 313 315 316 316 317 319 318 319 322 324 328 328 327 326 328 328 328 326 325 325 324 321 324
293 300 300 299 295 289 297 285 294 298 300 303 301 300 300 302 304 307 309 307 310 315 316 316 316 315 314 311 313 313 313 314 317 319 323 326 329 328 327 327 327 327 328 327 326 327 324 324 319
296 301 298 299 293 291 293 287 293 298 298 302 301 300 301 302 304 307 308 309 311 314 318 318 317 317 313 314 312 314 314 315 318 321 322 324 326 329 329 327 327 326 326 328 328 325 325 323 322
302 298 298 295 291 285 291 290 290 294 299 302 302 301 302 302 303 307 310 311 312 311 318 317 315 316 319 316 313 313 315 316 317 316 316 315 319 324 327 329 328 328 327 327 328 327 325 323 323
298 293 286 283 283 283 294 291 294 299 301 305 302 302 302 304 302 306 308 308 310 311 314 317 316 315 316 319 315 312 312 312 312 312 314 315 316 319 324 326 327 328 326 326 326 325 325 324 323
294 294 287 281 282 288 298 290 294 306 305 307 306 303 303 302 304 306 307 307 310 312 312 317 316 314 314 315 314 314 316 315 313 313 312 313 315 316 320 326 326 326 326 326 323 322 323 324 322
294 292 296 290 292 288 293 301 305 307 305 306 304 302 301 302 305 305 306 308 307 312 312 314 314 312 313 313 312 311 313 314 314 314 313 312 314 318 316 317 318 319 321 322 320 320 319 319 319
298 300 291 289 282 282 289 298 295 302 302 304 301 301 301 302 305 305 307 308 308 310 311 314 314 312 313 311 311 312 313 314 313 314 312 313 313 317 318 319 319 319 318 317 318 318 318 319 318
299 297 298 295 292 284 282 292 304 305 305 303 302 302 302 303 304 305 307 308 310 310 311 313 313 314 313 312 313 313 313 313 312 312 313 313 313 315 316 317 318 317 316 318 320 319 320 319 318
306 303 301 293 292 293 293 292 308 308 307 306 303 304 303 305 305 306 308 308 310 310 311 311 312 314 314 315 313 313 314 311 310 310 311 313 313 314 315 316 317 317 317 317 317 315 315 315 314

GFSSGP_sfc_thetae_003.txt.gz
Theta_e
336 333 325 325 307 294 290 293 297 296 297 300 301 299 298 299 298 290 309 316 320 328 333 345 349 343 341 339 336 334 333 331 330 329 329 330 332 334 336 336 337 337 337 338 340 340 341 343 344
329 327 322 312 300 287 288 294 295 297 300 301 302 301 300 300 308 310 309 315 324 329 331 339 347 345 341 339 336 335 334 333 331 330 330 332 333 333 334 334 335 337 338 338 339 339 341 342 343
325 327 315 307 296 290 288 294 297 299 301 301 299 304 305 305 311 310 312 315 317 325 331 335 346 345 341 339 337 336 334 334 332 331 330 332 332 332 332 334 335 335 338 338 339 338 339 341 343
324 320 310 301 291 293 293 296 298 298 300 300 303 303 308 313 311 312 314 314 312 324 332 337 344 344 341 340 338 336 335 332 332 331 331 332 332 331 332 332 333 335 335 337 338 339 340 342 342
319 310 300 296 293 294 295 297 298 298 298 298 303 303 304 312 314 313 311 310 306 313 328 332 344 344 340 339 337 335 335 334 331 332 332 332 332 331 331 331 332 334 335 335 339 339 342 343 343
308 307 297 294 296 296 296 299 300 298 298 301 303 303 303 310 311 309 310 313 315 317 319 324 339 342 341 337 337 337 336 336 333 332 332 332 332 332 331 331 332 333 335 335 338 341 343 345 345
307 303 298 299 295 294 298 300 298 299 298 298 305 300 303 306 307 307 306 306 307 309 312 311 311 320 326 329 331 331 331 331 333 332 333 333 332 332 331 331 331 332 335 335 337 339 343 344 344
311 305 295 294 292 293 299 299 300 300 301 307 308 299 297 303 307 306 304 305 305 307 308 307 313 315 317 318 327 328 328 328 328 330 331 330 331 331 330 330 331 333 334 336 338 339 341 343 345
307 299 294 294 294 295 297 296 300 304 303 305 305 304 305 307 306 305 304 306 307 311 310 312 315 315 316 318 319 321 325 326 326 325 325 325 321 321 326 328 330 332 334 337 338 339 341 341 342
303 295 296 298 297 296 297 299 301 302 303 302 302 306 307 307 305 304 303 304 306 308 312 314 314 316 316 319 314 314 318 318 320 319 320 318 316 318 322 326 330 333 334 336 337 339 340 339 333
303 300 300 299 300 299 298 299 303 301 298 302 300 302 304 305 304 305 304 305 305 309 314 315 313 316 314 314 314 313 315 320 320 318 321 321 321 318 319 320 322 323 330 328 333 332 331 332 331
300 305 303 302 301 300 299 302 302 302 302 306 305 304 304 304 304 305 306 307 310 310 312 314 314 314 314 314 314 313 319 320 319 315 319 317 315 316 316 318 320 321 324 325 326 327 329 329 331
299 301 302 303 301 300 302 300 301 301 305 306 305 305 304 303 305 306 308 311 311 310 311 312 314 314 314 314 314 314 318 320 316 314 314 315 314 314 317 318 319 321 323 324 325 328 331 333 333
303 302 302 300 300 299 299 299 301 302 306 304 303 302 303 304 305 306 309 311 311 312 312 312 315 315 314 313 313 314 314 315 315 314 315 317 316 315 316 317 318 320 323 324 326 328 332 332 333
303 299 300 299 299 299 300 297 298 303 305 302 302 302 303 304 307 307 310 311 310 312 312 311 314 315 313 313 315 316 315 315 314 315 317 318 318 316 318 318 318 320 322 327 327 329 332 331 334
300 297 292 298 300 300 299 292 299 304 303 301 301 302 303 304 306 308 313 312 311 310 312 310 315 315 314 314 314 315 316 315 316 316 317 320 321 321 319 318 320 322 327 328 329 329 330 330 331
297 292 293 296 300 299 296 294 300 303 302 300 300 301 302 303 305 308 313 313 312 312 313 311 311 313 314 314 314 315 316 317 318 319 319 321 324 325 322 324 322 328 329 329 329 328 329 328 329
292 293 294 294 297 297 294 295 298 302 301 300 300 300 302 303 305 309 312 314 314 314 312 313 311 313 314 315 315 316 317 318 319 320 321 323 323 325 322 326 326 327 327 327 328 327 328 328 328
298 296 295 298 300 297 295 295 297 301 300 299 299 299 301 302 305 308 312 314 315 315 312 312 309 311 313 313 312 314 315 316 317 318 321 323 325 326 324 327 327 328 326 327 328 328 326 326 328
297 294 294 297 300 296 295 295 297 300 300 299 299 299 300 300 303 307 309 311 312 313 314 313 310 311 312 313 313 313 315 317 317 319 321 325 326 327 327 325 326 327 326 327 327 327 325 326 327
296 294 294 294 298 296 294 292 295 299 301 301 300 300 300 301 302 305 307 306 311 310 311 314 312 309 309 313 315 316 316 318 320 321 321 322 326 327 325 327 326 326 326 326 326 326 326 323 325
292 298 298 297 293 287 295 284 292 296 298 300 299 298 299 300 303 305 305 304 310 312 313 313 313 311 311 309 314 313 313 314 317 321 322 324 326 327 327 327 325 324 327 325 326 324 325 325 321
297 301 297 296 292 288 291 286 291 296 295 299 298 299 298 300 302 305 305 306 308 313 314 314 313 313 312 311 315 316 316 317 320 321 322 321 324 326 327 327 326 325 326 327 327 326 325 324 322
303 296 295 293 289 283 289 288 288 293 297 299 299 300 300 300 302 306 306 307 307 309 314 313 313 315 312 312 314 316 315 315 314 313 317 319 322 325 328 327 326 326 326 326 326 326 325 323 324
295 290 283 282 282 283 292 289 291 297 300 302 302 300 300 301 301 305 305 306 307 309 314 313 313 312 314 312 313 313 312 310 312 312 314 316 319 322 324 326 326 326 325 328 326 325 325 324 323
293 292 285 280 280 286 294 288 294 301 306 303 306 302 301 300 300 304 305 306 307 309 312 314 313 311 312 311 311 312 312 311 310 310 311 313 317 322 325 324 323 324 324 325 326 324 323 323 323
293 290 293 288 288 286 289 295 302 303 304 303 300 300 300 300 301 305 305 305 306 308 309 314 313 310 310 310 310 311 312 312 310 311 310 311 314 321 324 319 316 317 319 320 320 320 321 321 320
295 297 289 287 281 280 286 291 293 300 302 303 299 298 300 300 302 304 304 305 306 308 309 313 312 309 311 309 309 310 310 311 311 310 310 312 313 315 315 316 314 313 314 315 316 316 316 316 315
295 294 294 290 288 283 280 288 301 302 304 303 301 300 300 301 303 304 304 306 306 307 308 312 311 309 309 307 309 310 310 310 310 310 310 311 312 314 315 315 315 316 317 317 317 316 316 316 314
298 296 295 289 287 290 288 290 303 305 308 306 303 302 302 303 304 304 304 305 305 307 309 311 311 310 309 310 310 310 309 308 308 309 310 310 311 312 314 315 316 316 315 313 314 313 313 313 312

GFSSGP_sfc_thetae_006.txt.gz
Theta_e
337 334 324 323 305 295 290 293 295 295 296 299 300 298 297 298 297 290 306 315 321 319 328 341 351 347 344 343 341 338 335 334 333 332 330 329 330 333 334 336 337 337 338 337 337 339 339 340 343
327 326 321 310 299 287 289 292 294 297 299 299 300 299 298 298 307 308 307 315 320 323 327 337 350 349 345 343 342 342 337 335 334 333 331 330 331 333 334 334 335 335 337 338 337 338 339 339 342
324 327 314 304 295 292 290 293 297 298 299 299 297 303 303 303 310 309 312 314 315 322 328 334 348 349 346 343 341 341 337 336 336 334 332 331 331 333 333 334 334 335 336 337 337 338 338 339 341
323 318 309 301 296 296 294 295 297 297 298 299 300 300 306 311 311 311 313 314 312 317 327 334 345 347 344 342 341 340 338 337 335 335 333 332 332 332 332 332 332 333 335 335 337 338 338 339 340
315 308 300 296 297 294 295 296 298 297 297 297 301 301 303 310 313 311 309 311 307 311 324 331 342 344 343 342 340 341 338 339 336 333 332 332 332 332 332 332 332 332 333 335 335 338 341 342 343
307 306 297 295 298 297 297 298 298 297 297 299 301 302 302 309 309 306 312 310 314 319 321 325 336 342 344 341 340 339 338 337 335 335 334 333 332 332 332 332 332 331 332 335 335 338 341 343 345
305 302 298 297 298 293 297 298 297 297 296 298 304 299 301 304 305 305 304 305 307 310 313 313 311 320 326 329 331 331 332 332 332 333 333 333 333 332 333 333 332 331 331 334 335 337 338 342 343
308 304 296 294 293 292 298 297 296 299 298 305 306 298 297 302 305 305 305 306 305 306 307 307 312 315 316 316 326 328 329 329 330 331 332 331 331 332 333 332 332 331 331 334 335 336 338 341 342
306 298 294 297 292 294 295 294 298 303 302 303 303 303 304 305 305 304 304 306 307 311 311 311 314 315 316 318 319 322 324 327 327 325 326 325 321 322 326 329 331 331 332 334 335 336 338 339 340
303 296 298 301 297 296 296 296 300 301 301 300 301 304 306 306 304 304 304 305 306 309 312 313 313 315 316 318 316 315 317 319 319 321 319 320 318 319 322 326 330 330 332 334 334 337 339 338 337
302 300 302 302 300 299 297 296 300 300 297 300 299 302 303 304 304 304 305 305 307 309 313 312 313 314 314 314 315 314 316 319 321 320 320 321 321 320 321 322 324 325 329 329 333 334 334 333 335
299 304 303 303 303 298 298 300 301 300 301 305 303 304 303 303 303 304 306 307 309 309 311 312 314 314 314 314 314 313 318 320 320 318 319 318 319 319 318 319 321 323 325 326 328 328 331 333 333
301 302 302 301 299 300 301 299 300 301 304 305 303 304 303 303 304 305 308 310 311 310 311 312 314 314 314 314 314 314 317 320 319 317 317 318 318 316 318 319 321 322 324 325 327 329 331 331 333
304 301 301 298 297 298 299 298 300 302 305 303 302 302 303 304 305 306 309 309 310 311 312 312 314 315 314 313 314 314 315 315 318 315 316 318 316 316 317 319 320 321 324 326 327 329 331 332 333
301 298 300 300 298 298 299 296 298 302 303 301 301 301 303 304 306 307 310 310 309 310 312 311 315 315 314 313 314 315 316 316 315 316 318 318 318 317 320 319 320 322 324 326 328 329 331 331 332
298 295 292 298 299 300 298 292 299 302 301 299 300 301 302 303 305 308 312 311 311 310 312 311 314 315 314 314 314 315 317 318 318 318 319 320 321 322 321 320 320 323 324 327 328 329 330 329 330
296 292 293 296 299 298 296 294 299 302 301 299 299 300 301 302 305 308 313 312 311 311 312 312 311 314 314 315 316 317 318 318 319 321 321 322 325 325 321 323 325 327 327 328 328 329 328 328 329
291 292 294 294 297 296 294 294 297 301 301 300 299 300 301 302 304 308 312 313 312 312 311 312 311 314 314 316 316 317 318 318 319 320 322 324 325 324 326 324 326 329 327 328 328 328 329 329 328
297 294 294 297 299 296 295 295 299 299 299 298 298 298 299 301 305 308 312 313 314 314 312 311 310 311 312 314 314 315 315 317 319 322 323 324 325 324 326 327 326 329 327 328 328 328 327 327 328
295 293 292 296 298 295 295 294 296 298 299 299 298 298 299 300 303 307 310 311 311 311 313 312 311 312 313 314 314 315 316 319 320 322 324 325 326 327 326 328 327 328 326 327 328 327 325 326 327
294 292 292 293 296 295 292 291 293 297 298 300 298 299 300 300 302 305 307 308 310 309 309 314 312 310 309 313 316 317 319 321 322 322 322 325 327 327 327 327 327 327 328 326 327 327 326 324 326
292 298 297 295 292 287 293 283 291 294 296 299 297 297 299 300 302 304 305 305 310 310 312 312 312 311 313 313 317 316 316 318 320 322 323 324 326 327 327 326 326 326 327 326 326 327 327 326 321
296 299 296 295 290 287 289 284 289 294 295 296 298 297 298 299 302 304 305 306 309 312 312 312 313 313 313 315 319 319 318 319 321 321 322 323 325 327 328 327 327 327 327 326 326 326 326 327 324
301 295 293 291 288 282 288 287 287 291 296 297 298 298 299 299 301 304 305 306 307 311 313 311 314 314 313 315 318 317 314 315 316 318 319 321 323 326 328 327 327 327 326 327 327 327 326 325 325
295 289 283 281 281 282 290 287 290 296 299 300 300 298 299 300 300 303 304 304 306 309 312 312 313 313 313 315 316 316 313 314 315 316 319 320 322 325 326 326 326 326 326 327 328 325 324 325 324
291 290 284 279 278 282 291 286 292 299 303 303 303 300 299 299 301 303 304 305 306 308 312 313 312 312 312 313 314 313 313 312 311 314 319 320 323 324 325 326 327 326 327 329 328 326 325 324 323
292 288 291 286 286 284 287 292 299 302 302 302 299 299 298 299 300 303 304 305 306 307 310 313 313 311 311 312 313 314 314 313 312 312 315 319 322 325 325 324 323 324 326 327 326 326 325 326 324
296 296 287 285 280 279 284 288 291 296 299 302 299 297 298 299 300 303 304 305 305 307 309 314 314 311 311 311 311 312 313 313 312 312 314 317 317 320 318 318 317 317 320 323 324 323 324 323 323
292 291 291 288 286 281 278 285 296 299 304 304 302 298 299 300 301 302 304 305 306 306 308 312 313 310 310 309 311 312 312 312 312 312 313 315 316 317 316 317 318 318 319 320 319 319 320 318 318
297 294 294 286 285 287 285 287 300 303 306 308 305 300 299 301 302 303 304 304 304 306 308 311 312 310 309 309 311 311 311 311 311 312 312 313 315 316 318 320 318 317 316 318 318 317 317 316 316

GFSSGP_sfc_thetae_009.txt.gz
Theta_e
340 339 332 329 314 307 304 304 304 304 304 308 307 305 305 306 306 300 320 324 330 327 337 339 354 352 349 347 347 345 344 340 336 334 333 331 330 331 333 335 337 338 339 339 338 338 340 340 343
335 330 328 321 310 303 304 303 303 306 307 307 307 306 305 304 312 314 318 324 327 328 336 338 350 353 350 349 348 347 344 340 337 336 335 333 331 331 333 335 335 336 337 339 338 338 339 340 342
330 331 324 316 309 303 303 303 305 306 307 307 306 309 308 308 314 316 322 323 324 328 332 339 347 352 351 348 348 344 342 340 337 337 336 335 332 332 333 334 335 336 335 336 338 338 338 340 341
329 327 318 311 305 308 307 310 305 305 306 306 306 305 312 316 316 319 320 320 320 321 328 336 342 348 348 346 346 345 342 339 338 337 336 336 334 333 333 333 333 333 335 336 336 338 338 339 340
325 320 312 308 306 308 305 305 305 306 305 305 307 305 309 315 318 318 318 318 318 319 326 333 338 344 345 344 343 342 340 339 338 336 335 336 335 333 333 333 333 333 333 333 335 337 340 342 342
318 317 308 305 307 309 307 306 305 306 306 306 306 307 310 316 316 316 318 319 324 324 332 334 336 339 341 342 342 340 338 335 335 335 335 335 334 334 333 333 333 333 332 332 334 336 339 342 344
314 313 305 306 307 306 305 306 304 306 305 305 310 306 310 313 313 314 314 316 319 320 322 326 325 325 325 327 329 330 331 331 331 332 333 333 333 333 333 333 333 334 332 332 333 337 340 339 343
318 314 306 306 305 305 306 305 305 306 306 310 312 306 307 312 312 315 317 318 318 318 321 323 321 323 326 327 327 328 329 330 330 330 331 331 332 331 333 333 333 333 333 332 332 336 339 338 339
315 308 303 305 305 306 305 304 305 308 307 308 309 309 310 312 313 314 316 316 319 321 323 325 324 325 326 326 325 326 326 327 327 327 326 327 328 328 330 331 333 332 332 332 333 335 338 338 338
312 307 306 311 309 307 306 305 306 306 305 306 306 308 310 311 312 312 313 315 317 319 322 324 325 325 326 325 327 326 325 325 323 325 326 326 326 325 323 328 330 331 332 332 333 335 336 338 339
310 305 308 309 311 309 306 303 307 306 304 308 307 308 309 311 312 312 314 316 318 321 322 323 325 325 326 325 326 326 324 322 322 323 325 325 325 325 323 327 329 333 330 330 333 335 338 338 338
305 310 310 311 309 305 304 306 304 306 308 310 310 311 310 310 312 312 314 316 319 320 321 323 324 326 327 325 325 326 324 325 326 323 324 322 323 325 322 324 328 330 330 331 334 335 339 339 339
307 309 308 308 306 306 305 304 305 306 309 310 310 309 310 311 312 315 317 320 320 319 321 322 324 326 327 326 326 327 327 325 324 325 325 322 323 323 325 325 327 328 330 331 333 336 337 338 338
310 308 305 305 304 304 304 304 305 307 310 308 308 309 309 310 312 315 317 319 319 320 322 322 324 326 326 326 327 327 327 327 324 323 327 327 326 327 327 327 327 329 331 333 335 335 336 336 338
307 304 304 305 305 304 305 302 303 309 309 308 307 308 308 311 312 314 318 319 320 321 323 322 323 326 326 327 326 327 328 327 327 328 329 328 328 328 327 328 329 333 336 335 336 335 337 337 337
303 303 300 304 304 303 304 299 307 308 307 307 306 306 308 310 312 316 320 321 322 322 322 323 322 326 326 327 327 327 329 328 329 331 331 331 331 331 330 329 330 335 333 333 332 332 331 334 334
302 299 300 300 304 302 302 300 306 306 307 307 306 306 307 309 312 317 320 321 322 323 323 323 325 325 326 327 328 328 330 330 330 331 330 332 332 331 332 331 333 334 330 333 333 333 333 332 331
298 298 298 299 303 302 301 300 306 307 306 307 306 306 307 308 311 316 321 322 323 324 323 323 324 325 325 327 328 329 330 330 331 329 329 332 333 331 332 329 330 330 331 333 333 333 335 333 330
303 300 299 301 305 302 302 302 304 307 306 306 306 306 307 309 313 317 320 322 323 325 325 324 325 324 324 326 325 325 325 326 330 327 326 328 331 328 331 331 331 333 330 333 335 336 332 327 331
301 299 299 302 303 302 302 301 305 306 306 307 308 307 307 309 311 315 319 321 323 322 322 325 323 323 321 324 327 322 325 328 327 325 326 329 329 329 332 331 331 334 332 333 333 333 332 329 330
301 300 300 300 301 302 300 299 303 306 305 306 308 309 309 309 310 314 317 320 322 321 319 323 324 323 323 327 327 326 330 327 326 325 327 327 330 328 330 332 333 334 334 333 334 333 330 324 330
299 304 302 301 299 295 300 293 300 304 305 306 307 307 307 309 311 314 316 318 321 321 321 320 323 325 324 329 329 327 327 323 325 327 329 328 330 329 330 330 331 329 333 334 332 334 328 329 325
302 304 302 301 299 297 297 294 298 302 303 307 310 308 308 309 311 313 315 316 321 322 323 325 324 325 325 329 329 326 326 328 329 329 329 331 333 329 332 329 327 328 330 331 328 329 328 332 331
306 302 300 299 298 292 297 295 297 300 304 307 309 308 307 308 310 314 316 317 319 323 323 324 325 323 324 327 328 326 324 327 323 327 326 327 328 333 333 332 331 330 330 330 329 333 334 333 333
304 301 293 291 292 291 296 294 298 305 308 307 308 309 308 308 310 313 314 314 317 321 322 323 324 322 323 325 328 325 324 326 325 322 323 325 327 328 330 332 329 328 329 330 328 328 331 329 330
301 302 294 287 288 292 295 293 298 307 310 311 310 310 308 308 310 313 314 315 316 319 323 322 322 322 321 323 326 325 325 322 324 326 324 326 327 327 330 329 330 330 328 330 332 331 331 332 329
299 297 303 297 294 292 295 299 305 309 310 309 307 306 306 308 310 313 315 316 317 319 323 324 324 322 321 322 325 325 324 324 323 327 326 330 328 329 331 328 332 333 332 329 330 332 330 325 325
303 304 295 296 288 287 292 294 297 304 307 310 307 306 307 308 310 312 315 316 318 320 322 325 326 323 321 322 323 323 322 323 324 326 326 328 327 325 325 323 323 327 332 329 328 330 330 331 330
299 298 299 298 296 291 289 294 306 307 311 313 312 309 307 308 309 312 314 316 318 319 319 322 325 322 322 322 322 324 322 322 324 324 325 324 326 325 324 324 323 324 328 330 331 333 332 332 330
305 301 302 295 294 295 295 295 308 312 314 316 313 309 309 310 310 312 314 316 316 317 319 321 325 322 322 321 321 322 322 322 323 324 325 327 327 328 328 327 327 325 326 328 329 329 330 330 328

GFSSGP_sfc_thetae_012.txt.gz
Theta_e
340 341 341 335 319 314 309 309 313 311 311 313 313 310 309 309 306 303 326 330 331 331 336 339 352 353 352 351 350 349 349 344 340 337 336 335 334 332 332 333 336 338 339 340 340 338 340 341 342
338 337 335 327 313 307 310 311 310 313 313 314 312 310 309 307 313 316 321 329 330 329 335 333 351 354 354 353 351 349 348 345 341 339 337 337 335 333 333 333 335 336 337 338 340 339 338 341 341
334 334 326 319 313 307 308 312 313 313 313 313 311 313 311 310 316 319 325 327 327 328 327 330 347 352 354 353 348 348 345 344 343 340 339 338 337 336 334 334 334 336 336 336 338 340 339 339 341
332 330 325 313 309 311 310 314 315 312 312 313 312 308 315 320 319 323 325 325 323 323 324 331 337 344 348 349 348 347 345 343 340 339 339 338 338 337 335 334 334 334 335 336 337 337 339 339 341
331 324 313 311 310 312 314 315 314 312 312 311 311 309 311 319 323 324 322 322 322 323 325 327 336 339 343 346 345 344 342 341 340 337 337 337 338 337 335 335 334 334 334 334 336 337 338 341 341
321 321 310 307 309 313 315 315 313 312 313 311 309 310 313 322 321 322 323 324 326 326 329 329 334 336 333 336 337 335 335 335 334 335 335 335 335 335 335 335 335 334 334 334 333 335 337 339 342
318 314 309 309 309 311 312 314 311 311 311 310 313 308 315 318 321 322 321 322 323 324 324 326 328 328 329 326 327 330 330 331 332 333 333 333 333 333 335 335 335 334 333 333 333 333 337 338 339
321 316 310 311 309 309 314 312 313 311 310 314 315 308 311 320 321 321 321 322 322 323 323 326 328 328 330 330 330 329 330 330 330 331 331 332 332 332 333 334 334 334 334 335 333 333 336 338 338
321 310 307 309 309 312 316 313 314 314 312 312 314 314 316 319 320 319 320 320 322 321 323 325 328 330 331 331 330 329 330 329 328 329 328 328 329 330 332 332 333 334 334 334 333 333 335 338 337
314 308 308 313 315 314 316 314 315 310 310 311 312 314 316 317 318 317 317 318 318 320 321 324 330 331 331 330 333 332 331 329 328 329 328 329 329 329 329 328 330 332 334 333 333 333 336 337 338
313 308 312 313 316 316 314 313 315 311 309 312 312 314 315 316 318 317 316 318 319 321 321 325 331 332 332 331 331 330 330 330 329 328 329 330 328 329 329 327 328 331 333 333 333 332 334 337 338
310 312 313 315 315 313 312 314 310 311 313 315 315 316 316 316 317 317 317 319 319 319 323 328 330 332 334 332 330 330 328 329 327 329 331 330 328 329 327 326 327 332 332 333 333 330 334 337 339
311 311 314 316 314 313 312 310 310 311 314 315 315 316 316 317 318 318 319 321 321 318 327 328 330 333 333 332 331 331 330 330 331 330 331 331 328 328 327 326 329 330 329 330 333 333 335 337 338
313 313 313 314 312 311 309 310 309 312 314 314 314 315 316 316 317 319 319 321 320 320 327 328 330 333 333 333 333 332 332 331 331 331 330 333 332 331 332 329 329 329 329 331 332 332 334 338 337
313 309 311 311 311 310 310 307 308 314 314 313 313 315 315 316 317 318 319 321 320 322 327 327 329 331 333 334 333 333 333 333 330 330 333 332 333 333 332 332 332 333 336 335 334 336 336 336 336
308 309 305 311 310 309 308 302 310 313 312 312 313 314 314 316 317 318 321 322 322 323 324 327 329 332 333 335 334 333 333 334 333 333 333 334 334 334 335 335 335 336 336 337 333 333 333 334 336
307 302 305 307 312 309 308 306 311 313 312 312 313 314 313 315 317 320 322 323 321 321 323 326 330 331 333 334 333 334 334 334 335 337 336 334 334 335 336 337 336 338 337 337 336 335 334 334 334
302 303 305 305 309 308 307 307 309 312 312 312 314 314 313 314 316 320 323 323 322 321 324 327 330 331 332 333 333 333 333 336 337 331 329 334 335 334 335 337 336 337 336 336 338 337 338 334 334
307 305 304 307 309 307 307 307 309 312 312 312 313 314 314 315 318 320 322 324 322 322 322 328 328 330 329 331 330 330 329 327 329 330 330 329 334 333 332 334 333 334 334 336 337 339 334 336 336
307 305 305 307 309 307 306 306 309 311 312 314 314 315 315 316 316 318 322 324 323 320 320 326 327 328 331 331 332 332 331 329 331 328 331 332 332 333 334 335 336 336 334 336 336 336 333 334 332
306 305 305 304 308 308 306 304 307 310 312 313 315 316 317 316 316 317 320 323 323 321 320 324 326 330 333 336 338 336 334 331 333 328 328 332 332 333 334 334 335 337 338 337 337 338 333 328 331
303 308 307 305 303 298 306 296 304 307 308 311 314 315 316 316 317 318 320 322 322 322 323 324 327 330 333 335 332 333 331 328 331 333 329 328 334 331 335 335 335 337 338 337 339 340 336 333 326
305 309 307 306 303 303 302 299 303 306 305 308 312 316 317 317 317 318 319 321 320 324 324 328 328 328 334 335 333 330 333 330 336 332 332 328 330 331 330 334 335 336 338 337 336 337 336 334 330
310 306 306 306 303 296 301 300 299 304 305 309 312 315 316 316 317 318 321 320 320 324 324 326 327 327 330 333 332 331 332 331 329 330 330 329 332 328 331 333 332 338 337 336 338 338 336 336 339
308 304 296 295 295 294 302 298 301 307 309 311 313 316 317 316 316 317 319 318 319 322 323 325 324 326 328 331 330 330 331 331 326 326 330 327 328 331 331 330 335 335 337 336 338 338 338 338 338
305 304 297 290 292 296 301 296 303 309 313 316 316 317 317 316 316 317 319 319 318 321 323 324 323 324 325 328 329 330 330 328 327 327 331 328 329 331 331 331 332 332 331 335 338 339 336 338 335
304 301 307 300 301 296 299 302 308 309 311 314 315 314 315 316 316 318 319 320 319 321 324 326 325 324 325 326 329 329 330 331 328 333 333 331 331 332 330 333 332 333 333 334 336 332 331 333 331
307 308 299 301 293 291 296 298 300 305 306 314 315 314 315 316 316 318 319 320 320 321 325 328 328 323 326 326 326 326 328 330 329 335 331 329 329 326 325 326 327 330 330 329 332 335 331 329 330
304 303 304 304 301 294 293 298 308 307 310 312 317 317 316 316 316 318 319 320 320 322 324 327 328 324 324 325 326 327 326 329 330 330 331 331 331 332 325 325 326 327 328 329 334 331 329 327 327
308 304 305 298 297 300 299 299 311 311 313 317 320 318 317 317 317 319 320 319 319 321 322 325 327 324 321 323 325 327 326 328 329 330 331 333 332 331 333 330 329 328 329 330 331 331 332 330 329

GFSSGP_sfc_thetae_015.txt.gz
Theta_e
337 334 343 336 319 316 311 312 316 313 313 317 317 314 311 312 308 305 326 329 328 329 335 342 353 352 351 352 351 351 350 348 345 341 338 337 336 336 334 333 333 335 337 339 341 341 339 341 343
338 339 336 328 314 309 310 315 312 315 317 317 316 314 312 310 315 316 321 329 329 330 335 334 351 354 354 354 353 352 349 347 345 343 340 338 337 337 336 335 334 334 336 337 340 342 341 340 342
339 336 326 321 315 309 309 314 315 317 316 316 314 315 313 314 317 318 327 329 329 329 329 334 349 353 353 353 354 352 348 347 345 342 343 340 339 339 338 337 335 335 336 337 337 339 342 340 341
332 330 326 313 309 313 313 315 316 315 316 316 315 311 317 322 320 323 327 327 326 325 326 337 340 339 344 349 350 349 347 345 343 339 339 339 339 339 338 338 337 335 335 336 337 337 339 341 340
332 324 315 312 312 315 316 317 316 313 314 314 314 311 314 322 325 326 325 325 324 325 327 327 339 336 338 342 344 344 342 341 340 338 338 338 338 338 337 337 337 337 335 335 336 338 338 338 341
321 321 310 309 310 315 317 317 315 314 314 315 312 312 314 325 324 325 325 326 326 326 328 328 336 338 335 332 332 333 333 334 334 335 336 336 336 336 335 336 337 337 336 334 335 334 336 338 339
318 316 312 311 311 312 315 318 314 314 314 313 316 310 317 321 324 326 325 325 325 326 325 328 329 333 333 332 329 327 330 331 332 333 333 333 333 334 334 334 336 336 336 335 335 335 334 336 338
320 318 312 312 310 311 317 317 319 315 314 318 317 310 311 322 325 325 324 324 324 325 325 327 328 327 331 333 334 330 330 331 331 331 331 331 332 333 334 334 334 336 336 334 333 334 334 336 338
323 312 308 310 310 312 317 315 319 319 316 315 316 316 319 323 323 322 322 322 323 323 325 325 326 331 334 333 333 331 333 332 331 331 330 330 330 331 332 333 334 335 336 334 335 335 335 335 338
316 311 310 314 315 313 316 316 317 315 315 314 315 318 318 320 320 320 320 319 320 321 324 323 329 334 334 331 333 333 332 331 332 331 330 330 331 330 330 330 330 333 335 335 334 334 334 334 334
316 310 313 313 314 316 315 315 317 314 312 315 313 315 319 319 320 320 319 320 321 323 323 326 333 335 334 332 331 330 332 331 332 331 330 331 330 331 329 329 328 330 333 336 334 333 331 329 331
313 315 314 313 315 316 314 316 314 314 314 317 316 316 319 318 319 320 319 320 321 322 323 329 332 334 336 333 331 331 330 331 330 330 331 332 330 329 329 329 329 331 330 335 338 337 332 333 334
313 313 315 315 316 317 317 313 314 313 316 316 316 316 317 318 320 322 321 322 324 322 325 330 332 334 335 334 333 332 331 330 332 331 331 335 330 331 330 329 328 328 331 333 334 336 331 333 336
316 316 314 315 315 316 312 313 312 315 315 315 316 315 315 317 320 321 322 322 323 321 326 330 331 333 333 335 335 334 334 335 332 330 331 332 335 335 333 332 331 333 331 331 332 333 334 333 335
316 311 313 313 314 314 315 309 311 316 317 314 314 316 317 319 320 320 323 324 323 323 328 329 330 331 334 336 335 335 334 334 332 330 334 332 334 335 334 334 334 337 332 333 333 332 335 333 337
311 312 306 312 314 314 312 305 314 317 315 315 315 316 317 318 319 321 323 325 325 323 323 328 330 331 334 335 334 334 333 335 337 333 332 334 334 335 335 336 334 334 339 336 332 332 331 335 335
310 303 305 308 315 313 311 307 314 317 315 314 315 317 317 317 320 322 323 326 326 322 326 326 331 331 333 336 336 335 337 337 339 338 333 336 334 334 337 336 338 339 336 332 334 331 334 333 333
304 305 307 306 312 313 309 309 314 316 315 314 315 317 317 318 319 322 324 326 326 324 327 328 330 334 333 335 340 334 338 338 336 336 329 333 336 335 337 336 336 336 337 337 335 335 337 335 331
309 308 306 310 313 311 309 310 312 315 314 314 314 316 318 319 321 323 325 326 325 325 326 328 329 333 333 332 332 331 335 330 334 331 333 332 334 333 334 338 335 338 337 336 337 338 335 336 336
309 307 306 310 313 311 310 308 312 313 313 314 315 316 318 319 319 321 324 326 326 325 322 327 329 332 335 337 338 334 333 332 333 334 334 333 332 334 335 336 336 335 336 336 336 337 335 336 336
308 307 307 307 310 312 309 306 309 312 314 315 315 317 319 320 319 320 322 325 326 324 325 326 329 333 337 337 337 339 336 337 335 330 331 334 333 333 335 336 336 335 338 333 337 337 335 328 334
305 310 309 307 306 301 309 298 306 310 310 312 314 316 318 320 321 321 322 324 325 324 327 329 330 332 335 337 335 335 334 331 334 333 331 332 335 333 334 336 336 338 339 337 339 340 335 333 329
307 311 309 308 305 305 304 301 305 309 307 309 313 315 319 321 321 320 322 324 324 324 327 330 332 331 334 335 335 338 333 335 336 336 328 333 334 334 334 335 337 338 341 340 337 338 338 338 331
313 309 308 308 305 297 302 302 302 305 306 309 312 315 319 320 321 321 323 325 323 323 326 329 331 329 333 334 333 334 333 331 327 332 331 331 333 336 335 335 336 338 338 338 339 339 338 336 338
310 306 298 296 297 295 305 301 304 309 309 310 312 315 321 320 320 320 321 321 321 322 324 328 329 328 329 332 331 332 333 334 330 332 328 327 332 333 335 335 337 338 339 338 339 340 339 338 339
307 306 298 292 294 298 305 298 304 311 312 313 316 320 322 320 320 321 322 322 320 323 323 325 327 327 328 329 331 332 335 335 331 333 330 332 334 333 332 335 335 336 336 337 338 340 340 340 340
306 302 308 302 303 299 301 305 310 310 310 313 316 318 319 319 320 320 322 322 320 323 324 325 326 327 327 329 331 330 333 334 332 333 335 331 334 336 334 335 333 334 335 337 338 338 337 338 338
309 310 301 302 294 293 299 301 303 306 308 314 316 317 318 319 319 320 321 322 321 323 326 327 327 325 327 328 329 328 331 334 335 334 330 328 330 331 332 334 332 333 335 336 337 335 335 335 336
305 304 306 306 303 296 295 299 310 309 310 311 317 319 318 318 319 320 322 322 321 322 324 327 327 323 326 327 328 328 329 331 332 332 332 333 334 329 328 329 332 331 333 334 335 333 333 332 331
309 306 307 300 299 302 301 301 312 312 313 315 317 319 319 319 320 321 321 322 320 321 323 325 327 323 324 326 327 326 328 331 332 332 333 333 333 332 329 328 328 329 332 333 333 330 331 330 327

GFSSGP_sfc_thetae_018.txt.gz
Theta_e
336 330 331 333 317 316 310 310 317 313 313 317 317 314 311 312 308 305 329 328 327 337 346 347 355 354 353 353 352 351 351 350 348 346 342 339 337 337 337 335 333 333 334 335 338 342 342 340 341
329 331 335 325 313 308 309 315 312 314 316 317 316 314 312 310 315 317 322 330 328 333 343 345 355 354 354 354 353 353 352 350 348 346 343 341 339 338 338 337 336 335 334 335 336 339 342 342 340
336 337 323 317 313 308 308 314 314 316 317 315 314 316 314 313 317 318 328 330 331 335 335 346 353 354 355 353 354 354 352 348 347 345 344 343 341 340 339 339 339 337 336 336 336 336 339 342 341
333 327 323 311 308 312 314 316 316 314 316 317 315 311 317 321 319 322 327 326 327 325 333 345 347 345 342 343 347 350 350 348 345 342 341 340 339 342 340 339 339 339 338 337 336 336 336 339 342
330 323 313 311 310 314 318 319 317 313 314 314 314 310 314 320 323 325 326 326 325 330 331 334 343 339 338 338 340 343 340 340 340 340 339 338 338 339 338 338 338 338 339 338 336 336 338 339 339
319 320 309 306 310 314 318 319 315 314 314 314 313 312 316 323 322 323 325 327 326 329 333 336 339 341 339 339 339 336 333 333 334 335 336 336 337 337 337 337 336 336 338 338 336 335 336 339 341
316 315 310 310 309 312 315 320 315 315 313 312 316 310 317 321 323 326 326 328 329 329 329 334 334 338 341 339 336 332 330 330 332 333 333 333 334 334 335 335 335 335 336 338 337 336 337 338 339
319 315 309 310 309 309 317 318 319 317 313 319 317 310 311 321 325 325 324 323 324 325 325 332 336 331 336 338 335 333 333 333 332 333 333 332 332 332 333 334 335 336 336 337 337 336 338 338 337
323 311 307 309 309 310 317 315 319 321 316 317 317 315 319 324 323 321 322 321 322 325 330 331 327 334 337 336 335 337 336 334 334 333 333 331 330 330 330 333 335 335 336 337 337 337 337 337 337
315 310 309 314 314 311 314 314 315 315 315 315 315 318 320 321 320 318 318 319 322 325 326 329 334 338 338 332 337 338 336 335 335 333 333 331 330 331 329 330 332 333 335 336 336 337 336 334 329
315 310 314 315 315 315 312 313 316 314 311 315 313 316 317 318 320 319 318 322 322 329 328 330 338 339 338 335 335 332 333 333 334 333 334 332 330 331 329 328 328 330 332 332 333 332 331 330 328
312 315 315 316 316 313 311 316 313 314 314 317 317 317 318 318 319 318 318 322 323 326 329 333 337 338 341 337 332 333 330 335 332 333 334 332 331 329 329 329 328 330 329 330 331 332 332 330 328
314 314 316 317 316 314 314 314 313 313 317 318 317 316 316 319 321 325 326 328 326 328 328 335 337 340 341 339 335 336 335 331 335 331 331 332 332 330 331 331 329 329 329 330 330 331 332 328 328
316 316 315 316 315 315 311 313 313 315 318 316 315 315 316 317 319 322 325 327 328 327 332 335 337 340 338 337 337 337 335 334 333 330 328 334 333 332 330 331 330 329 329 330 330 331 329 330 327
315 310 312 313 314 312 314 310 310 315 317 316 315 316 317 318 319 321 326 329 332 330 334 335 335 338 339 339 338 337 337 336 333 333 331 336 334 333 332 331 331 330 330 330 330 330 331 330 331
309 310 304 311 313 314 312 304 312 316 316 315 315 316 317 320 320 323 326 330 332 331 333 335 330 335 340 338 338 336 336 334 334 335 336 332 334 334 332 329 333 331 330 328 330 330 329 330 331
307 302 304 307 313 312 311 306 312 316 316 315 316 316 317 319 322 327 326 328 332 332 332 333 336 335 337 337 340 339 339 337 339 338 337 331 335 335 333 329 329 333 330 330 330 327 328 329 331
301 302 304 305 310 312 309 309 313 316 315 316 317 317 317 319 321 324 326 329 331 332 333 337 336 339 338 339 340 338 340 339 337 335 335 332 333 335 334 332 327 331 329 328 329 327 329 329 329
307 305 305 309 312 310 310 311 312 315 316 315 316 317 319 321 323 325 326 329 330 332 332 336 337 340 338 338 334 334 335 334 335 334 333 333 332 334 334 330 327 330 329 330 329 330 327 327 331
306 304 305 309 311 310 310 309 312 314 315 315 316 317 319 321 321 323 326 328 330 331 331 335 337 339 340 338 340 338 334 335 335 334 334 335 333 334 334 334 331 330 329 330 328 329 327 328 330
305 304 306 305 309 311 309 307 310 313 315 315 316 318 320 321 320 322 323 326 328 329 329 334 337 339 341 340 339 338 337 331 332 334 333 334 334 334 333 335 334 334 330 328 330 328 328 326 329
302 308 308 307 305 300 309 298 307 310 311 312 314 316 317 321 322 322 323 326 328 327 329 334 337 339 339 340 338 334 328 329 333 333 332 331 334 334 336 335 333 335 331 330 328 330 329 328 325
305 310 308 308 305 304 303 300 303 310 308 310 313 316 319 322 322 321 323 325 327 328 330 334 338 338 341 338 339 336 332 334 334 330 331 332 334 334 335 336 334 335 333 331 331 330 329 331 327
311 308 308 307 305 298 302 301 301 305 308 310 311 315 320 321 322 323 324 327 326 326 329 334 336 337 340 336 337 336 333 330 330 328 330 332 333 334 332 334 335 334 334 333 332 331 332 331 331
308 307 298 295 295 294 303 300 304 310 311 310 311 314 320 321 321 321 322 323 324 324 328 330 334 333 337 336 336 334 334 331 330 330 327 328 331 332 333 333 334 335 333 334 334 332 332 332 330
307 307 299 291 293 295 304 298 303 311 313 313 313 319 321 321 321 321 322 323 321 324 327 329 331 330 334 334 335 335 337 332 332 331 332 331 329 332 335 334 333 331 333 335 334 332 332 332 330
306 302 308 301 302 297 300 305 311 311 310 311 314 318 321 321 321 321 323 323 322 324 327 330 331 331 333 333 336 336 336 333 331 332 334 330 331 333 333 334 333 332 332 334 333 330 331 331 331
309 311 301 301 293 291 297 300 301 307 307 311 315 318 320 321 320 321 322 324 323 325 328 331 331 330 331 333 334 333 334 335 334 332 328 329 329 331 332 331 332 332 332 333 332 332 334 332 330
306 304 305 305 301 294 293 299 315 310 311 314 317 319 320 319 319 320 321 323 322 324 324 329 329 328 330 332 332 334 334 334 334 331 333 331 327 331 331 332 331 332 331 333 331 330 331 330 328
309 306 307 299 299 301 301 300 314 315 313 315 317 319 319 320 320 320 321 322 320 322 324 327 329 325 328 330 330 332 334 335 336 332 334 333 327 328 330 330 330 330 330 331 330 330 331 328 326

GFSSGP_sfc_thetae_021.txt.gz
Theta_e
339 336 325 322 309 308 304 308 313 308 306 309 311 309 305 305 305 303 319 324 340 339 343 350 355 355 354 353 352 351 351 350 346 346 344 342 339 337 336 336 334 333 333 334 335 336 342 342 339
328 323 320 321 306 300 303 311 310 306 310 311 311 310 307 306 314 316 317 323 339 340 343 346 355 355 354 354 353 352 352 351 348 346 346 343 340 339 338 338 337 337 336 335 335 335 339 342 341
329 330 318 309 305 302 304 312 313 310 311 310 308 312 312 310 315 319 321 324 329 336 339 343 355 355 355 354 353 353 353 351 348 346 344 343 342 341 340 340 340 340 339 337 337 336 336 339 342
326 323 317 304 302 307 307 312 311 309 310 311 310 308 314 319 317 321 324 323 321 333 341 352 354 354 351 347 348 351 349 350 347 344 343 341 339 342 342 339 339 340 340 340 337 337 336 336 338
325 316 304 302 305 311 313 315 313 308 308 309 310 308 310 318 322 322 321 320 318 325 335 340 347 346 344 341 342 343 342 340 339 340 339 339 339 340 339 339 339 339 339 339 340 337 338 337 339
313 311 300 301 304 311 312 314 314 311 310 308 308 310 310 317 319 319 320 317 321 325 328 333 344 344 344 344 342 342 340 337 336 336 336 336 337 337 338 337 338 338 338 338 339 338 340 339 338
310 305 302 304 306 307 313 316 312 313 308 308 311 308 311 315 318 318 318 318 318 320 320 326 331 338 345 343 342 338 335 333 333 332 333 333 334 334 335 335 336 336 336 336 338 338 339 339 338
314 307 304 305 304 305 312 314 315 312 310 315 315 307 308 315 319 318 316 316 316 317 317 320 324 329 329 329 338 336 335 335 335 334 333 333 332 332 333 333 334 335 336 337 337 338 338 338 338
320 304 302 304 305 307 309 308 314 317 313 315 313 312 317 319 318 315 312 312 313 316 315 315 321 326 326 326 330 338 338 337 336 334 334 332 325 324 327 330 334 336 336 336 337 337 337 337 337
311 303 305 311 311 309 309 308 311 312 311 314 312 316 319 319 315 312 312 313 312 316 318 321 324 325 326 330 326 328 329 329 328 327 325 323 323 323 328 330 332 333 334 336 336 337 336 335 326
311 305 310 311 313 313 309 308 310 310 307 312 309 312 314 315 313 312 311 311 314 314 320 322 324 325 325 325 325 324 323 324 325 325 324 323 324 322 324 323 323 322 329 328 330 330 329 327 325
308 312 312 313 315 313 309 312 310 311 309 313 313 315 313 312 311 311 311 313 315 315 320 323 325 325 326 325 323 323 324 325 324 325 324 323 323 323 322 321 322 322 323 324 325 326 326 326 325
310 311 314 315 314 310 312 310 310 309 314 314 314 314 313 311 312 312 313 316 315 315 318 322 323 324 325 324 323 325 325 325 324 324 324 324 322 321 322 322 322 322 321 323 324 325 326 325 324
313 313 313 314 313 311 310 311 309 311 315 312 312 310 310 311 313 313 315 314 315 314 318 321 322 324 324 324 324 325 326 326 325 325 326 328 324 321 322 323 323 322 321 322 324 326 326 327 322
310 306 309 311 311 308 312 306 306 312 313 311 311 310 311 311 314 313 315 316 316 315 320 320 321 322 323 325 325 327 326 328 325 325 326 329 325 323 323 323 325 324 322 322 323 324 327 327 325
303 305 300 307 309 310 308 300 308 312 311 310 312 312 312 311 312 315 318 318 316 317 318 320 323 323 325 323 325 327 327 326 326 326 326 328 327 325 323 323 323 325 322 321 321 322 322 323 324
301 296 299 303 310 309 307 303 309 312 310 310 310 311 312 311 312 317 321 320 317 317 316 319 321 322 325 325 327 328 328 326 328 327 326 326 326 328 325 323 322 324 321 322 322 321 322 321 322
295 296 300 301 306 307 306 304 308 311 310 309 310 311 312 312 313 318 320 321 318 318 317 321 321 325 324 327 327 327 327 327 328 326 325 326 324 329 326 325 324 324 321 321 320 321 322 322 321
301 300 300 304 308 305 305 305 309 311 310 309 309 310 310 311 315 318 320 321 318 318 318 321 322 323 324 325 324 323 322 324 325 326 326 326 326 327 325 324 326 323 321 322 321 320 319 319 322
301 299 299 304 308 307 306 305 309 310 309 309 309 309 309 312 314 317 319 319 317 317 317 321 322 323 327 325 326 325 326 325 324 325 325 327 327 327 326 323 321 323 321 321 321 320 320 321 323
301 298 299 300 305 307 304 301 305 310 310 311 311 309 313 312 313 315 318 317 317 318 317 320 322 325 327 326 325 325 325 323 324 325 323 325 327 327 328 325 324 325 322 321 320 321 320 317 320
297 305 304 303 301 294 304 291 300 304 305 308 309 306 311 312 315 316 317 317 317 318 317 322 324 325 327 326 324 320 319 318 321 325 322 323 326 328 328 327 326 324 323 322 322 323 321 321 320
300 306 304 304 300 297 298 292 296 303 303 304 305 307 311 313 314 315 317 319 320 319 319 322 323 324 325 328 324 322 320 324 322 322 321 322 324 326 328 327 326 325 323 323 324 323 323 322 321
307 304 303 302 301 293 296 296 295 299 304 305 308 312 313 313 314 316 319 320 319 318 319 323 322 322 325 327 324 323 321 320 319 321 320 322 323 324 326 329 327 326 325 327 324 323 324 323 322
304 298 291 288 290 287 299 295 295 303 306 307 307 311 312 314 314 315 317 317 315 315 318 320 321 320 323 323 324 324 322 321 319 319 321 321 321 323 324 325 327 326 328 328 326 325 324 324 323
297 298 292 284 286 290 299 293 298 307 308 308 314 313 313 313 314 314 316 315 314 315 319 319 321 319 323 323 324 326 324 323 323 323 323 323 322 323 325 325 326 328 328 328 326 325 324 324 321
298 296 301 294 295 291 294 300 305 306 305 307 312 313 311 312 313 314 315 314 314 315 317 317 320 319 322 322 323 325 324 323 322 323 323 324 323 326 326 325 326 327 328 327 326 324 323 324 324
301 303 296 292 286 284 292 295 296 301 302 306 310 311 311 312 313 313 315 314 314 315 315 318 320 318 321 322 322 325 325 326 324 322 322 322 323 324 325 325 325 327 326 326 326 328 326 326 325
298 298 299 296 293 287 286 291 302 303 304 308 310 312 311 311 312 313 314 314 315 315 316 318 317 318 319 320 319 324 325 325 326 324 326 325 324 324 326 326 326 326 326 326 325 328 325 323 322
302 299 298 294 291 293 291 293 306 306 309 311 312 313 311 311 311 312 314 312 315 314 316 317 317 318 318 320 319 322 324 325 324 325 325 325 325 325 326 326 327 327 326 325 326 327 326 323 322

GFSSGP_sfc_thetae_024.txt.gz
Theta_e
337 336 323 321 309 306 302 306 312 306 304 307 308 305 304 304 303 298 317 331 333 332 342 349 354 354 353 353 351 350 349 347 345 344 343 342 340 338 337 336 335 334 333 333 334 334 336 342 340
327 326 318 318 305 299 301 309 306 306 308 308 308 305 304 305 315 316 320 336 333 335 341 346 355 354 354 353 352 352 351 349 347 346 345 344 342 340 339 338 338 337 337 336 336 336 335 338 342
325 325 316 310 303 299 300 308 310 310 310 308 306 310 309 308 318 316 318 337 335 335 340 345 355 354 355 352 352 352 351 350 348 347 346 345 343 341 341 340 340 340 340 339 338 337 336 335 339
322 321 317 303 300 305 307 311 313 308 308 308 308 308 311 316 318 320 323 337 335 335 340 347 354 355 355 353 353 352 351 350 348 347 344 343 341 343 342 341 341 340 340 340 340 339 338 337 337
322 313 302 300 303 307 311 314 312 308 309 307 307 308 308 318 321 321 320 328 329 334 340 349 353 353 355 352 350 349 348 347 345 345 343 341 341 342 340 339 339 339 339 339 340 340 338 339 339
311 308 298 296 302 308 310 311 313 309 309 306 308 307 308 316 318 317 317 322 332 334 338 342 351 351 348 348 346 346 344 344 343 342 341 340 339 339 338 338 338 338 338 339 339 339 340 341 340
308 304 299 302 304 306 309 313 309 310 310 306 311 306 310 312 316 317 316 322 323 326 327 330 334 340 347 346 346 344 342 340 338 336 335 334 334 335 335 336 337 337 337 338 337 338 339 339 339
311 306 300 302 302 304 309 310 310 310 311 313 314 307 306 313 316 315 315 316 318 321 324 324 326 330 330 333 342 341 341 337 336 335 335 334 334 334 334 334 334 335 335 336 336 337 339 338 338
315 302 300 302 303 306 310 304 311 314 311 312 312 313 316 317 315 312 310 311 310 314 314 317 321 324 325 325 330 340 338 337 337 335 336 333 326 324 326 330 333 333 336 336 336 337 338 337 337
309 301 305 311 309 307 309 306 307 308 308 311 312 316 317 316 314 311 310 310 308 311 312 319 322 323 323 328 324 327 328 328 328 329 326 323 324 321 326 329 333 332 333 335 336 336 336 336 327
309 305 311 311 312 312 311 310 309 307 304 308 309 312 314 313 312 311 310 308 310 313 318 319 322 323 322 323 322 321 321 322 324 325 323 321 322 320 321 322 322 320 326 325 329 330 329 329 325
305 311 313 312 314 312 309 313 309 309 308 312 313 315 314 312 311 310 309 311 311 315 318 321 322 322 323 323 322 320 322 323 322 323 322 321 320 320 320 321 321 320 321 322 324 324 326 325 325
308 311 314 314 313 312 312 310 309 309 312 312 313 313 313 312 311 311 310 312 312 316 319 321 322 323 323 322 321 320 323 323 322 321 323 322 321 320 320 320 320 320 320 320 321 322 324 324 325
309 311 312 313 312 312 309 310 309 311 313 310 312 311 311 311 311 309 312 312 314 316 318 319 321 322 321 321 321 322 323 324 324 323 323 325 323 321 319 319 321 321 320 319 321 322 322 322 322
305 301 305 308 309 308 310 305 306 311 311 309 308 310 310 311 311 311 314 314 313 316 318 318 318 321 321 322 322 323 324 325 323 324 324 325 324 321 321 319 320 322 321 320 320 322 323 323 322
300 298 295 303 306 308 306 300 308 310 309 308 309 309 308 309 312 312 314 314 312 316 317 319 324 322 321 321 321 324 324 324 324 323 324 326 326 323 321 320 320 322 321 319 319 320 320 323 322
296 293 295 299 306 306 304 302 307 310 308 308 308 309 309 309 308 312 316 315 315 316 316 318 319 322 322 321 324 324 325 324 324 324 324 325 326 326 322 321 321 321 319 318 319 319 319 320 320
293 292 296 297 303 304 302 302 306 310 309 307 308 308 309 309 309 314 316 315 314 314 318 318 319 322 321 323 323 323 324 324 324 324 324 325 324 325 324 321 321 321 318 318 318 318 321 320 320
299 296 296 300 305 303 302 303 306 308 306 305 306 307 308 308 313 317 317 316 315 315 317 318 319 320 323 322 322 320 320 321 321 323 325 324 324 325 323 321 321 321 317 317 318 319 320 318 321
297 296 296 301 304 301 302 302 306 308 308 308 308 307 307 309 313 316 315 314 314 314 316 318 319 321 324 322 323 323 321 322 322 322 323 324 325 325 324 321 321 320 318 318 318 318 316 317 319
296 295 297 297 301 302 301 299 303 308 310 309 309 308 310 310 311 314 314 313 313 313 316 318 320 322 324 323 322 321 320 320 320 321 320 322 326 325 324 322 319 320 318 318 318 318 318 317 319
294 301 301 300 297 291 301 290 298 303 304 305 306 305 308 310 312 315 313 312 313 314 316 321 321 323 324 324 321 317 316 316 317 320 319 321 324 325 325 325 323 321 320 317 318 320 319 318 319
297 302 301 301 298 293 297 291 295 300 300 303 304 306 307 310 312 313 314 314 316 314 318 321 321 322 324 322 321 318 317 318 319 319 319 321 321 324 327 325 324 322 320 318 320 320 320 319 321
303 300 299 299 296 289 295 293 296 297 301 302 306 306 309 310 311 314 316 316 315 315 318 320 320 321 323 323 320 319 317 317 317 317 319 320 320 321 323 325 323 322 321 320 320 320 321 320 321
300 294 287 284 287 287 296 294 297 302 304 304 307 308 309 311 313 314 314 314 313 314 317 319 318 318 320 322 321 320 319 318 317 318 320 320 319 322 321 323 323 322 324 322 321 321 321 321 320
295 295 288 282 283 288 296 291 297 304 306 307 310 310 311 312 312 314 315 314 313 314 316 320 317 318 320 322 321 321 320 320 320 320 320 319 320 321 321 323 324 325 325 324 322 321 321 321 320
293 290 296 290 292 288 291 296 303 304 307 309 308 310 310 310 311 313 313 312 310 314 315 317 318 316 320 322 322 321 320 319 318 318 320 319 321 325 322 323 324 325 325 324 322 321 320 320 319
296 298 290 288 284 282 289 292 294 298 304 307 307 307 309 309 311 313 314 311 311 315 314 316 318 318 319 319 322 322 322 323 320 321 319 321 321 323 322 322 323 324 324 323 322 322 323 324 323
292 293 293 294 291 286 284 291 299 299 302 307 308 309 309 309 311 313 312 312 311 313 312 315 316 317 318 319 320 321 322 323 322 323 324 321 321 323 323 323 324 323 323 324 324 323 323 322 321
297 293 294 291 288 291 290 291 302 302 305 309 309 310 310 311 311 312 311 311 311 311 313 314 315 316 317 317 321 320 322 322 322 323 321 322 321 323 323 324 324 323 323 324 324 323 323 321 320

GFSSGP_sfc_thetae_027.txt.gz
Theta_e
338 334 320 320 308 304 301 305 309 310 303 305 306 304 302 303 302 297 315 332 330 328 337 349 354 353 351 350 349 347 346 345 343 341 340 339 339 338 337 336 335 334 334 334 334 334 333 338 339
330 326 319 316 304 297 300 308 307 308 307 304 305 304 303 304 313 315 324 331 331 332 339 346 353 353 352 350 350 350 348 345 344 344 343 343 342 341 339 338 338 337 337 336 336 336 336 335 339
322 322 316 310 301 298 299 307 309 312 310 305 303 308 307 307 317 317 321 333 329 332 338 342 354 353 353 352 352 351 349 347 346 346 346 344 344 342 341 339 339 339 340 340 339 338 338 336 336
317 320 316 303 300 303 305 309 312 309 309 307 307 306 309 316 317 317 329 332 330 330 336 345 354 354 354 354 352 351 349 349 348 347 347 345 343 343 342 341 340 340 340 339 340 340 338 338 337
321 312 302 299 302 305 308 310 309 308 306 304 307 306 306 314 321 322 334 333 329 333 337 344 354 354 355 354 352 352 351 351 350 348 346 344 343 342 341 340 340 340 339 339 340 339 341 339 340
310 307 297 296 300 305 308 310 308 308 308 306 306 306 306 313 317 319 329 329 331 333 335 343 353 353 354 353 353 352 351 350 347 345 344 343 342 340 339 339 339 338 338 339 339 339 340 340 340
307 303 299 299 304 304 307 309 307 307 306 305 309 304 307 311 315 315 323 325 330 333 337 339 343 348 353 353 349 348 348 346 344 343 341 340 337 337 336 336 337 337 338 338 338 338 340 339 339
311 305 300 301 300 302 308 307 305 307 309 311 314 306 305 311 315 313 318 321 323 325 327 327 329 333 335 336 346 346 344 342 340 337 336 335 335 335 335 335 335 335 336 335 336 337 338 339 338
312 301 298 301 301 304 307 304 310 311 308 309 310 311 313 315 313 311 311 310 311 316 318 321 324 326 326 326 330 341 340 339 338 336 336 335 327 325 328 330 333 333 334 335 336 336 337 338 336
308 300 302 309 307 305 308 306 308 307 308 307 310 314 315 314 312 311 309 310 308 310 311 317 320 321 322 326 324 325 329 329 328 329 327 326 325 323 325 328 332 333 334 333 335 336 336 336 328
306 304 308 310 311 309 308 310 313 307 303 307 307 310 311 311 311 311 311 311 310 309 314 318 320 321 321 323 321 320 321 321 323 326 325 322 321 321 322 320 321 321 327 323 326 327 328 328 325
303 309 311 312 314 311 309 311 310 311 311 315 311 313 311 311 311 311 310 310 308 312 317 319 320 321 320 321 321 319 320 320 321 323 322 319 318 318 318 318 320 319 319 319 321 322 324 325 325
306 308 311 312 312 313 314 309 310 310 314 314 311 313 312 311 311 312 312 309 310 313 316 319 320 320 321 321 319 318 319 322 321 321 321 320 319 318 319 319 318 318 318 318 319 321 322 323 324
305 306 308 310 311 312 310 310 309 311 313 311 309 311 312 311 311 310 307 308 311 315 318 319 320 321 321 319 319 319 320 321 321 321 322 322 320 319 319 318 318 318 319 318 318 320 320 321 321
301 298 301 303 306 306 311 304 305 311 311 308 307 309 311 312 312 310 311 310 313 316 319 318 319 320 318 319 319 319 321 323 322 322 323 323 322 321 320 319 317 319 319 319 318 319 320 319 320
297 296 292 301 305 306 304 298 307 310 308 307 307 308 309 310 311 312 310 311 313 316 317 317 322 319 320 319 319 322 322 322 322 322 322 324 325 322 319 318 318 319 319 319 318 317 318 318 319
292 290 292 295 303 302 302 299 306 309 307 306 307 306 308 308 309 308 313 311 314 317 315 318 319 320 319 319 321 321 322 322 323 323 323 324 326 325 320 319 319 320 319 317 317 316 317 317 318
290 289 292 294 300 300 299 300 305 307 307 306 307 307 308 307 307 310 312 312 315 315 316 317 319 320 319 321 321 320 320 321 322 322 322 324 323 324 321 320 319 319 316 315 316 316 317 319 320
295 294 293 298 301 300 298 299 302 306 305 305 304 304 306 306 308 312 312 314 314 315 316 316 319 318 320 319 319 318 317 319 320 320 322 323 323 324 320 319 319 318 316 316 316 317 319 319 320
296 293 294 298 301 299 298 298 302 305 305 306 307 305 305 307 311 312 311 314 314 315 316 317 319 318 321 319 320 320 319 320 320 320 321 322 323 323 321 320 319 318 315 315 315 317 314 316 320
296 294 294 294 300 300 297 296 299 304 306 308 308 308 307 308 310 311 311 311 312 313 316 317 319 320 321 320 320 318 317 318 317 318 318 319 323 323 322 321 319 318 316 314 315 316 316 315 317
291 298 297 296 294 289 297 287 295 300 302 304 306 305 304 308 311 311 311 309 311 312 317 318 319 321 322 321 318 315 314 313 315 317 317 319 323 323 323 323 320 319 316 315 316 317 317 317 315
294 300 297 296 294 291 294 289 293 298 299 301 303 304 305 307 311 311 311 311 312 314 316 319 320 321 320 320 318 316 315 316 316 317 317 318 320 322 324 324 323 320 317 315 318 317 317 317 317
300 295 295 295 292 287 293 291 291 295 299 301 304 304 306 308 310 310 311 312 312 313 318 318 319 319 320 319 318 316 315 314 315 315 317 317 318 319 322 324 322 319 317 317 318 318 317 320 320
295 289 283 282 283 284 294 290 295 299 302 303 304 305 307 309 310 311 311 311 310 315 317 317 318 317 319 319 319 318 316 315 315 317 317 319 318 319 318 321 320 317 318 318 318 318 319 319 321
292 291 285 280 282 286 294 289 294 302 305 306 305 306 308 309 310 311 312 312 312 315 317 317 316 316 318 319 319 319 317 317 317 317 318 317 319 320 319 322 322 320 322 320 319 318 319 320 320
291 290 295 288 289 285 289 294 300 303 304 305 306 307 307 309 310 311 312 312 312 313 316 317 315 315 319 319 319 318 318 316 316 317 318 318 319 323 321 321 323 323 322 320 319 319 318 318 319
292 295 287 286 281 282 288 290 293 297 301 304 305 305 306 307 309 311 312 310 312 313 314 316 316 316 318 319 319 320 319 319 317 317 318 319 320 320 320 320 321 323 322 320 319 318 319 320 318
290 290 288 290 287 283 282 288 297 299 303 304 304 306 306 307 310 311 312 310 312 312 312 315 315 317 316 318 319 320 319 320 320 319 319 320 320 321 321 321 321 320 319 320 320 323 323 322 321
296 292 290 288 285 288 287 289 300 301 304 306 306 307 307 308 310 311 311 309 309 311 311 314 314 316 316 317 320 319 320 319 318 319 319 321 321 322 321 321 321 321 321 320 322 322 322 320 319

GFSSGP_sfc_thetae_030.txt.gz
Theta_e
339 333 319 319 307 303 300 304 308 309 306 304 304 303 302 303 306 298 314 327 323 324 334 349 354 352 350 350 349 347 346 344 342 340 339 339 338 338 337 336 335 334 333 334 334 334 333 333 337
331 326 319 316 304 296 299 306 307 309 309 303 303 303 302 303 312 315 323 331 324 327 335 346 354 353 352 351 350 348 347 345 344 342 341 340 340 339 339 339 338 338 337 337 337 337 336 336 334
326 322 314 308 302 297 298 306 308 311 312 305 302 307 306 305 314 317 324 331 329 328 336 344 354 353 353 352 351 350 349 348 345 344 343 344 343 342 341 340 339 339 339 339 339 339 338 338 336
319 318 314 304 300 304 305 308 308 308 310 305 305 304 308 313 315 319 324 330 329 331 337 345 354 353 353 353 352 352 350 349 347 345 346 345 344 343 343 341 340 340 339 339 339 340 340 339 339
318 312 303 300 301 305 307 309 307 307 306 304 305 304 305 312 318 321 330 329 328 328 333 342 353 354 354 353 353 353 351 351 350 347 346 345 344 343 342 341 341 339 340 339 339 339 340 341 340
310 306 297 296 300 304 307 309 307 306 306 304 304 305 306 312 316 325 330 327 327 329 334 339 351 353 354 354 353 352 351 351 350 350 348 346 344 343 341 341 340 339 339 339 339 340 342 342 341
307 302 298 299 302 303 306 308 305 304 305 305 306 303 306 310 315 325 329 327 328 330 333 337 344 350 353 354 352 351 351 352 350 348 346 344 341 339 339 338 338 337 337 337 338 339 340 340 339
309 304 299 302 301 301 307 305 305 305 307 310 311 304 304 309 314 318 321 323 326 329 332 334 339 344 341 344 353 352 350 348 346 343 341 339 337 336 336 337 335 336 336 337 337 338 338 339 339
310 300 296 300 301 303 304 303 308 310 308 307 311 309 311 314 312 314 314 315 317 322 325 327 330 333 333 333 337 345 343 342 341 340 339 338 330 329 332 333 334 333 334 335 335 336 336 339 337
307 299 300 306 306 305 305 306 307 308 308 309 308 311 314 312 311 312 312 315 313 316 317 322 325 326 326 327 326 327 330 331 330 331 329 330 328 326 328 330 332 332 334 334 334 335 336 336 332
306 302 307 307 309 308 307 309 310 307 305 309 307 312 310 310 309 310 312 315 316 317 316 317 321 322 321 322 321 322 324 325 326 327 327 326 326 325 327 326 325 325 328 326 327 327 328 330 330
302 308 310 308 310 307 308 310 310 311 310 315 315 312 310 309 309 310 311 312 308 309 313 315 319 320 320 321 321 320 321 320 320 323 325 323 321 320 320 321 321 322 322 322 323 324 326 328 329
304 307 309 310 309 309 312 309 310 310 315 316 314 310 311 310 311 312 312 311 307 308 312 316 319 319 320 320 321 319 318 321 321 322 323 322 320 320 320 320 321 321 321 321 321 322 324 326 327
304 307 307 306 308 310 308 308 307 310 315 312 311 309 310 310 311 311 309 309 308 310 314 318 319 319 320 320 319 319 319 320 322 322 322 323 321 321 320 320 321 320 321 322 321 321 323 324 326
299 295 298 300 302 302 307 301 303 310 311 309 309 308 309 311 310 310 311 311 309 312 316 319 319 320 320 320 319 319 320 322 321 322 323 324 323 322 322 321 321 322 321 322 321 321 323 323 323
295 294 291 297 302 302 303 294 303 308 306 307 307 308 307 309 311 312 312 309 312 315 317 318 322 320 319 318 319 320 322 322 322 323 324 325 325 324 322 321 321 321 322 321 320 320 321 321 322
291 288 289 292 300 299 299 296 303 306 305 305 307 307 307 308 308 311 310 310 314 317 317 317 319 318 319 319 319 321 322 322 323 324 324 325 326 327 322 321 321 322 321 321 320 319 321 320 321
287 288 291 291 297 296 295 295 301 304 304 304 305 306 307 306 307 308 310 312 316 317 317 317 318 319 319 319 321 321 321 322 323 324 324 325 325 326 323 322 321 321 320 319 319 320 321 321 322
294 291 290 296 299 296 295 296 300 303 302 302 303 304 305 305 307 308 310 313 316 316 317 317 318 318 319 320 319 319 319 320 321 322 323 324 325 325 322 322 321 321 319 318 319 320 320 321 322
294 291 291 296 299 296 296 296 300 302 302 303 304 305 305 304 309 310 309 313 315 316 316 317 318 318 320 319 320 321 320 320 322 322 323 323 324 325 323 321 321 320 318 318 319 320 319 320 322
295 293 293 293 296 297 295 293 297 302 302 304 306 307 306 306 307 307 310 311 314 315 315 317 318 320 321 320 320 318 318 318 318 319 321 321 323 325 324 323 321 320 318 317 318 320 321 319 322
291 298 298 296 292 286 295 285 294 298 300 302 303 302 304 306 309 308 309 310 313 314 316 318 319 321 322 321 319 316 316 315 317 318 320 321 324 325 325 324 322 320 319 317 319 321 321 321 319
294 299 298 295 290 287 290 287 292 296 297 300 302 303 303 306 308 308 309 312 312 315 316 318 320 321 320 320 319 318 316 317 318 318 319 321 322 325 326 325 322 321 319 318 320 320 321 321 320
299 295 293 292 289 282 290 289 289 293 297 300 302 304 305 307 308 308 310 311 311 314 317 318 319 319 320 319 319 317 316 317 317 318 319 319 320 323 324 326 325 322 320 319 320 321 321 322 323
295 288 280 279 280 281 291 289 292 297 300 302 303 302 305 308 307 308 309 310 310 314 316 317 318 318 319 319 319 318 318 317 318 319 319 321 321 322 322 324 322 321 320 320 321 321 321 323 324
291 289 283 278 279 285 292 287 292 301 305 304 304 304 306 307 308 309 310 310 312 315 316 317 317 317 318 319 319 319 319 319 319 319 320 320 321 322 323 324 322 322 321 321 321 321 322 322 322
290 288 291 286 288 284 288 291 297 301 301 303 303 305 305 306 307 308 310 310 312 315 316 316 316 316 318 319 319 319 320 319 318 320 321 321 322 324 323 324 324 323 322 322 321 322 322 323 321
293 295 285 285 281 279 285 288 291 296 300 303 303 303 304 306 308 309 310 310 312 315 316 316 316 316 319 320 320 321 321 321 320 321 321 321 322 322 322 323 324 323 322 322 322 321 321 321 321
287 289 287 288 285 281 281 286 296 298 300 302 303 304 305 306 308 310 311 311 312 313 314 316 315 316 318 319 320 321 322 322 321 322 322 322 322 323 322 323 323 322 321 322 322 323 323 321 320
294 288 288 286 282 285 286 287 298 300 301 303 304 305 305 307 309 310 310 309 310 311 312 315 315 316 318 318 320 321 321 321 320 322 322 323 323 324 323 323 322 322 322 323 323 323 323 322 320

GFSSGP_sfc_thetae_033.txt.gz
Theta_e
338 333 327 324 313 314 308 311 316 316 315 313 313 313 312 314 314 307 328 335 336 331 338 349 354 352 351 350 350 348 347 345 343 341 340 339 338 337 336 336 335 334 334 334 335 335 334 333 335
334 327 324 325 312 306 308 315 314 316 318 318 311 310 309 310 315 320 329 335 335 333 340 344 354 353 352 351 351 349 349 347 345 342 341 341 340 339 339 339 338 338 338 337 338 338 337 337 334
327 324 322 318 314 307 308 314 315 317 318 316 310 312 312 312 319 323 334 337 333 335 341 348 354 353 352 352 351 351 349 348 345 344 343 344 343 343 343 342 340 339 339 338 339 338 339 339 338
322 325 322 311 308 312 312 316 317 316 317 313 312 311 315 319 320 326 336 338 332 333 341 347 354 353 353 353 352 351 350 349 348 346 346 345 345 345 344 343 342 340 340 340 340 340 340 341 340
327 324 310 309 309 313 315 318 317 314 314 314 312 311 313 318 323 327 335 338 334 333 338 344 353 354 354 353 353 352 352 351 350 348 348 347 347 345 344 343 343 342 341 340 340 340 342 343 342
318 318 307 303 307 312 315 317 316 315 314 313 310 311 315 320 323 327 334 338 337 336 339 344 353 354 354 353 353 353 352 351 351 351 349 349 347 345 343 342 341 341 341 340 340 341 342 342 342
315 312 304 306 305 308 312 317 314 313 313 313 314 310 316 318 323 329 335 338 338 339 339 345 348 353 354 353 353 353 352 351 351 351 351 348 346 345 342 340 340 339 340 339 339 340 340 340 340
318 314 304 306 304 305 314 314 315 315 314 316 315 311 314 319 323 330 335 335 335 338 340 343 347 347 347 348 354 353 352 352 352 351 347 345 343 340 338 339 337 336 337 337 337 338 339 338 339
317 307 302 303 304 307 314 313 315 317 316 316 318 318 320 320 322 327 330 331 333 334 337 340 341 345 346 346 348 352 351 349 349 345 343 342 338 337 336 336 336 336 334 334 335 336 336 337 337
314 307 305 309 310 310 312 313 314 314 315 316 317 319 319 320 320 323 326 326 329 331 334 337 341 344 346 344 346 345 342 340 342 341 341 340 339 338 335 335 335 334 333 333 335 335 335 337 336
313 307 311 311 313 313 312 313 316 313 311 315 315 319 322 321 321 321 324 325 326 330 333 335 340 344 344 341 339 335 337 337 339 340 341 340 338 338 336 335 334 334 333 334 334 335 333 333 335
309 313 314 314 315 313 311 315 313 315 315 319 320 321 321 320 320 320 321 324 326 327 330 334 338 340 341 336 333 333 333 334 334 336 339 338 336 336 335 333 333 333 331 332 332 331 332 332 333
309 311 314 315 315 315 315 312 313 313 317 320 321 321 319 319 321 322 322 324 325 324 327 330 335 336 336 335 334 333 334 333 334 333 335 335 334 335 334 332 332 331 331 331 331 331 330 331 332
311 310 311 313 313 314 311 311 311 312 316 315 316 317 318 319 320 321 322 322 323 323 324 329 332 334 334 334 335 334 335 334 333 333 334 336 335 334 333 332 331 332 332 331 331 330 330 329 332
307 304 307 307 309 307 308 303 304 310 312 312 314 315 317 319 320 320 324 324 326 323 325 327 330 333 333 334 334 335 333 333 332 333 335 335 335 334 333 332 332 332 331 333 332 332 331 329 331
301 301 297 304 304 305 305 298 306 310 310 310 312 314 316 318 320 322 324 326 326 323 325 327 326 331 333 334 334 333 333 333 334 335 336 336 336 336 335 333 332 334 332 331 330 330 328 328 329
299 295 296 299 303 303 304 300 306 310 309 309 311 312 314 316 320 324 323 324 322 324 327 327 330 330 332 334 333 334 335 334 335 336 336 336 335 336 334 334 333 334 331 330 330 330 329 327 328
293 293 296 296 302 301 300 301 305 308 308 309 311 313 314 316 318 323 322 322 323 326 329 330 331 332 333 332 333 334 334 334 335 335 336 335 335 335 335 334 333 332 331 330 328 328 329 328 329
300 298 297 300 302 300 301 302 304 308 308 309 310 312 314 316 321 318 318 321 324 326 328 330 330 332 331 331 331 332 331 332 334 334 336 334 334 334 334 333 333 332 330 330 330 328 328 328 330
296 295 295 299 302 301 301 301 305 307 307 309 310 311 314 316 318 317 317 320 323 325 327 329 330 331 332 333 334 335 335 334 334 335 335 334 332 334 333 333 331 332 329 329 328 328 325 327 329
295 294 295 295 300 302 300 299 302 306 308 309 312 314 316 316 317 317 317 320 323 324 327 329 331 332 333 335 334 334 332 332 331 332 333 333 332 333 334 332 331 331 329 327 328 329 329 326 328
293 298 297 296 295 293 300 291 300 302 303 308 312 314 315 314 317 317 318 320 322 325 328 330 331 332 334 334 333 333 330 328 331 331 333 332 332 332 333 332 332 330 329 328 328 329 332 331 323
295 301 298 297 296 296 296 292 298 303 301 304 309 314 315 315 317 317 318 320 323 325 327 330 332 334 334 334 334 332 330 331 332 332 330 332 334 333 332 333 331 331 329 330 330 330 330 331 330
301 299 299 299 297 289 295 293 295 299 301 305 310 313 313 315 316 317 319 321 323 326 327 329 332 333 333 333 333 331 329 329 329 330 331 330 331 333 333 333 333 332 330 329 329 331 331 331 332
300 296 289 287 288 288 297 293 295 303 306 308 310 313 314 316 316 316 318 320 322 324 326 329 331 331 332 332 331 329 329 329 329 329 330 326 327 332 333 334 334 332 332 331 331 331 331 331 332
296 296 291 285 287 289 295 290 294 306 308 310 312 314 315 316 316 316 318 320 321 324 327 328 330 330 331 331 330 330 329 331 331 330 331 330 330 333 334 334 334 333 332 331 332 330 331 332 331
295 293 299 293 294 291 293 297 304 307 308 310 310 312 314 316 316 316 318 320 322 324 327 328 329 330 330 331 331 330 330 330 330 330 333 333 334 334 333 334 332 332 331 331 332 330 331 328 327
298 300 290 293 285 284 291 294 295 303 306 310 311 312 314 316 316 316 318 320 323 326 328 329 330 329 330 331 331 330 332 332 330 332 331 332 334 333 333 333 332 332 331 331 332 330 332 330 330
294 294 295 295 293 287 285 291 307 307 309 310 313 315 314 315 316 317 318 320 323 326 326 327 328 328 329 330 331 331 332 331 330 331 332 332 334 333 332 332 332 332 331 331 331 331 330 330 330
297 296 296 290 289 292 292 292 305 309 309 312 313 314 315 317 317 318 319 320 321 324 325 326 327 327 329 330 330 331 331 329 330 331 332 332 332 332 333 332 331 330 330 330 329 328 327 327 326

GFSSGP_sfc_thetae_036.txt.gz
Theta_e
336 331 332 329 315 311 308 313 321 319 319 320 320 318 316 318 315 312 332 341 342 336 344 351 353 352 351 351 350 349 348 346 343 341 340 339 338 336 336 335 335 335 334 334 334 335 335 334 334
327 326 329 327 309 306 310 319 317 319 320 322 322 320 316 315 321 322 330 340 341 336 344 346 354 352 352 352 351 350 349 347 344 343 342 341 341 340 339 339 338 338 338 338 337 338 337 337 336
327 330 324 318 315 310 313 318 319 320 321 320 318 318 318 317 321 324 337 341 341 338 341 346 354 352 352 353 352 351 350 348 345 344 343 343 342 341 342 341 341 341 341 340 339 339 340 340 339
324 327 325 314 310 316 318 319 320 319 321 320 319 316 320 324 324 328 339 341 339 338 341 348 355 353 353 353 353 352 351 349 348 345 345 345 344 346 347 343 343 343 341 341 341 340 340 340 341
327 324 312 310 310 315 321 323 321 319 318 318 318 315 318 324 327 329 338 340 337 338 339 346 354 354 354 354 353 352 352 351 350 348 347 347 347 348 345 345 344 344 343 342 341 341 343 342 343
319 320 309 306 309 315 319 320 320 319 320 318 316 316 319 326 326 329 336 340 338 338 341 347 354 354 354 354 353 352 352 351 351 351 350 349 349 346 346 345 344 342 342 342 341 342 343 342 342
317 313 307 308 309 311 315 320 318 319 318 317 320 315 321 325 328 331 334 339 340 339 340 347 351 354 354 354 353 352 352 353 352 351 351 351 348 346 344 343 341 341 341 341 340 340 340 340 339
319 315 309 310 308 309 315 318 320 319 317 322 321 316 318 327 329 330 333 335 338 340 339 343 349 348 350 350 353 353 353 353 352 351 351 350 347 343 341 341 339 337 337 337 338 338 339 340 339
322 310 306 308 309 311 317 316 319 322 319 320 323 323 325 327 328 330 331 333 334 336 340 341 343 345 348 345 346 353 353 351 351 349 349 347 340 339 340 341 337 337 336 335 335 335 337 337 337
316 310 309 314 315 314 316 316 317 317 317 318 320 325 326 328 329 328 327 329 331 333 336 340 343 345 345 341 347 351 346 344 344 344 343 342 342 341 339 339 335 336 336 334 334 335 336 336 334
317 311 316 316 317 318 316 316 319 316 314 318 317 321 324 326 328 328 328 328 329 333 335 338 344 346 345 343 344 344 341 341 342 343 344 344 340 340 339 337 337 339 337 334 335 336 336 334 334
313 317 317 318 319 318 316 319 316 318 318 322 322 323 323 324 326 327 328 329 329 330 335 338 342 346 348 344 343 340 337 337 337 337 343 342 339 339 338 335 336 337 335 334 334 332 334 335 334
313 315 317 319 319 318 319 316 316 317 320 322 322 321 321 322 323 326 328 331 331 329 334 338 342 346 348 348 341 337 337 335 336 337 340 340 338 339 338 339 337 334 333 333 333 333 333 333 334
314 314 315 317 318 318 315 315 317 317 320 319 318 318 319 319 320 322 325 329 332 332 334 337 341 346 347 345 342 339 339 337 337 337 338 341 339 339 338 337 337 335 335 335 336 333 332 332 332
313 309 312 314 315 314 317 311 311 316 317 316 315 317 318 318 320 322 325 329 334 334 336 336 340 344 345 343 341 340 337 338 336 337 341 341 341 340 340 338 336 335 337 338 337 336 334 332 332
307 309 304 311 312 313 311 304 313 316 315 314 315 316 316 318 320 323 327 330 334 336 335 335 336 341 343 341 340 337 337 337 336 338 339 341 342 341 340 339 337 337 338 337 335 336 332 332 329
305 300 303 305 311 310 308 305 312 315 314 313 315 317 316 317 322 326 328 331 333 336 335 334 336 337 339 341 339 339 340 338 337 339 339 340 341 340 339 336 336 337 336 336 335 335 332 333 332
300 301 303 304 309 307 306 306 311 313 313 314 315 316 316 317 320 325 328 331 332 334 335 336 335 338 339 338 339 336 336 337 338 338 338 339 340 338 337 336 336 337 336 336 335 333 333 331 332
305 304 304 306 310 307 307 307 310 313 314 314 315 316 316 319 323 326 327 328 329 332 334 335 335 338 337 335 333 332 332 335 335 337 339 340 339 337 336 335 335 335 333 335 335 332 329 330 333
303 302 303 307 309 309 306 305 311 313 314 315 314 315 317 320 323 325 326 327 330 332 334 336 337 339 337 335 336 335 336 335 336 338 339 339 338 338 336 335 335 335 334 334 332 332 327 327 333
301 300 302 302 306 308 305 302 307 312 314 315 315 316 316 320 323 325 325 327 330 331 334 335 337 338 338 339 338 338 338 336 334 335 335 337 336 336 337 337 336 334 336 334 333 331 330 329 332
297 303 301 300 299 296 305 296 305 309 310 313 314 315 317 321 323 325 326 328 329 331 334 336 337 338 338 341 337 337 332 330 336 335 337 336 336 336 335 336 335 335 337 334 331 331 334 334 328
299 302 302 301 299 299 300 297 303 309 307 310 313 315 318 322 323 325 326 327 329 331 333 335 337 337 339 340 339 335 333 334 335 335 334 337 338 337 336 337 336 336 335 334 332 333 335 336 330
303 300 302 302 300 293 298 298 299 305 308 311 314 314 319 322 324 325 327 328 329 331 333 334 336 337 339 338 338 335 334 333 332 333 334 337 339 338 336 335 337 337 335 333 332 335 335 335 333
301 298 293 291 292 292 302 299 301 309 310 311 311 315 321 323 324 324 325 326 328 329 331 333 335 335 337 336 336 334 335 335 334 332 335 333 333 337 336 337 337 337 335 334 334 336 335 336 333
298 299 293 288 291 295 302 296 302 310 312 314 314 315 321 323 324 325 325 327 327 329 331 332 333 333 335 335 334 335 335 335 334 335 335 335 335 338 338 337 337 336 335 334 335 334 336 336 335
298 297 303 299 301 295 300 303 305 308 310 311 313 314 319 323 324 324 326 327 327 329 331 332 331 332 333 334 334 335 336 336 334 335 338 338 338 337 337 337 336 335 335 334 336 334 335 335 336
302 304 296 298 291 290 296 297 297 305 308 310 313 316 320 323 323 324 325 327 329 330 332 332 331 332 333 334 334 335 335 336 336 336 335 337 336 335 336 335 336 335 334 333 335 335 335 332 334
298 298 300 301 298 293 292 295 305 308 310 312 316 318 322 323 323 324 325 327 329 331 331 330 331 331 332 333 335 335 336 336 334 335 336 336 336 336 335 334 334 334 333 334 334 334 333 333 334
302 300 301 295 294 297 297 295 308 312 314 316 316 319 322 323 323 324 325 327 327 329 329 328 330 330 332 332 334 334 335 335 334 334 335 336 335 335 335 334 333 333 333 334 333 331 332 332 331

GFSSGP_sfc_thetae_039.txt.gz
Theta_e
337 332 333 328 313 310 310 312 319 318 320 323 323 320 319 320 317 313 337 339 337 337 351 350 353 353 352 351 350 349 348 345 342 341 339 338 337 335 334 334 334 333 334 334 334 335 336 335 334
325 328 329 323 308 306 308 316 317 321 323 324 324 323 320 317 324 325 331 340 337 338 352 345 353 352 352 352 352 350 349 346 344 343 342 341 340 339 338 337 337 337 337 336 337 337 338 338 337
327 328 322 314 312 307 309 317 320 323 324 322 320 322 321 319 324 326 338 341 338 338 349 348 353 352 353 353 352 351 350 348 345 345 344 343 342 342 341 341 341 341 341 340 340 340 339 340 340
325 325 323 314 312 316 316 321 322 321 323 323 322 318 323 327 326 330 338 339 337 336 343 354 353 353 353 353 353 352 351 350 348 346 345 344 344 345 345 343 342 342 343 342 341 341 340 340 341
326 322 312 310 310 314 318 323 323 320 321 320 321 317 319 327 329 330 336 338 336 336 339 350 354 354 354 354 354 353 352 351 351 348 346 346 347 348 348 345 345 345 345 344 343 342 343 343 342
318 319 311 308 311 315 318 323 323 320 321 321 318 318 320 328 328 331 334 338 337 337 340 346 355 354 354 354 354 353 352 352 351 350 350 350 349 348 347 347 346 345 344 343 343 343 342 343 342
315 315 310 310 310 312 316 321 318 319 318 319 322 316 322 326 331 333 334 337 340 338 339 342 354 354 354 354 353 352 352 352 352 352 352 350 348 348 346 344 343 342 341 341 341 341 340 340 340
318 316 311 312 309 310 317 318 321 320 318 325 324 317 320 328 332 332 334 334 337 338 338 340 349 353 350 350 354 353 353 353 353 352 351 351 348 348 346 345 342 340 338 337 338 338 339 340 341
321 311 308 310 310 312 318 316 322 323 321 321 323 323 326 330 330 330 331 332 333 336 339 339 341 346 348 346 348 353 351 351 352 350 349 348 342 341 343 343 344 339 338 337 336 336 337 337 339
316 312 311 316 316 315 318 318 319 319 318 320 321 324 326 328 329 328 329 329 330 333 336 339 341 345 346 343 348 351 346 345 346 344 344 347 345 343 340 342 337 337 338 337 336 335 336 336 332
318 312 317 317 319 319 318 318 320 318 316 319 319 322 324 325 327 326 327 328 330 333 335 338 350 354 348 344 342 345 347 345 345 346 349 348 341 342 341 340 340 339 340 337 336 335 334 333 332
314 318 319 319 320 319 317 320 318 319 319 323 324 325 325 324 324 324 325 326 327 330 334 338 343 352 355 346 342 344 344 343 341 342 347 345 341 344 341 338 340 343 337 338 335 334 337 337 336
313 315 318 320 320 320 320 317 318 319 323 325 325 324 323 323 323 325 325 326 326 328 334 336 346 352 355 357 344 346 346 339 340 339 341 341 340 343 341 342 338 339 338 334 334 334 335 336 332
316 316 316 317 318 319 317 318 319 320 323 323 323 322 322 322 323 324 324 326 328 332 334 338 345 354 351 353 358 351 348 340 338 337 339 342 341 343 338 339 340 339 338 338 336 335 333 333 334
316 311 314 316 316 315 317 313 315 321 322 321 321 320 321 321 323 323 323 329 332 333 336 342 350 352 355 354 352 347 342 340 337 338 341 342 344 343 342 337 338 344 341 342 340 338 337 334 334
310 312 306 313 315 315 315 307 316 321 320 319 319 319 319 321 323 324 324 331 334 334 339 341 339 344 352 353 349 343 339 339 338 337 339 343 343 343 342 340 338 342 343 340 339 338 335 333 336
308 303 305 307 314 314 312 309 315 318 318 317 318 318 319 320 323 328 325 328 333 337 339 341 344 341 348 351 345 345 349 340 338 338 338 342 341 341 344 340 339 341 342 339 336 336 336 335 333
300 302 304 305 311 313 310 310 314 316 316 316 317 317 318 320 322 325 326 330 333 337 341 343 342 349 351 345 346 339 338 338 338 338 339 340 340 340 341 338 339 342 339 332 338 335 336 333 333
305 305 304 308 312 310 309 311 313 314 315 315 316 317 319 321 324 325 329 333 333 336 340 340 341 350 344 339 335 335 333 336 337 337 339 339 341 339 341 337 337 339 334 335 335 336 331 333 336
304 303 304 308 312 310 309 309 312 314 314 315 317 318 320 321 321 324 329 333 333 336 338 339 339 344 343 340 342 337 337 336 337 337 340 341 341 341 339 338 336 336 334 335 335 334 332 332 335
302 302 303 304 309 309 309 306 309 313 315 315 316 319 320 320 320 323 330 332 334 335 338 338 340 342 343 346 341 341 339 338 334 334 336 338 338 337 339 336 336 337 339 336 336 334 331 327 329
298 305 305 304 303 299 308 297 306 310 311 313 316 319 319 320 321 325 331 332 334 335 338 339 341 341 341 343 343 342 333 331 335 337 338 338 339 338 336 338 336 336 339 337 336 332 333 334 329
301 306 305 304 302 301 301 298 302 308 307 311 315 318 320 319 322 327 330 332 334 336 336 339 340 340 341 342 341 337 334 332 334 335 337 339 339 338 335 338 336 336 341 337 337 334 335 337 335
305 303 304 305 302 294 300 299 300 303 307 311 315 318 319 319 326 329 331 333 333 335 336 338 339 339 341 339 339 339 335 335 333 334 336 336 341 340 338 335 337 338 337 335 333 336 336 336 336
304 300 293 293 292 294 302 299 302 308 311 313 315 317 318 323 326 328 329 330 332 333 334 336 337 338 339 338 337 337 338 337 335 336 335 335 340 338 338 337 338 337 337 336 337 337 336 337 335
301 300 294 288 291 294 302 297 302 313 315 317 316 316 322 325 327 328 329 330 331 332 334 334 336 336 336 335 335 336 338 334 335 335 337 340 340 338 340 338 338 337 335 334 337 338 336 337 337
300 298 304 298 301 297 301 306 311 313 313 314 315 316 319 325 327 328 329 330 331 332 334 335 335 335 334 334 336 336 336 336 335 336 339 340 340 338 337 337 337 336 335 334 336 337 336 337 335
302 306 296 300 292 292 298 301 303 307 310 313 313 314 318 326 326 328 329 330 331 333 334 335 335 332 333 334 334 334 338 335 335 336 335 337 337 335 335 336 335 335 334 334 336 336 336 335 338
299 299 300 302 300 294 293 299 309 309 311 312 313 316 319 325 326 327 328 330 331 333 333 333 332 332 332 333 334 336 335 336 334 335 335 338 338 337 335 334 333 333 333 333 335 335 333 331 332
302 300 302 298 297 300 300 299 309 311 313 314 316 318 322 326 326 327 328 329 330 331 332 331 331 331 332 333 334 336 335 334 336 334 335 335 335 336 336 334 332 331 332 334 333 331 331 332 330

GFSSGP_sfc_thetae_042.txt.gz
Theta_e
335 330 329 327 312 308 305 309 317 318 318 322 321 318 317 319 315 312 336 336 342 347 344 347 352 352 351 350 350 349 348 346 344 342 340 338 336 335 334 333 333 333 333 333 333 334 335 335 335
324 322 327 320 307 303 304 312 314 318 323 323 321 321 319 316 323 327 331 338 341 349 348 344 352 352 352 352 351 350 349 347 346 344 342 341 339 338 337 337 336 335 336 336 336 336 337 338 338
326 324 318 312 309 304 306 316 318 320 324 321 319 323 320 318 325 329 338 340 339 349 349 345 353 352 353 353 352 351 350 349 347 344 343 343 342 341 341 341 341 341 341 341 340 340 340 340 340
326 320 319 310 308 312 312 319 322 321 322 323 321 317 323 328 326 330 336 336 335 343 348 351 352 352 353 353 353 352 351 350 349 347 347 346 345 346 346 344 342 342 342 343 343 342 342 341 343
324 319 309 306 307 312 315 319 321 320 320 320 321 316 319 326 330 331 336 337 335 335 345 352 352 353 354 354 353 352 351 350 349 349 348 347 347 348 348 347 345 345 345 345 345 344 344 344 345
315 316 306 305 309 313 317 319 321 320 320 320 319 318 320 328 329 331 334 338 336 337 343 353 353 353 353 353 353 352 352 351 351 351 350 349 349 349 348 348 347 347 345 344 343 345 344 343 342
313 310 306 308 309 311 315 320 318 317 317 318 322 316 321 325 330 336 336 338 340 340 341 354 352 352 354 353 353 353 352 352 351 351 351 351 350 349 348 348 346 346 345 343 342 342 342 341 341
316 313 307 309 309 310 316 317 319 318 317 325 324 316 318 329 333 333 332 332 335 338 337 352 352 350 350 350 354 353 353 352 352 352 351 351 350 348 348 347 347 345 344 341 339 339 339 341 342
319 306 304 307 309 311 318 315 320 322 319 321 322 321 324 327 329 328 329 329 330 333 338 340 351 351 349 346 350 353 353 353 352 352 351 350 343 338 342 345 346 346 343 340 339 338 338 339 340
312 306 307 313 314 314 317 317 318 318 318 318 320 324 326 327 327 326 326 325 327 329 334 337 339 347 349 345 346 350 349 348 348 345 345 345 343 345 342 344 348 342 342 341 339 338 337 336 332
314 308 312 314 317 318 316 316 319 317 314 318 318 321 324 326 327 326 324 325 326 329 331 337 342 348 346 343 344 349 347 344 344 345 345 345 346 345 344 340 338 338 341 336 337 335 333 332 330
311 315 315 317 319 318 316 319 317 318 318 323 324 325 324 324 325 325 324 324 325 326 332 337 343 347 346 344 345 349 347 345 343 345 348 349 345 344 343 340 340 340 337 337 338 333 334 334 335
310 312 315 318 319 318 319 317 317 318 322 324 325 325 324 325 326 327 327 327 329 328 329 335 346 346 350 351 346 345 347 346 346 346 348 344 341 342 345 342 341 339 339 336 335 335 335 334 332
313 313 313 315 316 317 315 315 317 319 323 322 323 323 324 324 325 325 328 331 334 336 338 339 346 348 351 346 353 352 353 349 347 345 344 344 344 345 342 343 340 340 342 337 336 334 334 332 332
313 310 313 314 314 314 317 312 313 319 321 319 321 323 324 325 325 324 329 334 338 337 342 342 351 352 350 350 349 357 352 347 344 343 346 347 345 345 344 341 340 341 340 339 337 336 335 334 332
307 309 304 311 314 315 314 306 315 319 318 318 320 321 323 324 324 329 329 332 338 341 339 346 343 351 352 352 351 350 349 345 347 345 345 345 346 345 344 339 338 341 340 337 337 335 333 332 332
305 301 302 306 313 312 312 308 315 319 318 318 319 319 320 321 325 330 333 332 338 344 346 349 350 347 350 354 353 352 350 344 343 345 345 345 344 344 342 339 341 340 338 336 335 334 333 330 329
298 299 302 303 309 311 309 309 314 317 317 317 318 319 319 320 323 328 331 334 347 344 347 352 349 352 350 350 351 346 344 344 346 344 343 346 344 342 341 341 339 339 336 334 334 331 333 330 330
303 302 301 306 309 308 308 308 312 316 316 316 317 317 319 321 324 328 330 342 339 342 347 349 348 352 348 346 341 339 337 340 340 343 344 343 343 341 340 340 338 337 334 333 333 331 329 328 330
300 300 301 305 308 307 307 308 313 315 315 316 317 317 318 321 324 327 333 339 340 342 346 346 346 350 346 344 342 340 339 338 338 343 343 343 340 342 339 338 336 336 334 333 332 331 328 328 329
300 299 300 300 304 307 306 305 309 313 316 317 318 319 320 320 319 323 332 337 338 339 341 342 345 346 345 346 343 348 347 343 340 340 339 341 340 340 338 336 335 335 336 333 332 332 329 324 327
296 302 301 301 300 297 306 296 306 310 312 315 317 318 318 319 321 326 331 335 337 337 340 342 344 343 344 348 345 344 339 334 340 341 340 340 341 338 337 336 336 336 334 334 333 333 330 328 323
298 303 302 301 300 300 300 298 302 309 308 311 315 317 318 320 324 325 332 334 335 338 338 341 343 342 345 346 345 342 341 340 340 340 339 341 340 338 337 336 337 335 336 333 332 331 330 331 328
304 301 301 301 300 294 300 298 299 303 307 310 314 315 317 320 322 329 333 335 335 337 338 340 340 341 343 344 346 345 342 341 338 338 337 338 336 338 335 336 336 337 334 333 332 333 332 329 330
300 299 292 290 291 291 301 298 301 307 311 312 313 316 318 322 323 329 331 331 333 334 337 338 338 339 341 341 342 341 342 342 340 339 338 337 336 335 336 336 336 337 335 334 334 333 330 330 329
298 299 293 286 288 292 299 295 300 310 313 315 316 318 320 322 328 329 330 331 332 334 336 336 337 337 339 338 339 341 342 338 340 341 337 339 339 338 339 338 337 337 335 334 333 332 331 332 330
298 295 302 296 297 293 297 302 307 311 312 314 315 318 320 326 327 328 330 331 332 333 335 336 337 337 337 337 339 339 340 341 340 339 339 339 340 339 337 338 336 336 333 334 333 332 331 331 331
299 303 294 297 288 288 295 298 300 308 311 313 314 317 320 326 327 328 330 331 333 334 336 338 338 336 336 337 337 337 338 337 339 339 337 340 339 338 336 337 336 334 333 334 334 334 334 331 332
297 296 298 300 297 291 291 296 312 310 312 313 315 316 320 325 326 327 329 331 333 334 334 336 336 334 334 335 337 337 337 337 337 338 338 338 338 337 335 334 333 331 330 333 332 333 331 329 327
301 298 299 295 294 297 297 298 313 313 313 315 316 317 323 326 326 328 329 330 331 332 333 334 333 331 333 334 335 335 334 336 337 335 337 335 336 335 335 334 332 331 331 331 331 330 330 329 325

GFSSGP_sfc_thetae_045.txt.gz
Theta_e
330 330 324 321 307 302 297 304 311 313 316 320 316 314 311 312 313 309 325 337 339 338 343 347 352 352 351 350 349 349 347 346 344 341 339 337 336 335 334 334 334 334 334 334 333 334 334 335 335
323 319 322 315 303 297 299 306 305 316 320 322 318 316 313 313 324 325 327 342 340 338 342 343 352 352 352 351 350 349 348 346 344 342 341 340 339 338 337 336 335 336 336 336 336 336 336 336 337
326 319 310 307 304 297 300 309 313 318 322 321 318 320 317 317 327 327 331 344 341 338 340 341 353 352 352 352 351 350 349 347 345 343 342 342 341 340 340 339 339 339 340 339 339 340 339 339 339
322 316 311 304 303 308 308 312 317 319 321 323 321 315 319 328 326 330 342 345 342 341 339 346 352 352 352 352 352 351 350 349 348 345 345 344 343 343 345 342 342 342 342 343 343 343 342 341 341
318 312 302 301 303 310 314 316 318 317 318 319 321 314 316 324 329 329 335 345 343 342 338 346 352 353 353 353 353 351 351 350 349 349 347 346 347 347 346 344 344 344 345 344 345 345 345 344 344
308 310 299 299 304 310 313 315 318 318 319 318 316 315 315 323 324 327 330 330 342 341 339 345 351 353 353 353 353 352 351 350 350 350 350 349 349 349 347 346 346 346 347 345 344 344 345 344 344
309 303 299 301 303 307 311 316 314 314 312 315 317 313 316 320 324 325 328 328 329 341 342 344 346 349 353 353 352 351 351 350 350 350 350 350 350 350 349 348 347 347 346 345 343 342 342 342 341
313 305 300 302 302 305 313 315 313 311 314 322 322 313 311 319 326 325 324 327 327 338 344 343 344 344 345 347 353 352 352 351 350 351 350 350 350 350 349 348 348 346 345 343 342 341 340 342 343
320 302 297 300 303 306 313 311 318 319 316 318 320 318 321 325 326 321 319 319 321 332 343 344 343 343 343 345 349 353 353 352 352 351 351 348 343 342 343 345 346 347 345 344 343 341 341 340 339
313 302 302 307 309 308 312 314 315 315 315 315 318 322 324 322 319 318 316 316 314 317 339 343 343 343 342 344 343 347 346 345 346 345 343 342 338 334 336 341 349 349 347 345 343 341 339 337 330
312 305 308 309 311 313 312 314 318 315 312 315 315 318 320 319 319 319 318 316 316 317 324 342 342 343 342 341 341 345 344 343 344 341 338 339 338 336 339 333 338 338 344 335 339 336 334 329 328
307 311 312 311 313 312 311 316 315 315 314 320 320 322 321 319 317 318 317 316 316 316 316 324 340 343 342 341 339 343 342 341 340 340 338 336 337 335 333 332 331 331 332 331 330 330 331 328 329
306 308 312 315 314 313 316 314 314 314 319 320 320 320 318 319 319 319 320 319 317 316 317 320 331 341 341 338 339 342 341 340 338 338 339 339 335 332 332 331 331 331 331 331 331 332 330 329 329
308 310 310 310 311 313 311 312 313 315 318 317 317 317 317 318 319 318 319 317 317 321 320 321 331 339 339 337 339 342 341 341 339 339 340 338 334 332 333 333 332 330 331 329 328 327 326 326 328
305 302 305 307 310 309 312 307 309 314 316 316 315 316 316 317 320 318 318 317 321 320 320 322 332 338 338 337 340 339 340 341 338 336 338 336 334 333 333 331 330 331 331 330 329 328 328 326 326
302 302 296 304 307 311 310 302 310 315 314 313 315 316 316 316 319 318 318 318 319 321 322 325 342 340 341 338 338 341 336 334 331 331 334 337 335 334 333 332 329 330 330 329 327 326 326 326 325
298 293 295 300 307 308 307 303 310 314 313 312 314 314 316 315 315 317 320 319 320 322 323 329 340 340 340 341 340 338 334 331 332 333 332 336 337 337 333 330 329 330 329 328 327 326 325 323 322
292 294 297 297 303 306 304 304 308 311 311 312 313 314 315 314 314 316 319 320 323 328 330 332 339 340 341 341 340 335 335 331 331 331 331 335 335 337 332 331 330 330 328 327 326 325 324 323 322
298 297 296 300 304 303 301 302 305 309 308 309 311 311 311 312 315 316 319 322 327 331 336 335 338 339 342 340 334 330 329 329 328 331 332 334 334 334 331 329 329 329 327 326 326 324 323 321 322
295 293 294 300 304 302 301 301 306 308 308 310 311 310 312 311 315 317 319 326 327 330 332 333 338 338 337 336 332 331 330 328 329 330 332 331 331 332 330 329 330 329 326 326 325 323 320 321 322
294 293 293 294 300 301 299 296 300 305 309 311 312 312 312 312 312 313 324 325 327 330 330 332 336 336 335 333 332 332 331 330 327 328 329 330 332 333 330 331 329 327 326 324 325 324 322 318 320
290 298 297 297 295 290 297 288 297 302 304 308 310 309 311 312 314 313 324 325 327 329 331 334 335 334 334 331 330 327 325 321 324 326 328 331 332 331 332 329 328 326 327 324 325 327 322 320 316
294 299 297 297 294 292 293 289 296 301 301 304 308 310 311 312 311 312 324 328 329 330 330 333 333 332 333 331 331 329 327 327 326 327 327 329 330 329 331 329 327 327 326 325 324 323 322 322 318
299 297 296 295 292 286 291 291 293 296 300 302 307 308 310 309 312 324 327 329 329 331 332 332 331 331 332 332 331 327 325 326 325 325 325 326 326 328 331 330 327 326 325 324 324 323 323 323 323
294 290 283 283 284 284 293 291 295 299 303 306 306 308 309 310 317 324 325 326 328 329 331 331 330 330 330 331 329 327 327 326 325 324 324 325 325 325 327 326 326 326 325 325 325 324 323 324 322
289 290 284 279 281 285 293 289 293 303 307 308 309 308 309 309 322 324 325 326 328 330 330 329 330 329 330 328 328 327 329 326 326 326 326 326 326 326 327 326 327 327 328 326 324 325 325 324 323
288 286 293 287 290 286 289 294 299 302 303 306 307 308 316 318 322 323 324 326 328 328 328 329 330 329 330 328 327 327 327 327 326 327 327 327 328 330 328 328 327 327 326 325 323 324 323 324 324
294 294 286 288 281 281 288 290 291 298 301 304 306 308 317 320 321 323 324 326 328 329 328 329 329 329 328 327 326 327 326 327 327 327 326 329 329 329 328 328 327 326 325 326 326 324 325 322 323
290 287 288 289 289 284 283 288 299 304 305 304 307 309 318 319 321 323 324 326 327 328 329 329 328 327 326 325 326 327 327 327 326 326 328 328 327 329 328 328 326 325 326 326 324 323 325 324 324
295 291 289 285 285 289 288 289 301 304 305 307 308 309 319 320 322 323 324 326 326 326 328 327 325 325 326 326 327 327 329 327 326 326 327 329 327 328 328 328 329 328 328 326 324 324 326 325 324

GFSSGP_sfc_thetae_048.txt.gz
Theta_e
330 326 322 320 305 301 297 302 310 308 313 318 318 312 310 311 311 306 322 335 337 335 343 348 353 352 351 351 349 348 346 345 344 342 339 336 336 335 335 335 334 334 334 333 333 334 334 334 334
319 319 320 314 302 296 296 304 305 308 318 320 318 316 314 316 323 323 329 338 336 336 341 343 352 352 352 351 350 349 348 346 344 342 340 338 337 336 335 335 335 335 336 336 336 336 336 336 336
323 318 310 307 301 295 297 307 311 318 320 318 315 320 316 318 326 325 331 338 335 334 339 341 353 352 352 352 351 349 348 347 345 342 341 340 339 339 338 338 337 337 338 338 338 339 339 339 339
319 313 309 302 301 306 307 309 313 317 319 319 319 316 317 325 327 329 340 338 333 333 338 345 353 352 352 352 351 350 349 348 347 345 343 342 342 341 341 341 341 341 341 342 342 342 343 342 341
315 309 299 298 302 308 312 314 313 314 316 318 320 314 315 324 332 342 340 338 333 333 334 342 352 352 353 353 352 351 350 349 348 348 346 345 345 344 343 343 343 342 343 343 344 344 345 344 344
307 306 296 296 301 307 310 312 312 316 318 317 313 314 313 323 333 340 341 338 337 334 332 338 351 352 352 352 351 351 350 349 349 349 349 348 348 347 345 344 344 345 345 346 346 345 345 345 344
307 301 296 299 302 304 309 313 311 312 315 314 315 311 316 318 323 337 340 340 340 338 333 337 342 348 352 352 352 351 350 349 349 349 349 349 349 349 347 347 345 346 346 346 345 344 344 343 343
311 304 297 300 301 302 310 311 311 311 312 320 320 311 309 318 323 325 331 332 337 338 335 338 339 342 344 346 352 352 350 350 349 349 350 349 350 349 349 348 348 346 346 345 344 343 344 344 343
315 301 296 299 302 304 310 308 315 318 315 316 318 316 319 323 323 319 317 318 322 334 336 339 339 337 340 342 346 351 352 351 350 349 350 347 341 342 345 346 346 346 346 346 346 345 344 342 340
308 302 302 306 307 305 309 309 312 313 313 314 316 321 321 323 320 318 317 316 319 330 337 338 339 339 338 341 341 345 344 343 344 343 343 343 339 337 342 343 347 347 348 348 346 345 341 339 331
309 305 310 311 311 311 309 310 313 312 310 313 313 317 319 318 318 317 316 316 315 325 336 339 339 340 338 338 339 343 343 342 343 342 341 341 340 337 337 333 334 340 347 339 341 338 335 331 328
305 312 314 314 315 312 309 312 310 312 313 318 319 320 319 317 316 315 317 316 316 315 328 339 339 339 339 338 338 339 341 341 341 342 340 339 337 332 332 333 332 334 335 333 331 330 331 329 328
305 308 311 313 313 313 313 310 310 311 317 319 318 318 317 316 316 317 317 317 316 315 314 333 339 339 339 337 337 338 339 339 339 340 339 338 334 333 332 330 329 330 329 330 328 328 330 330 327
302 306 307 308 308 310 310 311 312 314 317 316 317 314 314 315 315 315 316 316 316 315 315 318 336 339 339 338 336 338 339 338 337 337 338 337 335 333 330 330 329 328 328 329 328 327 327 326 327
301 297 301 303 304 304 308 304 306 313 315 313 314 314 314 314 315 315 317 316 316 317 319 316 325 335 338 338 335 339 339 338 336 336 337 337 335 332 331 329 329 328 329 330 328 326 327 325 326
297 297 294 301 304 305 305 298 308 312 311 311 312 313 315 316 316 317 317 315 315 317 317 318 329 332 333 335 336 338 338 338 336 335 337 337 335 332 330 328 327 328 328 327 326 325 323 323 324
293 292 294 298 305 304 303 300 307 312 310 308 310 312 314 315 315 314 316 316 316 316 317 319 332 333 332 334 337 335 332 332 330 331 334 335 334 333 330 329 328 328 327 326 324 324 323 321 322
289 291 294 295 300 303 301 301 305 308 309 309 310 311 312 313 314 316 315 317 316 316 319 326 334 334 334 335 333 331 328 328 329 330 331 334 332 333 330 328 327 328 326 323 324 323 322 321 321
295 294 293 297 302 300 299 300 304 306 305 306 308 308 309 311 313 315 316 316 324 325 323 330 334 334 338 336 330 328 326 325 326 328 331 332 332 333 330 328 327 327 326 325 323 322 321 319 320
292 291 291 295 299 299 299 298 303 305 306 306 307 307 307 308 311 313 313 320 325 328 329 332 334 335 335 333 329 328 327 326 326 327 328 332 332 332 329 327 327 326 325 323 323 322 318 319 320
291 290 291 291 296 297 295 293 296 301 303 305 306 309 309 309 310 311 314 321 326 328 329 333 334 334 334 332 330 328 327 326 325 326 326 328 330 330 329 328 327 326 324 322 322 322 322 318 319
287 295 294 293 292 286 295 285 294 298 300 302 304 305 307 310 311 311 315 321 325 326 329 333 333 334 332 330 329 326 323 321 322 324 325 326 330 330 330 329 328 325 323 322 322 324 320 317 315
290 296 294 294 291 289 291 286 292 296 297 299 302 305 308 309 309 310 316 323 326 328 331 332 331 331 329 329 327 325 321 322 323 324 324 326 327 329 330 327 325 324 323 323 322 322 320 319 316
294 293 292 292 288 283 288 287 290 293 296 298 302 305 307 308 308 311 322 326 326 329 331 331 329 328 328 328 327 324 323 323 323 322 323 323 324 325 327 328 325 324 323 322 322 321 321 320 319
288 283 279 278 280 281 290 287 291 295 299 300 301 303 306 307 315 321 323 325 327 328 329 328 328 326 328 327 326 325 324 324 323 322 322 322 322 323 324 325 324 324 324 323 322 322 322 321 320
285 284 280 275 277 282 290 285 290 299 303 303 304 306 307 303 318 321 324 325 327 328 328 328 328 325 327 325 324 325 324 323 323 323 323 323 323 323 325 324 324 325 325 323 323 321 321 322 322
286 282 286 282 286 281 286 290 296 300 300 302 302 303 304 309 318 321 323 325 327 328 327 328 327 326 325 325 324 324 324 323 323 324 325 325 324 326 325 325 324 325 324 324 321 321 322 322 321
290 292 281 281 277 277 283 287 289 294 296 299 300 301 310 317 319 321 323 326 327 327 328 328 327 326 325 324 324 324 324 325 324 324 323 325 325 327 327 325 325 324 323 323 322 321 324 321 323
288 285 285 284 283 281 279 284 294 295 297 299 303 304 316 318 320 321 324 326 326 326 328 327 326 325 324 323 322 323 324 325 324 324 325 325 325 326 326 326 324 323 323 323 322 320 324 324 323
291 288 287 280 280 284 285 286 299 297 298 301 303 315 317 320 320 322 324 325 325 326 327 326 325 324 322 323 324 324 324 324 322 324 325 326 325 325 326 326 325 326 327 323 321 323 326 323 321

GFSSGP_sfc_thetae_051.txt.gz
Theta_e
335 330 319 318 302 300 295 299 307 307 309 316 316 310 308 311 312 303 320 333 334 335 344 349 353 352 351 350 348 347 346 345 344 341 338 337 336 336 335 335 335 334 334 334 334 334 334 333 333
319 320 318 311 300 295 294 303 303 308 312 317 314 312 313 313 320 322 324 335 334 336 343 344 353 352 352 350 350 348 346 345 344 342 339 338 337 336 336 335 335 334 335 335 335 334 334 335 335
319 316 309 306 299 295 295 303 307 312 318 316 313 315 316 318 327 325 328 336 332 335 340 342 353 352 352 351 350 349 348 346 345 342 341 339 339 338 337 336 336 336 337 338 338 337 338 338 338
317 312 308 301 300 302 302 306 311 312 317 317 317 313 316 326 328 326 336 334 331 334 337 343 353 353 352 352 351 350 348 348 346 344 343 340 339 340 340 338 338 338 339 339 340 340 341 342 341
313 307 298 297 300 306 309 311 309 309 313 316 315 312 314 323 333 337 335 334 328 332 334 340 352 353 353 353 352 350 349 348 348 347 345 343 342 342 341 341 341 341 342 343 343 344 344 344 344
306 304 295 294 298 305 307 310 310 310 314 317 312 312 315 324 334 336 336 333 330 330 332 335 351 352 353 353 352 351 349 349 348 348 347 347 346 344 343 343 343 343 343 343 345 345 345 346 344
304 299 295 298 300 303 306 310 308 309 310 312 315 310 312 320 328 337 336 333 331 329 330 332 342 348 353 352 351 351 349 349 349 348 348 348 348 347 344 344 344 344 345 345 346 346 345 345 343
308 303 296 298 299 300 307 308 309 310 310 317 319 310 308 317 322 336 334 333 332 331 328 329 337 341 343 345 352 351 350 349 349 349 349 349 349 348 347 346 347 345 346 346 345 345 345 345 344
311 298 295 298 300 302 306 304 311 315 313 314 315 315 317 320 321 323 320 321 327 334 330 329 334 336 340 341 345 351 351 350 350 349 349 347 343 342 342 345 346 345 345 346 346 346 346 344 342
306 298 299 305 307 304 307 307 309 310 310 311 314 318 319 320 317 318 317 321 321 330 333 333 334 333 336 339 339 344 343 343 344 342 342 342 339 338 342 343 346 345 345 348 347 347 345 341 331
307 302 307 307 310 311 310 310 312 308 306 310 312 315 317 317 317 316 318 317 321 326 331 336 335 335 333 335 336 339 342 340 341 340 338 340 339 338 339 335 336 336 345 340 343 340 337 332 330
304 310 310 311 313 314 311 311 308 310 309 314 316 318 317 316 315 316 316 316 313 314 325 334 337 336 334 333 335 335 338 337 338 339 338 339 335 333 333 331 330 330 335 337 334 332 332 330 329
305 308 311 314 315 314 313 310 309 310 314 317 318 317 316 315 315 314 316 316 315 312 315 327 336 336 336 334 333 334 337 337 337 338 339 338 335 332 330 329 329 329 331 333 330 329 329 328 329
299 304 307 308 307 308 307 308 310 312 316 315 316 314 314 314 314 313 313 313 314 315 314 319 335 337 336 336 334 334 336 337 336 338 339 337 334 331 330 328 328 327 328 328 329 329 326 326 326
299 295 298 299 301 301 306 302 303 311 314 313 314 313 312 313 314 313 314 314 315 316 315 314 331 335 335 335 334 334 335 336 335 336 337 336 334 331 330 328 328 327 327 327 327 329 327 323 325
296 294 291 300 301 302 303 296 305 310 310 310 311 311 312 312 312 313 314 313 314 313 314 315 324 332 334 335 334 334 336 335 335 334 335 336 334 332 329 328 327 327 327 326 324 326 325 322 322
291 290 292 296 303 303 302 298 306 310 309 307 308 310 311 311 312 313 315 315 315 314 315 315 316 325 333 333 331 333 334 335 334 333 334 335 335 333 330 328 327 327 326 324 323 322 322 319 319
287 288 293 294 299 302 300 299 304 306 307 305 306 308 309 310 312 313 314 315 313 314 314 315 318 326 328 329 329 328 330 329 331 332 334 335 334 332 330 327 326 326 324 323 322 322 321 321 319
293 293 291 295 299 299 298 298 301 304 304 305 306 308 309 308 310 312 313 314 313 313 313 316 327 328 332 331 327 325 327 324 325 329 333 332 332 331 328 327 325 325 324 324 324 322 320 318 318
291 288 288 293 297 295 295 296 298 302 303 304 305 306 306 306 307 310 311 311 315 317 319 321 329 331 331 329 325 325 324 323 325 326 328 331 332 332 328 326 325 325 325 323 321 320 319 318 318
289 288 289 289 294 295 293 291 294 297 300 303 305 305 306 305 306 308 309 312 316 321 324 326 330 331 331 328 328 325 324 324 323 323 324 327 330 330 329 327 326 324 323 321 320 320 318 316 317
284 292 292 291 289 284 292 283 291 295 296 299 301 302 301 304 307 308 309 311 319 322 327 329 331 331 331 329 327 326 322 320 321 323 323 325 328 328 328 328 326 324 322 321 320 321 319 317 314
286 292 291 291 288 285 287 283 289 294 294 297 299 301 302 305 305 307 308 312 320 325 328 330 331 329 328 329 328 325 320 320 321 322 323 323 325 327 329 327 325 323 322 321 321 320 318 317 315
292 289 289 288 286 281 286 285 287 291 294 297 300 300 303 304 305 305 308 318 323 326 328 328 330 326 327 327 325 323 322 320 321 320 321 322 322 324 326 326 323 323 322 321 320 320 319 318 317
286 281 277 276 277 279 288 285 289 293 296 297 297 299 302 303 302 312 317 320 323 326 327 327 328 325 325 324 323 323 322 321 321 321 321 320 320 320 323 324 322 321 321 322 320 319 319 319 318
283 282 277 275 276 280 288 283 288 297 300 301 301 300 301 301 301 313 318 321 325 326 326 326 326 324 324 323 322 322 322 322 321 321 321 321 321 321 322 323 323 323 323 322 321 319 319 320 321
285 280 285 279 281 279 283 289 294 297 297 298 299 298 298 300 306 315 319 322 325 325 324 325 325 324 323 323 323 322 322 322 321 322 322 322 321 323 324 323 322 322 323 322 320 318 319 321 321
287 289 279 278 275 275 281 283 286 291 294 297 297 298 299 301 312 318 322 324 325 325 325 324 325 324 322 322 323 323 322 322 322 322 322 323 323 325 323 323 323 322 322 322 319 318 321 322 322
285 284 285 282 280 276 277 281 291 293 296 295 296 299 302 307 316 320 323 325 325 325 325 325 324 323 321 322 321 321 322 322 322 322 323 323 323 324 324 324 323 322 321 320 319 319 322 322 322
287 286 285 280 278 282 280 283 295 294 294 296 297 301 311 313 317 321 324 324 324 325 324 324 324 323 321 321 321 321 322 321 321 322 323 324 323 324 324 325 323 323 323 321 320 320 324 323 322

GFSSGP_sfc_thetae_054.txt.gz
Theta_e
336 329 318 317 300 299 294 297 304 305 307 313 311 311 313 313 311 304 320 331 330 332 344 350 353 353 352 352 350 348 347 347 346 345 343 340 339 338 337 336 336 336 335 335 335 335 334 333 333
321 320 318 310 296 291 291 300 302 306 310 313 312 310 311 311 317 319 320 332 330 335 343 345 353 353 353 352 351 349 347 347 346 345 342 342 340 338 337 337 337 337 337 336 336 336 335 335 334
316 316 310 305 297 291 292 301 304 310 313 315 311 314 315 315 323 322 326 334 333 336 342 343 354 352 353 352 351 349 348 347 346 343 343 341 341 340 339 337 337 337 337 338 338 337 337 337 337
316 311 307 300 298 300 299 303 307 309 311 315 315 312 315 323 324 325 334 333 332 335 340 345 353 352 353 352 351 350 349 348 347 345 344 342 341 342 341 338 338 338 338 339 339 339 339 340 340
312 306 298 297 299 302 306 308 308 307 309 312 313 311 312 323 330 333 333 332 331 332 336 341 353 353 353 353 352 351 349 348 347 347 345 343 343 342 340 339 338 339 339 340 341 342 342 343 343
305 304 294 292 297 302 305 308 307 307 310 312 312 310 312 324 330 332 333 330 330 331 333 336 352 352 353 353 352 351 349 348 348 347 346 345 345 343 341 341 341 341 342 343 344 344 345 346 344
301 298 295 295 298 300 304 308 306 307 308 310 314 309 312 318 328 334 332 330 327 328 330 332 344 349 354 352 352 351 349 349 348 348 347 347 347 346 345 343 343 344 344 344 344 345 346 346 344
306 302 295 297 298 299 306 306 306 307 309 316 317 309 308 318 328 334 332 330 328 326 328 327 336 342 344 347 353 352 350 349 348 348 348 347 348 347 345 345 346 344 345 346 345 345 347 346 345
310 296 293 297 299 300 304 304 309 311 310 312 315 315 316 319 329 328 326 326 330 332 325 325 329 336 340 342 346 352 351 350 350 349 349 346 342 342 342 345 345 345 345 346 347 346 347 345 344
305 296 297 303 305 302 307 304 307 308 308 309 313 317 318 318 319 324 323 325 323 329 331 325 326 332 334 339 339 344 344 343 344 343 343 342 340 339 342 343 345 345 346 347 348 347 346 343 337
306 300 304 305 307 308 308 309 311 307 304 308 309 311 314 317 317 317 322 323 324 327 330 331 328 329 332 335 336 338 342 341 341 340 339 341 340 340 341 338 340 340 345 341 345 344 342 338 335
303 308 308 307 309 310 309 311 308 308 309 312 313 314 315 314 314 315 316 317 316 318 325 330 333 331 331 332 334 335 338 338 338 339 338 339 338 335 336 336 335 334 336 339 339 338 338 336 334
305 307 310 313 313 313 313 311 310 310 314 315 315 315 314 314 314 314 316 316 315 314 316 318 332 333 333 330 331 333 334 337 337 338 338 338 336 335 333 333 331 331 332 335 336 335 335 333 332
299 307 309 310 308 307 305 306 307 309 314 312 313 313 313 312 313 313 312 313 312 314 314 314 327 334 334 332 331 331 333 335 335 337 338 337 336 333 331 330 329 330 331 332 334 334 332 332 330
299 294 297 298 300 302 307 302 304 309 311 309 311 312 312 311 312 312 313 313 314 315 315 315 316 331 333 334 333 332 332 335 335 336 337 337 334 332 330 328 329 330 331 331 331 331 331 330 328
294 294 291 300 299 301 304 296 306 309 308 308 309 310 310 310 311 312 313 313 314 314 314 315 317 330 333 333 334 333 333 335 335 336 337 337 335 333 329 329 329 331 330 330 329 329 329 328 327
289 289 289 294 301 301 301 297 304 308 307 306 307 307 308 309 310 311 312 312 313 313 313 313 314 325 331 331 331 331 332 334 334 333 335 336 335 333 330 330 330 331 329 328 328 326 327 325 325
285 287 292 291 297 300 298 298 302 306 306 306 304 305 306 307 309 311 312 314 313 313 313 313 313 320 328 328 328 329 332 331 332 333 333 335 335 333 331 330 329 329 328 327 326 326 325 326 324
291 290 289 292 297 298 297 298 300 302 302 303 304 306 307 308 312 310 311 312 312 312 312 312 315 321 328 327 326 326 328 328 328 332 334 334 334 333 331 329 328 328 327 327 326 325 324 323 324
289 287 286 291 295 294 293 292 294 297 299 301 303 304 305 306 306 308 309 309 310 311 313 314 317 324 327 328 325 327 325 325 327 329 333 334 334 333 332 330 328 328 326 326 325 324 323 322 322
287 287 287 288 293 294 291 290 293 296 297 299 301 303 305 304 304 307 307 307 308 312 316 319 322 327 328 327 325 323 324 324 324 325 327 331 333 333 331 329 327 327 327 325 324 323 322 320 321
282 290 291 290 288 284 290 282 291 294 295 296 297 299 300 302 305 306 306 307 308 313 323 325 328 329 327 327 325 326 323 322 322 324 325 328 331 331 330 329 329 327 326 325 324 324 323 321 319
285 291 289 289 286 284 285 282 286 291 291 294 297 299 300 300 303 303 305 307 308 317 324 327 328 328 327 326 327 324 322 321 322 324 324 326 328 329 330 331 329 327 326 325 324 324 322 322 320
291 287 286 286 284 277 284 284 285 289 292 295 297 299 300 299 300 302 304 305 312 323 326 327 327 326 327 327 325 324 323 322 322 322 322 323 325 326 329 328 328 327 325 325 324 324 323 321 321
285 280 275 275 275 277 286 283 287 292 294 296 296 297 298 299 300 301 304 312 317 323 325 327 327 324 326 326 325 324 323 323 323 322 322 322 323 324 326 327 325 325 325 325 324 323 323 322 320
281 280 276 274 275 277 286 281 286 294 298 299 299 298 298 298 298 300 304 312 320 323 325 327 326 323 324 324 323 323 323 322 322 323 323 323 324 325 326 326 326 325 325 326 324 323 322 323 323
283 279 283 278 279 276 281 285 291 295 296 297 297 297 297 297 299 300 306 317 322 324 323 326 325 323 323 322 322 322 323 323 322 323 324 324 324 325 326 326 325 325 326 325 324 323 323 324 324
286 287 279 276 274 274 278 281 284 290 292 295 296 296 297 299 301 300 315 321 324 324 324 325 325 323 323 323 323 323 323 323 323 324 324 324 325 327 325 324 324 325 325 324 323 322 323 324 324
284 281 282 280 278 276 275 279 289 291 293 293 294 295 298 309 311 313 321 323 324 324 324 323 323 322 322 323 323 322 322 323 323 323 324 325 326 327 325 325 325 325 324 324 322 323 324 324 324
286 283 283 278 278 280 277 279 292 292 292 293 294 298 303 314 314 320 321 323 323 323 323 323 322 322 322 323 322 322 322 322 322 323 325 325 325 326 326 326 325 325 324 323 323 323 325 324 323

GFSSGP_sfc_thetae_057.txt.gz
Theta_e
334 334 325 323 307 308 300 301 308 309 312 319 319 321 320 321 316 313 333 337 339 340 348 352 355 354 354 353 352 350 349 348 348 347 346 345 343 340 338 339 336 336 336 336 336 335 335 335 336
332 323 325 319 302 296 298 305 305 311 313 317 318 316 317 319 324 325 327 338 339 343 349 347 355 354 354 353 351 350 349 348 348 347 346 345 344 342 339 339 338 337 336 336 336 336 336 336 335
322 320 317 311 302 296 298 305 307 310 316 317 318 319 319 320 327 328 333 339 339 344 347 349 355 354 354 353 352 350 349 348 348 347 346 346 345 344 343 342 339 339 338 338 337 337 337 338 338
319 319 316 305 300 303 303 309 312 313 315 318 320 317 321 328 330 333 338 339 338 341 345 349 354 354 354 354 352 350 349 349 349 347 347 346 345 344 343 343 341 339 340 340 340 339 339 339 340
320 315 302 301 301 306 310 310 312 309 312 315 318 317 318 327 334 337 339 339 337 340 343 344 354 354 354 354 353 351 349 349 348 348 347 346 346 345 344 343 340 340 341 341 341 341 341 342 343
310 312 300 295 299 305 309 312 312 311 314 315 317 318 320 328 334 337 339 340 339 339 344 343 353 353 353 354 353 351 350 349 348 348 347 347 346 345 344 343 341 341 341 342 343 344 344 345 345
305 306 299 300 300 302 305 311 309 310 311 315 318 317 321 324 336 339 339 341 340 340 342 343 347 352 353 353 352 351 350 349 348 348 347 347 346 345 345 344 343 342 343 344 344 345 346 346 345
310 308 299 300 298 300 309 311 313 312 313 319 320 315 316 324 337 340 338 337 336 337 337 338 344 346 347 348 353 352 351 349 349 348 348 347 347 347 345 345 345 344 344 345 345 346 348 348 346
314 302 298 299 300 302 310 310 315 316 313 315 318 318 320 328 338 337 337 336 335 333 335 335 335 344 347 346 348 353 352 350 350 349 349 346 343 344 344 345 345 345 345 345 347 348 348 347 345
310 303 302 305 305 305 309 311 312 312 312 313 316 321 321 324 329 333 333 333 335 337 336 334 335 340 344 343 348 349 348 347 345 344 345 345 344 345 342 345 346 346 347 347 348 349 347 345 341
310 304 308 307 308 309 308 309 313 310 309 313 313 317 320 321 323 325 329 333 335 337 339 339 337 338 340 340 343 344 346 347 348 348 349 348 345 344 343 341 343 345 346 342 345 345 345 343 342
305 310 310 309 310 310 308 312 311 312 312 316 318 320 320 320 322 323 325 327 332 333 337 342 342 339 340 340 339 342 343 346 345 345 348 348 343 342 342 339 340 344 342 343 345 344 346 346 344
305 307 310 312 312 311 313 312 312 314 318 321 321 321 320 321 322 325 326 328 330 330 334 336 342 345 344 342 341 341 342 342 344 344 346 346 341 342 341 340 338 339 340 340 342 344 345 345 343
306 307 307 310 313 313 311 312 314 315 319 318 318 318 319 319 321 324 326 326 329 332 333 336 334 346 345 343 343 342 343 343 343 342 344 346 343 344 339 339 337 338 339 339 339 342 347 347 345
303 301 303 306 309 309 312 305 308 314 316 315 316 317 318 319 321 322 325 327 330 331 334 336 338 337 345 346 344 343 341 341 341 342 345 345 345 343 343 338 337 339 341 341 341 344 344 343 344
298 299 294 302 303 304 305 300 310 314 313 313 315 316 316 318 320 322 324 327 331 332 334 337 329 329 342 346 344 342 341 341 342 342 343 345 345 344 342 338 337 339 340 338 341 340 339 341 340
296 292 295 298 304 303 302 301 308 312 311 312 314 315 315 317 319 324 323 325 329 332 334 332 333 330 336 343 343 343 344 341 342 343 343 344 344 344 342 339 339 342 338 337 340 342 341 339 338
290 291 294 296 301 301 300 301 306 309 309 310 312 313 314 315 317 321 322 324 328 333 334 332 330 332 335 340 342 342 341 342 343 343 343 345 343 343 342 340 341 339 335 339 340 341 339 338 337
295 294 293 297 301 300 299 302 304 308 308 308 310 312 314 315 318 319 321 325 327 334 335 333 330 333 335 337 337 339 338 338 340 342 344 344 343 343 342 340 339 339 338 341 340 339 338 333 331
293 292 292 296 299 298 299 300 304 305 306 308 309 310 312 313 315 318 321 324 328 331 332 333 333 333 336 338 340 341 340 339 341 343 344 344 344 343 342 341 339 340 339 339 339 338 331 330 329
291 290 292 292 296 298 296 295 299 303 305 306 307 309 310 311 312 316 318 322 326 327 331 331 335 335 337 340 339 339 339 338 338 340 341 343 343 343 343 342 340 341 340 339 339 336 333 327 326
288 294 293 292 291 289 296 288 297 301 302 304 305 306 308 309 311 314 317 320 324 325 327 331 336 338 339 340 339 340 338 336 339 339 341 342 343 343 343 342 342 342 339 339 338 336 335 333 325
289 294 293 293 292 291 292 288 293 299 298 301 304 306 307 309 312 311 313 317 319 323 323 333 339 340 340 340 341 340 340 338 339 339 342 343 343 343 341 342 341 339 337 336 338 336 335 332 329
295 292 292 292 290 284 290 289 291 295 298 300 303 305 307 308 310 311 313 315 317 319 328 336 339 340 340 340 340 341 339 337 336 337 336 336 338 338 340 340 340 336 338 338 336 337 336 333 331
291 289 282 280 281 281 291 288 291 299 300 301 302 304 307 309 310 311 312 314 317 325 333 337 338 338 339 338 339 339 339 339 338 337 335 336 336 337 340 341 340 338 339 337 336 335 335 333 331
288 288 283 277 279 282 289 285 291 300 302 303 304 305 308 309 312 314 314 314 317 325 333 337 338 338 338 338 338 339 340 337 337 338 337 337 337 338 341 339 339 338 337 336 336 334 333 333 332
288 284 291 284 286 284 287 290 296 299 300 302 302 305 306 310 314 319 321 316 322 330 335 338 338 338 338 337 337 337 337 338 336 338 339 337 339 337 338 338 337 337 336 336 336 332 333 333 333
291 293 284 285 278 278 284 287 289 295 297 300 301 303 306 313 319 323 322 320 329 334 338 339 339 337 336 336 336 335 337 338 338 338 337 337 338 337 337 336 337 336 336 335 335 333 334 333 332
289 287 288 288 286 281 281 286 297 297 299 299 301 303 305 310 319 324 324 326 330 335 337 337 336 334 334 335 335 336 335 336 337 337 337 338 338 337 336 335 335 335 334 334 333 334 332 330 331
291 288 287 284 283 286 285 285 298 300 300 301 302 304 306 310 318 324 323 323 329 333 335 335 335 333 334 334 334 335 335 335 336 335 336 337 337 337 334 334 334 333 332 333 333 331 331 330 330

GFSSGP_sfc_thetae_060.txt.gz
Theta_e
330 330 324 322 310 308 304 305 312 312 316 322 323 324 324 324 320 318 337 341 341 344 352 353 356 356 356 355 353 352 352 351 351 351 351 351 350 347 345 345 341 338 337 336 336 336 335 334 334
331 321 326 319 305 302 304 310 308 313 317 321 322 323 323 323 329 328 331 342 343 346 353 346 356 355 355 355 353 351 351 350 350 350 349 348 347 345 342 342 340 338 338 338 338 337 337 335 335
324 323 316 310 306 302 304 309 311 313 317 319 319 323 324 322 331 329 337 342 344 348 352 348 356 355 355 355 353 352 351 350 350 349 348 347 347 345 344 343 342 339 338 339 339 338 338 339 338
319 318 316 307 304 307 308 311 313 313 319 321 322 320 324 331 332 334 340 341 343 345 348 351 355 355 355 355 353 352 351 350 350 349 348 348 347 346 345 345 344 341 340 340 340 339 339 340 340
321 317 305 303 304 308 312 312 315 314 316 318 321 320 324 331 337 338 340 339 340 342 345 348 355 355 355 355 354 352 350 350 350 350 349 347 347 347 346 344 342 341 342 342 342 341 341 341 342
312 313 302 300 304 308 311 314 314 314 316 318 319 321 325 334 337 338 339 340 339 342 346 345 355 355 355 355 354 352 350 349 349 349 348 348 347 347 345 344 343 342 343 343 343 343 343 344 344
309 307 302 303 303 304 308 314 311 313 314 317 322 320 327 329 337 339 340 342 343 343 346 346 351 353 355 355 354 352 351 350 349 349 348 348 348 347 346 345 345 345 345 344 344 345 346 345 345
314 309 302 303 301 303 311 313 315 313 313 322 323 320 323 327 337 340 340 341 343 344 343 347 349 348 347 348 355 353 352 350 350 349 349 348 348 347 346 346 346 346 345 344 346 346 346 347 347
319 307 303 303 302 303 309 310 314 320 317 320 321 322 324 334 339 337 336 336 338 339 343 345 344 347 347 344 346 354 352 351 351 350 349 347 341 342 342 343 347 347 347 347 347 347 347 346 346
312 307 306 310 308 306 309 310 313 315 316 319 320 324 325 328 332 334 335 335 335 337 340 343 345 344 347 343 346 352 348 348 347 344 345 344 340 342 341 344 348 348 348 348 349 348 347 345 342
313 308 310 311 311 310 309 310 314 313 313 319 319 321 324 324 326 327 329 335 334 338 341 343 347 346 345 344 344 346 348 347 348 347 349 349 341 342 342 341 344 345 347 344 345 346 346 344 343
308 313 313 313 313 311 309 312 311 312 313 319 320 323 323 324 326 326 328 330 333 337 342 345 349 349 348 343 343 344 344 346 347 347 352 350 345 345 343 339 339 342 342 342 343 343 346 346 345
309 310 313 313 313 312 313 311 313 314 317 319 320 322 323 325 326 328 329 331 332 333 337 343 349 354 351 350 345 347 348 345 348 348 349 348 345 346 343 341 338 339 341 341 342 343 345 345 345
310 310 311 313 312 313 310 311 314 317 321 321 322 323 324 324 325 327 328 330 333 335 337 340 344 351 355 354 354 351 349 348 347 347 347 351 347 349 342 341 339 337 339 340 341 341 343 344 344
307 304 307 310 311 309 313 308 311 317 320 320 320 322 323 324 325 325 328 331 334 334 337 340 343 346 351 352 352 352 348 348 345 346 351 350 351 351 348 341 339 337 341 342 341 341 344 345 347
301 302 298 306 309 311 309 303 312 317 317 317 319 321 321 323 325 326 328 331 335 335 336 339 336 337 345 350 348 347 347 346 347 347 349 351 351 350 348 343 340 339 340 340 337 336 339 344 343
300 294 298 301 308 308 306 304 312 316 316 316 318 319 320 322 325 328 329 331 332 335 337 337 342 340 341 347 346 350 351 347 347 348 348 351 350 350 348 346 343 344 338 337 335 336 344 342 341
293 296 297 298 305 306 304 304 309 313 314 315 317 318 319 321 323 327 328 330 331 333 340 345 342 343 344 341 347 345 346 347 347 348 349 351 350 350 347 347 346 343 338 335 335 346 343 339 337
296 296 297 301 305 304 304 304 307 311 311 313 315 317 318 320 323 325 326 328 329 333 341 345 343 348 343 341 341 342 343 345 346 348 351 351 350 350 347 346 345 344 339 339 346 343 340 339 340
294 294 295 300 302 303 303 303 307 310 310 313 314 315 317 319 321 322 324 326 328 332 336 339 341 345 345 343 345 345 346 347 347 348 351 352 350 351 349 347 345 343 339 344 345 343 338 339 337
293 292 294 295 300 303 301 300 304 308 311 313 314 315 316 316 317 319 320 323 326 328 333 336 340 344 347 347 347 348 348 346 345 346 348 349 350 350 349 348 346 346 344 343 345 342 340 334 332
289 295 294 295 295 292 301 291 301 305 306 309 311 313 314 315 317 318 319 321 324 326 328 334 338 344 346 348 347 348 342 341 343 345 348 349 350 349 349 349 347 348 344 345 342 341 342 339 331
291 296 294 296 294 294 295 294 298 304 303 306 310 312 313 314 315 316 317 319 321 323 325 333 336 343 347 348 347 344 348 345 346 346 350 351 350 349 349 349 348 348 344 345 343 343 341 337 335
296 294 294 294 294 288 293 293 294 298 302 305 309 310 310 312 314 316 318 320 320 322 324 328 336 345 348 348 347 349 349 348 345 347 346 346 348 348 348 347 348 347 346 344 343 343 340 338 336
293 290 283 282 283 285 295 292 296 303 304 306 307 308 310 312 314 316 318 320 321 322 325 332 340 345 348 348 348 349 350 351 350 348 345 345 341 341 346 346 346 344 345 345 343 342 340 337 335
291 289 284 278 282 285 293 288 295 304 306 308 308 310 310 314 317 320 324 327 321 322 328 337 341 344 346 347 348 350 351 347 346 346 343 341 340 341 348 346 346 344 344 342 342 340 337 338 335
291 286 292 286 288 287 291 294 299 303 304 306 305 308 309 314 320 325 329 330 326 325 332 338 342 345 346 346 347 348 347 347 345 347 347 342 345 343 346 346 344 343 343 341 341 336 337 336 337
293 294 285 287 280 280 287 291 292 298 300 304 305 307 309 313 317 323 330 330 327 333 339 343 345 345 345 346 346 345 346 345 346 345 343 344 344 343 343 343 343 341 340 340 339 337 336 336 339
291 289 289 289 287 281 284 289 300 301 303 304 305 307 309 311 315 321 330 331 333 337 340 344 344 344 344 345 344 343 342 343 343 343 343 343 344 342 340 339 339 338 338 339 338 336 335 334 335
293 289 288 285 285 288 288 291 303 305 305 306 305 308 310 312 314 322 330 328 334 337 341 342 343 342 342 342 341 341 342 342 342 341 342 342 340 340 339 338 336 336 336 336 335 334 334 331 333

GFSSGP_sfc_thetae_063.txt.gz
Theta_e
334 327 327 320 310 309 306 308 314 313 314 322 324 322 322 326 322 318 339 335 337 341 357 353 358 359 358 358 356 355 355 355 357 358 358 357 355 353 351 348 346 343 340 338 335 334 333 334 334
325 324 321 317 306 304 306 312 310 314 321 325 324 323 325 323 329 332 334 337 338 344 355 348 357 357 358 357 356 355 354 353 353 354 354 353 352 350 347 345 342 339 338 337 336 336 335 335 334
335 323 315 311 308 304 307 313 313 316 320 321 321 326 326 324 332 332 338 338 341 348 351 349 357 356 357 356 355 354 353 352 352 351 351 349 349 348 346 344 342 340 339 339 339 338 337 337 338
321 318 316 308 305 310 310 314 314 315 319 324 324 321 326 333 333 336 339 338 340 345 349 354 356 356 356 356 354 353 352 352 351 350 349 347 346 347 346 344 344 342 340 340 340 339 339 340 341
320 316 306 305 306 310 314 315 315 315 318 322 323 321 324 331 336 338 338 336 339 341 347 353 355 356 356 356 355 353 352 351 351 350 349 348 348 347 346 345 343 342 342 342 342 341 341 342 342
312 312 305 303 306 310 313 316 315 315 318 321 321 322 326 336 336 337 336 336 338 340 345 355 356 356 355 355 354 353 352 351 351 351 350 349 349 348 347 346 345 345 346 345 344 344 343 344 344
312 308 302 305 306 308 311 316 313 314 316 318 324 321 327 331 337 338 336 336 337 341 343 355 356 354 356 355 353 352 351 351 350 350 349 349 349 349 347 346 346 347 347 348 348 348 346 346 346
315 312 306 306 302 304 311 313 315 314 315 323 324 319 323 333 339 337 336 336 337 340 342 345 355 350 348 348 355 354 352 351 350 350 350 349 349 349 347 346 346 347 348 348 348 348 349 349 348
320 309 305 306 305 306 311 310 315 319 317 320 323 325 328 335 337 337 334 334 336 337 341 344 346 349 347 343 348 354 353 352 351 350 350 348 341 342 341 342 345 347 348 348 348 349 349 348 348
314 309 308 311 312 310 310 311 312 314 316 318 322 326 327 333 337 333 332 331 334 335 338 342 346 348 348 342 349 351 346 348 346 343 345 343 341 341 339 341 345 348 348 349 349 349 348 347 342
314 309 314 314 314 314 311 312 314 312 313 318 319 324 327 328 330 332 332 333 333 335 337 339 356 357 351 346 344 347 349 347 348 349 351 348 340 341 340 340 342 344 347 343 346 345 345 344 342
310 314 314 315 316 315 311 313 312 313 314 320 324 327 326 325 327 329 330 332 334 335 338 342 348 355 357 348 345 347 346 350 350 349 355 348 347 346 345 341 340 348 341 343 343 342 347 345 345
309 311 314 316 316 316 316 313 314 315 318 319 319 323 324 325 327 330 331 332 334 335 338 341 349 359 361 360 348 350 351 347 349 351 355 351 346 348 345 347 342 342 341 342 342 342 346 346 344
310 311 312 314 315 315 312 313 314 316 320 319 319 319 322 324 327 329 331 331 333 336 337 340 344 365 360 359 362 358 359 349 349 348 352 357 351 353 345 347 343 341 339 340 341 344 344 344 344
307 304 307 310 313 312 314 308 310 317 319 319 320 321 323 325 328 327 330 332 333 335 339 341 345 355 365 365 360 360 351 351 347 348 360 359 357 356 354 346 344 342 343 350 345 345 344 341 342
301 304 299 306 309 311 310 303 311 316 318 318 320 321 322 325 326 328 330 332 335 336 340 341 336 338 355 358 354 352 348 349 348 348 351 358 360 358 356 346 344 345 343 339 339 339 337 336 342
297 294 299 301 308 308 308 305 312 315 315 315 318 320 321 322 326 330 330 331 334 338 341 340 345 339 349 357 350 352 358 350 348 349 348 357 353 354 353 347 347 354 341 339 339 338 338 338 342
293 294 297 298 304 306 305 306 310 313 314 314 317 319 321 321 323 327 330 332 334 337 347 350 346 355 355 349 354 344 345 349 349 348 349 356 353 352 353 349 353 350 342 339 338 343 338 341 341
297 295 294 299 304 304 303 305 307 312 311 313 316 318 319 321 324 327 329 332 333 340 346 348 347 356 351 343 340 341 342 347 347 348 354 353 353 352 355 349 351 350 346 346 348 340 343 339 341
296 294 294 298 301 302 303 303 307 311 311 312 314 316 318 321 323 325 329 334 335 339 343 346 350 353 356 345 348 346 348 346 348 349 354 354 353 352 351 353 351 350 343 345 347 347 340 338 340
294 293 293 294 298 301 301 299 303 308 311 313 314 316 318 319 320 323 325 330 332 334 340 342 349 353 355 355 351 352 352 352 347 349 350 352 352 352 352 352 350 349 348 341 348 345 342 332 340
291 296 295 294 293 290 300 291 301 305 307 310 312 314 316 319 320 322 323 327 331 330 334 341 346 350 353 359 349 359 347 344 345 348 350 351 352 351 351 350 350 351 345 351 346 343 342 342 334
293 296 295 294 292 293 294 292 298 305 303 307 311 313 316 318 319 320 321 323 325 329 332 338 343 348 353 357 354 350 352 346 346 347 355 357 353 352 349 351 350 350 346 352 347 343 345 342 341
298 294 294 294 292 286 292 292 294 299 304 307 311 313 315 316 318 319 321 323 324 324 326 334 341 346 351 353 351 358 356 356 346 350 348 347 348 349 350 350 351 352 349 347 344 346 344 344 340
295 292 284 282 283 283 293 292 295 303 306 308 308 311 314 315 315 317 318 319 322 323 326 328 335 340 349 349 349 350 357 360 360 353 348 349 346 347 350 352 351 346 347 345 346 345 343 341 338
293 291 284 278 280 284 293 287 295 304 307 309 310 312 314 313 316 318 320 322 325 326 326 326 330 339 347 348 349 351 355 350 351 355 349 346 345 346 354 348 347 346 345 344 345 343 343 343 337
293 289 294 287 287 283 287 294 301 305 305 307 309 310 311 313 318 321 325 328 330 327 327 332 338 342 347 349 350 352 354 357 352 357 357 346 352 345 347 345 345 345 344 343 344 341 340 339 337
295 297 286 289 280 278 286 289 292 299 302 306 308 309 311 314 316 319 326 332 333 329 330 336 340 344 347 349 350 350 351 350 350 350 351 349 348 344 343 344 344 343 342 341 342 342 339 337 337
292 291 292 291 288 282 280 287 300 302 303 306 309 310 311 312 315 320 330 332 334 333 335 339 343 345 346 347 348 348 347 348 348 345 345 344 345 343 341 340 340 340 340 340 340 339 336 334 336
295 293 292 285 284 289 287 287 300 305 307 307 309 309 311 313 315 318 331 331 334 336 340 342 344 344 346 347 346 345 345 344 344 343 343 343 342 341 338 338 336 335 337 338 337 334 334 332 333

GFSSGP_sfc_thetae_066.txt.gz
Theta_e
329 324 325 320 306 307 302 305 312 311 313 319 323 321 320 322 320 317 334 336 351 347 350 355 360 360 359 358 357 356 358 359 361 361 360 359 358 356 355 352 349 345 343 340 338 335 334 335 335
323 320 320 314 303 300 303 310 309 312 317 320 323 323 322 322 330 330 329 336 354 351 350 351 359 359 359 358 357 356 356 356 358 358 358 358 356 354 351 350 346 343 340 337 336 335 336 336 336
329 329 313 308 304 301 303 312 312 315 317 322 320 325 323 325 332 332 336 338 354 352 348 352 358 358 359 358 357 355 355 355 355 356 356 355 354 353 351 348 346 341 339 339 338 337 337 336 337
324 319 312 304 303 307 309 312 315 314 316 321 321 319 326 334 332 335 338 339 347 348 346 356 357 357 358 357 356 355 354 353 353 353 353 353 352 351 348 347 346 344 342 341 340 341 340 339 340
320 313 304 302 304 309 313 315 315 313 314 317 320 319 323 331 337 336 336 337 340 344 346 354 356 357 358 357 356 355 353 352 351 352 351 350 350 349 347 347 346 345 346 343 343 344 344 343 343
310 309 300 300 303 308 312 314 314 313 315 317 320 320 323 333 334 335 334 337 338 343 350 354 356 356 356 356 354 353 352 352 351 351 351 349 349 349 348 347 347 346 347 347 347 346 346 346 346
311 307 300 301 302 305 310 316 313 313 313 314 320 317 325 331 335 337 334 337 338 344 354 355 353 355 356 355 354 353 352 351 351 350 350 349 349 348 348 347 347 347 347 348 348 348 347 347 347
315 310 305 304 302 303 310 312 314 313 312 319 321 316 321 334 338 336 333 333 336 340 354 355 354 349 351 352 355 354 352 352 351 350 350 349 349 349 349 346 347 348 348 348 348 348 348 348 348
318 307 303 304 305 306 312 310 313 315 313 315 319 321 328 334 336 334 331 331 333 337 346 353 352 349 345 345 350 354 353 352 352 351 351 348 344 343 343 345 344 348 348 348 348 348 348 349 349
310 307 307 311 311 310 312 312 311 311 312 314 317 323 328 330 333 332 329 328 331 334 338 343 350 348 344 341 346 349 348 349 348 345 345 345 341 340 339 342 345 348 348 349 348 349 349 347 343
311 306 311 312 314 315 313 312 314 311 309 313 315 320 326 327 333 333 331 329 331 335 337 342 355 350 345 342 348 348 346 346 345 345 343 344 340 339 339 337 340 341 346 341 345 344 345 342 341
306 311 313 313 315 314 313 316 312 313 313 317 317 323 326 326 328 330 331 331 334 335 337 348 351 354 354 349 347 350 349 347 345 345 345 343 342 339 337 337 339 337 339 341 340 339 340 340 342
303 307 311 314 315 314 315 313 314 313 317 319 318 319 324 327 328 331 332 335 335 334 338 344 350 353 356 358 354 349 348 350 349 348 347 344 343 340 341 340 337 341 340 341 338 339 340 341 342
307 306 307 310 311 313 312 312 314 316 319 318 319 319 319 324 326 329 332 335 340 344 358 348 353 356 357 354 356 361 362 355 355 352 351 348 344 346 342 341 343 340 343 341 340 340 339 343 344
305 302 304 306 308 309 312 308 309 316 318 317 318 319 321 321 323 325 331 338 341 341 351 351 354 362 360 359 360 358 356 355 351 354 359 351 349 346 347 344 341 344 344 346 345 343 342 345 345
298 300 296 304 305 307 308 302 312 316 315 315 317 319 320 323 323 326 331 340 343 343 347 351 341 362 364 362 361 358 356 354 353 352 356 357 351 352 351 346 346 345 347 342 342 340 340 340 338
296 290 293 297 305 305 305 302 310 315 315 314 315 318 320 321 325 329 331 334 340 347 348 349 348 350 359 360 356 356 354 355 355 355 352 355 356 351 353 349 348 353 345 343 342 339 341 336 337
291 293 294 294 299 301 301 303 308 312 312 313 316 316 317 321 323 327 332 333 341 347 351 351 353 354 359 355 360 353 352 350 353 353 352 356 353 353 351 351 348 352 346 343 341 341 340 337 341
297 295 294 297 300 299 298 301 305 310 311 311 314 317 315 317 324 327 328 333 337 346 350 351 352 354 354 354 347 345 342 346 350 352 356 357 354 352 353 349 351 350 345 344 345 343 338 339 341
296 293 293 296 299 298 298 297 302 308 309 312 313 314 316 320 319 325 330 341 342 346 347 349 349 349 352 353 350 351 351 348 349 353 355 357 354 353 352 349 349 349 346 346 345 339 337 339 340
294 293 293 293 296 298 296 294 299 304 308 311 313 316 317 317 320 324 326 336 340 339 340 340 344 348 350 350 353 351 355 357 353 352 354 355 354 353 352 350 351 348 347 342 342 343 341 335 337
290 296 295 294 292 287 296 287 297 301 303 307 310 313 316 317 319 322 326 328 335 338 340 342 345 345 349 353 346 346 344 343 350 352 352 352 354 351 351 349 349 347 345 341 341 345 342 338 332
293 298 295 294 291 290 291 288 292 299 300 305 309 311 315 318 318 319 322 325 330 333 335 339 345 345 345 348 347 344 348 348 355 353 353 351 352 351 348 349 351 347 346 347 345 343 341 340 334
299 295 294 293 291 284 288 288 289 294 299 304 309 311 314 316 318 320 323 327 325 327 329 333 334 341 345 349 349 352 348 349 347 349 348 349 348 346 347 347 349 349 349 346 345 343 342 338 335
296 291 284 282 282 282 291 288 291 298 301 303 307 311 313 316 316 318 319 321 325 326 326 327 339 339 345 347 351 348 354 350 356 351 347 347 344 344 346 346 348 349 349 346 344 344 340 338 335
293 291 284 277 279 282 290 284 290 301 303 305 309 311 313 314 317 318 320 321 320 323 327 328 334 338 343 346 349 350 354 351 355 350 349 347 345 345 348 349 348 347 347 345 345 343 339 339 337
293 288 294 287 288 283 286 290 296 301 302 305 306 309 312 314 318 318 320 327 327 330 339 333 333 336 338 346 350 351 352 354 351 353 356 349 348 348 349 348 346 346 344 344 342 338 339 338 336
294 296 287 288 279 277 284 286 288 294 299 304 306 307 312 315 314 318 321 326 336 337 339 338 338 336 346 348 350 351 352 354 355 354 350 349 348 346 346 346 345 344 343 342 340 339 338 336 336
292 290 290 291 287 280 279 285 297 298 301 301 306 308 312 313 314 316 320 331 333 335 334 336 341 345 346 349 351 351 352 351 349 349 348 349 348 345 344 343 342 340 341 340 338 337 336 335 334
295 291 293 285 284 287 285 285 300 301 301 300 299 310 312 313 314 315 329 331 331 333 332 337 341 343 347 349 349 350 349 348 347 346 347 346 345 343 342 340 338 337 337 338 336 334 334 332 332

GFSSGP_sfc_thetae_069.txt.gz
Theta_e
328 319 316 313 298 296 292 297 304 304 305 315 318 316 316 319 320 313 330 343 341 344 351 357 360 360 359 358 358 360 361 362 361 362 360 360 359 357 355 353 350 347 345 342 339 337 336 337 337
322 318 311 307 294 289 294 304 302 305 308 317 318 317 317 319 328 328 335 341 340 346 351 353 359 359 359 358 357 358 360 361 360 359 358 358 358 356 354 351 348 345 343 340 337 336 336 337 336
325 324 307 299 294 293 295 303 306 310 313 316 315 320 319 322 328 326 341 342 340 344 347 352 359 358 358 358 356 356 357 359 359 359 358 357 356 355 353 350 347 344 341 338 337 337 337 337 337
317 316 310 294 293 299 302 306 309 309 311 317 317 315 321 330 327 332 349 344 340 341 345 357 358 358 358 357 356 355 355 357 358 357 357 356 355 354 352 349 347 346 342 341 340 339 339 338 339
316 306 294 292 296 302 307 309 309 308 308 311 315 313 318 330 331 340 348 347 342 338 346 354 358 358 358 357 356 355 354 354 355 356 355 354 354 353 351 348 345 344 346 344 342 342 343 344 344
305 304 292 291 297 303 306 306 306 307 308 309 312 316 318 329 330 334 341 342 343 338 348 350 357 357 357 357 355 354 353 352 352 353 353 352 352 351 349 348 346 346 348 347 346 346 346 345 346
310 300 294 296 297 300 304 307 305 305 306 308 311 311 318 326 329 331 333 336 340 346 347 348 351 354 357 356 354 353 352 352 351 351 351 351 351 350 349 348 347 348 348 348 348 348 347 346 347
312 304 301 302 300 300 308 307 306 305 307 313 314 309 316 328 331 327 331 331 340 347 347 346 347 349 350 350 354 353 352 351 351 351 351 350 350 350 349 347 347 348 348 348 348 348 348 348 348
309 298 298 301 302 304 309 307 311 312 308 311 312 317 326 330 330 324 323 328 344 347 346 346 345 346 346 347 350 353 352 352 351 351 351 348 342 342 343 346 345 348 349 349 349 348 349 349 349
303 297 300 308 309 307 309 311 311 309 308 309 311 324 325 328 327 326 320 320 337 343 346 346 344 343 342 345 345 346 345 345 345 344 343 342 338 335 342 343 347 347 348 349 349 349 348 347 341
305 300 307 309 312 312 311 311 314 310 307 309 308 313 321 323 326 326 327 324 329 342 347 346 345 342 339 338 342 345 344 343 344 341 339 339 339 336 338 335 339 337 346 339 344 343 343 340 339
298 306 309 310 312 311 309 312 311 312 310 315 316 315 315 319 321 326 326 327 330 333 339 345 344 341 337 337 342 342 341 341 341 341 338 338 337 333 332 331 332 333 336 336 335 338 339 339 338
299 301 303 307 310 311 312 310 310 311 315 317 318 317 315 316 320 321 322 324 324 328 332 342 343 340 338 339 342 342 341 341 340 340 340 338 337 333 332 330 331 332 332 336 334 335 335 337 337
298 300 301 303 303 305 308 309 311 312 316 317 317 316 316 315 321 320 321 323 325 330 335 339 342 341 341 340 340 342 343 344 342 341 340 339 337 336 334 331 332 331 332 335 336 333 334 335 336
298 293 297 301 302 302 303 301 305 313 314 314 315 316 317 317 317 319 321 323 325 327 332 340 342 344 342 341 341 345 347 346 344 344 343 340 338 337 336 336 331 333 335 334 336 334 333 333 337
293 292 286 294 300 303 301 294 302 308 312 311 313 315 316 317 317 317 320 323 326 325 328 340 348 347 346 344 345 344 345 344 344 342 346 344 341 339 340 336 335 333 336 335 335 335 334 333 333
289 284 287 291 297 297 297 296 303 306 306 309 312 314 315 316 317 318 321 322 328 327 327 331 345 349 349 349 349 349 348 346 345 342 341 347 345 342 340 340 339 337 336 336 333 330 330 328 328
285 286 289 290 293 294 292 294 299 302 305 305 309 312 314 315 316 318 320 324 328 329 329 332 337 350 352 348 347 345 342 340 339 341 342 346 347 346 341 342 340 341 336 334 333 329 331 328 329
293 291 290 293 297 294 293 294 297 300 300 300 305 307 311 313 316 318 319 321 326 331 331 332 333 337 339 339 335 334 332 333 337 340 344 342 348 347 345 342 341 340 338 334 333 332 329 328 331
292 289 289 293 296 294 293 292 296 298 298 300 301 305 309 312 314 316 317 319 321 330 331 331 330 333 335 335 336 334 333 334 335 340 341 345 347 347 345 342 340 340 338 335 334 331 326 328 331
291 289 289 289 294 294 292 289 292 297 299 301 302 304 307 311 313 315 316 317 326 331 332 333 334 334 334 336 338 337 336 337 340 338 339 345 346 348 346 343 340 341 341 336 334 330 329 327 328
288 295 294 292 288 283 291 281 289 293 295 297 300 302 304 307 312 313 315 316 325 331 332 333 333 332 333 333 336 336 335 333 335 339 343 345 347 346 345 344 342 341 341 335 332 336 333 329 324
291 296 293 292 288 284 286 282 287 291 291 294 297 300 303 306 309 312 313 314 318 328 328 328 330 332 335 337 339 336 334 336 337 340 342 342 343 344 345 343 341 343 340 335 334 335 333 330 327
296 292 291 290 285 279 284 284 284 288 290 294 297 300 302 306 307 312 312 313 315 323 326 327 327 330 333 337 338 335 332 336 338 339 342 342 341 341 343 345 342 342 338 337 336 335 332 331 328
291 286 279 277 277 278 287 284 286 292 296 297 297 300 302 303 304 308 312 312 314 316 316 323 323 326 333 335 337 337 336 337 338 340 341 341 339 337 339 343 343 339 339 337 337 334 332 330 327
288 287 282 275 275 279 288 281 286 295 298 299 301 301 302 303 305 308 311 312 312 315 316 318 320 321 330 333 336 339 341 341 341 342 342 341 340 339 340 342 341 341 339 337 335 333 331 330 328
287 283 289 282 284 278 282 287 292 297 299 300 300 301 301 303 306 310 309 309 310 312 313 314 315 325 331 334 340 338 340 341 343 342 343 341 339 340 341 341 342 339 337 336 333 331 330 329 327
290 292 281 282 275 275 280 282 284 292 294 296 297 297 300 303 306 309 310 313 323 325 326 326 321 329 333 338 342 341 341 344 345 345 342 341 340 341 341 339 337 335 335 334 332 329 330 328 327
287 285 287 287 284 278 276 280 295 293 294 294 296 299 300 303 306 308 309 321 324 324 325 325 324 326 332 340 340 341 343 345 345 343 342 342 342 342 340 338 335 334 333 333 330 329 329 328 327
293 289 287 282 281 283 281 282 297 296 296 298 297 299 303 306 305 309 321 323 324 324 324 325 331 337 340 342 342 343 342 343 341 338 338 339 339 339 338 336 334 334 333 331 329 328 329 328 326

GFSSGP_sfc_thetae_072.txt.gz
Theta_e
323 318 314 311 297 293 289 294 301 302 303 305 311 315 315 320 318 311 328 334 337 343 353 357 360 359 360 361 362 362 361 361 361 360 359 358 357 356 355 353 351 348 345 343 341 339 337 337 336
321 319 309 304 292 287 290 297 300 303 306 309 312 315 317 319 326 329 332 335 336 346 352 354 360 358 359 360 361 361 361 361 361 360 359 358 357 356 354 352 349 346 344 342 339 337 337 337 336
322 322 305 299 291 290 292 299 301 306 310 309 312 317 321 322 327 331 336 335 338 344 349 352 360 358 358 358 359 360 360 360 361 360 359 358 357 356 354 351 348 345 343 339 337 337 338 338 337
314 313 308 293 292 297 299 303 305 307 308 309 314 314 321 329 328 331 337 336 337 342 346 355 359 358 357 357 357 358 360 360 360 359 359 358 356 355 353 349 348 345 342 340 339 339 338 338 338
314 303 294 290 293 298 303 305 304 303 304 306 309 311 318 326 334 339 334 335 335 339 344 354 358 357 357 356 356 356 357 358 359 359 358 357 356 353 351 349 347 344 343 342 342 341 342 342 342
309 301 290 290 295 301 303 304 304 303 304 306 307 309 316 328 339 338 333 331 336 337 345 352 357 356 356 355 354 354 354 355 356 357 357 356 355 353 351 349 347 346 347 347 345 346 345 345 345
307 300 292 292 296 300 303 306 304 303 303 304 308 306 319 324 339 341 334 332 333 340 345 349 352 354 356 355 353 353 352 352 353 353 354 354 354 352 351 349 348 347 348 348 347 347 347 346 346
310 303 299 299 299 300 307 307 304 305 307 311 311 305 315 323 334 339 338 335 336 343 343 346 348 350 349 350 354 353 352 351 350 351 352 352 351 351 350 348 348 347 348 348 348 348 348 347 347
308 296 296 301 301 303 309 304 311 312 308 309 311 316 325 328 324 326 329 335 339 341 342 343 345 345 346 346 350 353 352 351 351 350 351 348 341 342 343 345 345 347 348 348 349 348 348 348 348
302 295 298 306 307 306 309 309 311 310 310 309 309 314 317 324 323 320 328 334 336 338 340 341 342 343 343 347 345 345 343 344 344 343 342 341 337 336 342 343 345 346 348 348 349 349 348 346 340
302 298 304 306 308 310 309 310 313 310 306 311 309 311 313 314 315 324 320 334 338 341 341 341 340 340 340 340 343 344 342 342 342 340 339 338 338 336 339 335 338 337 344 338 344 343 342 338 337
295 301 305 307 309 309 307 311 309 310 310 315 316 317 314 313 312 316 322 330 329 340 341 342 341 339 337 336 341 342 341 341 340 340 338 338 336 333 332 333 333 334 334 334 335 337 337 337 338
294 298 301 302 304 307 311 309 309 309 314 317 317 317 316 314 314 316 321 325 326 337 341 343 342 339 337 334 337 339 338 338 338 339 338 338 335 332 332 330 330 332 331 333 332 335 336 336 337
294 296 296 298 299 300 300 301 307 310 315 315 315 315 315 316 314 314 317 321 323 329 332 342 342 340 335 333 336 337 337 337 337 337 338 337 335 333 330 329 329 330 331 332 333 332 333 333 333
295 291 294 296 298 297 301 298 299 305 309 310 313 314 315 316 316 315 315 318 324 326 329 335 339 337 335 335 337 338 339 339 338 338 338 338 335 334 331 330 328 329 330 329 332 330 330 330 332
291 288 284 292 296 298 298 292 301 304 304 305 309 313 314 315 316 315 316 316 319 324 333 335 342 339 336 336 338 339 340 340 340 340 339 339 337 335 333 332 330 330 330 331 332 331 329 329 330
286 282 284 289 295 294 293 291 297 301 301 301 304 308 313 315 315 315 316 317 318 322 324 336 339 340 339 337 338 339 341 341 341 339 341 340 339 337 336 334 334 330 331 332 332 330 330 328 328
284 284 286 286 292 293 291 291 295 298 299 298 298 301 306 312 315 315 316 317 318 320 322 335 339 341 341 340 341 341 341 339 339 338 339 342 341 339 337 337 334 336 331 330 330 328 328 327 327
290 288 287 290 294 291 290 291 294 296 296 296 298 299 300 303 309 317 316 316 317 320 323 327 341 340 341 341 340 338 340 337 337 337 340 341 344 342 337 337 338 337 335 334 331 329 326 326 328
290 287 286 290 294 291 290 291 294 295 295 295 296 298 299 302 304 310 315 314 313 316 326 327 337 344 345 343 343 336 335 331 333 335 337 341 345 343 342 338 339 338 336 333 331 329 325 325 328
289 287 288 289 293 292 290 288 291 295 296 297 297 298 299 299 301 306 312 315 313 315 323 327 331 341 345 343 334 332 332 333 333 333 334 339 345 346 343 342 341 339 337 334 331 329 326 324 326
286 294 293 291 288 281 289 280 287 290 292 294 296 296 297 299 301 303 306 312 313 314 322 327 328 332 335 333 333 330 329 328 330 331 335 341 344 345 344 342 340 339 338 335 332 331 328 327 323
290 294 291 290 287 283 285 280 285 289 289 292 294 295 297 298 300 301 304 308 313 317 324 328 329 328 329 330 331 330 328 329 332 334 336 340 340 344 345 343 340 339 337 337 335 331 330 327 324
295 291 289 287 283 277 282 281 283 285 289 290 295 298 301 303 304 304 305 306 308 315 325 325 325 326 328 329 329 327 328 331 334 334 335 337 339 340 342 342 340 339 337 336 333 333 331 328 326
289 284 277 276 276 276 285 282 284 290 293 296 298 299 301 302 302 303 304 305 306 310 321 326 325 325 325 326 329 330 329 331 333 335 338 337 337 335 338 339 338 336 336 336 333 332 330 328 325
285 284 277 275 275 277 286 279 284 294 298 299 300 300 301 301 302 304 306 307 308 307 316 323 324 324 324 326 327 332 330 332 333 337 340 340 340 339 339 339 339 339 337 335 334 335 331 328 325
285 281 286 281 282 278 280 284 290 295 296 298 298 299 298 300 301 304 308 308 310 310 312 320 321 322 322 325 328 331 333 332 336 338 341 340 339 339 338 338 338 337 335 333 331 329 328 327 325
288 290 279 279 274 274 279 281 282 290 293 295 295 296 297 300 302 305 307 307 311 310 311 312 316 319 320 323 328 332 335 337 338 340 340 339 338 340 338 337 337 335 335 332 330 327 328 326 324
285 283 284 282 280 273 276 278 291 292 293 293 295 298 299 301 303 306 306 307 307 320 321 321 316 317 322 327 332 333 336 340 341 341 340 338 339 338 338 338 335 335 332 330 328 327 327 325 324
290 286 287 276 276 281 281 280 293 293 294 296 297 298 299 301 304 307 307 306 307 319 320 321 320 323 328 335 337 337 338 340 340 341 340 339 339 338 339 337 334 333 332 329 328 327 328 325 324

GFSSGP_sfc_thetae_075.txt.gz
Theta_e
332 316 312 310 296 292 288 292 296 299 300 303 308 305 310 318 317 309 326 331 339 338 350 356 360 362 363 362 362 360 360 360 360 359 359 358 358 356 354 354 352 349 346 344 342 339 337 337 337
329 318 308 303 292 287 289 294 298 300 304 307 307 309 315 317 325 327 327 332 337 342 350 351 359 360 361 362 361 360 360 360 359 359 358 357 357 355 354 352 350 348 345 343 341 338 337 337 336
329 319 302 298 292 289 291 296 298 303 306 305 305 313 318 320 328 329 331 334 336 342 348 349 358 359 360 361 360 359 359 359 360 359 358 357 356 356 354 352 350 347 345 342 339 338 338 338 336
314 314 305 295 293 296 297 298 301 303 305 304 305 306 319 328 330 332 332 334 338 343 346 354 357 358 359 360 360 359 359 359 359 359 358 357 356 355 354 352 350 348 344 341 339 339 339 339 338
313 302 295 290 293 297 300 301 302 301 301 304 304 304 310 325 333 334 330 335 335 341 343 353 357 357 358 359 360 359 359 359 359 359 358 358 357 355 352 351 348 346 345 342 341 340 341 341 340
306 300 290 291 295 299 301 302 301 301 303 305 304 304 312 326 333 332 331 330 335 338 342 350 357 357 356 357 357 358 358 358 358 358 358 357 357 355 352 350 347 347 346 346 344 344 345 344 345
305 297 293 292 295 300 303 306 304 302 303 306 306 304 317 324 335 331 327 329 333 336 342 347 350 354 356 355 355 356 356 357 357 357 356 357 356 354 353 351 349 348 347 348 348 347 346 346 345
310 302 299 299 297 299 306 306 305 306 307 312 310 305 309 320 337 332 329 328 334 337 342 344 347 349 348 348 354 354 355 355 356 356 356 356 355 353 352 350 349 348 348 348 348 348 347 347 346
306 299 297 299 301 301 307 303 309 313 310 312 310 312 314 326 330 330 332 333 335 338 339 343 345 344 344 344 349 353 352 353 354 354 354 351 345 345 344 347 345 347 347 348 348 348 348 347 346
300 293 299 305 306 305 307 307 310 310 310 310 311 314 315 319 323 322 326 326 329 333 336 341 343 343 343 345 343 345 344 343 343 343 343 340 337 336 341 343 345 346 347 347 349 349 347 345 338
300 295 303 306 307 308 307 307 310 308 306 310 310 311 313 313 314 317 323 327 328 330 335 338 340 341 341 340 341 343 343 340 341 338 338 336 334 334 338 335 337 336 344 337 343 343 340 337 336
294 299 303 305 307 306 304 309 308 308 309 314 315 315 313 313 311 311 314 321 333 335 335 337 336 338 338 337 339 340 340 339 339 339 337 335 332 330 331 334 332 332 333 332 333 335 336 335 336
293 296 299 299 300 302 306 304 306 306 309 314 315 315 313 313 313 312 317 319 329 334 336 338 337 334 335 334 336 337 337 337 337 338 337 336 333 330 330 331 330 331 330 330 330 332 333 333 335
293 294 295 296 297 298 298 300 301 304 307 308 311 312 312 313 314 313 314 316 322 330 337 340 339 337 334 332 332 334 335 334 335 336 337 336 333 330 329 327 329 327 330 330 331 331 331 331 332
293 290 292 295 296 297 299 295 297 304 305 305 306 307 309 313 314 314 314 317 319 320 327 339 341 338 335 334 331 332 332 334 332 333 335 336 334 330 328 326 325 328 329 327 329 328 328 328 329
288 286 283 290 294 296 297 291 299 301 301 301 303 304 305 308 312 314 314 314 318 319 322 327 342 339 336 332 334 336 336 335 334 335 335 336 334 332 328 327 326 327 327 327 328 327 325 326 327
285 280 283 288 292 292 293 288 295 299 298 298 299 300 302 303 305 308 313 314 316 318 319 323 331 338 337 335 335 336 336 336 337 336 336 337 337 334 332 330 329 327 328 327 328 327 327 325 325
282 282 285 285 291 291 290 291 295 297 297 297 297 298 300 301 303 306 308 313 315 317 319 320 330 336 336 338 336 336 336 336 336 337 338 338 337 336 334 332 331 330 327 328 328 326 327 327 327
288 286 285 289 292 290 289 290 292 295 295 294 296 297 297 299 303 305 306 309 313 315 319 321 327 332 335 334 334 335 335 337 337 338 339 339 339 337 334 335 332 333 329 329 330 327 326 325 325
288 286 285 289 294 292 289 290 292 292 293 294 295 296 297 298 299 302 304 305 307 311 313 320 325 331 335 337 337 336 337 334 338 339 338 339 341 339 336 335 335 334 333 330 329 327 323 324 326
286 286 287 287 292 292 289 288 289 292 293 295 295 296 296 296 296 299 301 302 303 306 311 314 322 331 337 338 335 330 332 333 332 333 334 336 339 342 340 336 336 335 335 333 330 329 328 323 328
284 292 291 289 286 280 289 279 287 289 290 292 294 293 293 294 299 302 304 302 302 305 307 311 320 327 339 340 336 334 334 333 332 333 333 334 338 342 341 339 338 337 337 333 332 330 326 329 327
287 293 290 289 285 282 284 279 283 290 289 290 291 296 299 301 302 302 304 305 307 308 305 308 317 324 332 341 339 336 327 329 327 329 330 334 338 342 341 340 339 338 337 334 333 330 331 330 327
294 289 286 285 281 276 282 281 281 283 286 289 296 299 300 301 301 302 304 305 306 308 309 307 317 322 325 333 336 334 332 326 327 328 331 335 337 340 341 340 339 338 336 334 334 334 331 326 324
287 281 275 274 275 276 283 281 283 289 293 295 296 298 299 300 299 300 301 303 306 308 309 309 311 321 324 328 331 330 329 326 327 329 332 334 335 336 338 339 338 337 336 334 334 333 328 327 324
284 282 275 271 274 276 284 278 282 291 297 298 299 299 300 299 299 300 302 303 307 308 309 309 310 317 324 325 328 329 327 325 328 332 333 336 337 338 339 339 339 337 335 334 335 332 330 327 324
283 280 284 279 278 275 279 283 288 291 294 296 296 297 297 299 300 302 304 305 308 307 307 307 312 312 323 325 327 327 327 325 328 332 335 337 336 338 339 339 338 336 335 334 332 331 332 327 324
286 289 278 277 274 273 277 279 281 287 290 294 293 295 298 299 300 301 303 305 308 307 307 308 315 311 320 322 323 324 328 328 329 333 335 336 336 338 338 337 336 335 334 334 330 327 326 325 323
283 281 282 280 278 271 273 278 287 289 291 292 293 296 297 298 300 301 304 306 307 308 308 308 314 313 317 316 321 324 328 329 333 335 337 337 337 338 338 337 335 334 334 332 328 326 326 325 322
287 285 284 275 276 279 277 279 291 292 293 294 294 297 298 300 301 303 305 307 308 309 310 311 316 312 316 318 321 325 329 333 334 336 337 336 337 338 337 335 335 334 334 331 328 326 327 324 322

GFSSGP_sfc_thetae_078.txt.gz
Theta_e
333 318 311 308 297 292 286 290 293 296 298 302 304 303 304 309 313 306 326 330 331 335 351 360 362 363 362 362 361 360 360 359 359 359 359 359 358 358 357 357 354 352 349 345 343 341 338 337 337
331 316 308 301 292 288 288 293 294 298 303 305 304 304 304 304 315 325 325 329 333 336 349 356 362 363 362 362 360 359 359 359 359 359 359 358 358 357 355 354 352 350 346 344 342 339 339 338 337
326 318 302 297 291 289 290 294 297 301 304 302 302 307 309 317 326 327 329 332 332 338 348 353 361 361 362 362 361 359 359 359 359 359 358 358 357 356 355 354 353 349 346 344 342 339 339 339 338
311 314 304 295 292 296 296 297 298 301 303 303 302 302 309 326 329 331 332 333 333 338 346 353 360 360 361 361 360 359 359 358 358 358 358 358 357 356 355 354 352 351 346 344 341 340 340 340 338
310 303 296 291 294 297 299 300 299 300 300 302 303 302 303 322 333 330 331 333 332 339 343 350 358 359 360 361 360 359 359 358 358 358 358 358 357 356 355 353 351 349 348 344 342 342 343 342 340
305 299 290 290 293 299 300 301 299 300 302 304 306 302 306 326 331 328 331 330 332 338 341 349 357 358 358 359 359 359 358 357 357 358 357 357 357 355 354 352 351 350 349 347 345 345 345 344 344
303 294 291 292 295 299 303 302 301 301 304 304 309 303 309 320 329 327 326 329 333 338 341 346 350 354 358 357 357 358 357 357 357 357 357 357 357 355 354 352 351 350 348 348 347 347 346 345 344
309 300 296 296 296 297 305 305 304 305 306 312 310 305 305 318 330 329 331 332 332 336 341 343 346 349 349 351 357 357 357 357 357 357 356 356 357 355 354 351 350 350 349 349 349 348 347 347 345
308 299 295 298 300 300 305 303 308 312 309 310 310 310 312 328 330 328 328 330 334 336 337 340 342 343 345 345 350 355 356 356 357 356 356 354 351 351 350 350 349 349 349 349 349 348 348 347 346
301 295 298 305 305 304 306 307 306 308 308 307 310 313 314 317 325 324 324 324 328 331 336 338 340 342 342 345 343 345 346 348 350 349 348 347 342 341 344 347 347 348 348 348 349 348 348 345 342
300 295 301 305 306 307 305 305 309 306 304 307 307 310 313 314 315 322 325 325 327 330 333 338 338 340 340 340 339 342 343 342 343 341 340 339 337 338 341 338 341 339 345 340 345 346 343 340 340
294 299 303 303 305 303 303 306 305 306 306 311 312 313 313 312 311 313 312 319 329 330 331 335 337 336 338 337 338 339 340 339 339 340 338 337 333 331 334 334 334 335 336 336 337 339 340 340 338
290 295 297 298 298 298 301 299 300 302 306 308 310 311 311 311 312 313 317 319 322 329 332 335 335 334 336 334 335 334 337 336 337 337 338 337 333 330 330 332 332 333 334 333 334 336 337 337 337
292 293 294 296 296 297 297 299 299 302 305 305 307 307 307 308 311 311 315 318 324 330 335 337 337 334 333 332 331 333 334 334 335 335 336 336 334 330 329 329 330 330 332 332 332 333 334 334 335
291 287 290 293 295 294 297 294 296 301 303 302 303 304 304 305 306 308 311 313 317 320 332 337 338 337 334 332 330 330 332 333 332 333 335 336 334 330 329 328 328 330 330 331 332 332 332 332 333
286 285 281 288 293 294 295 290 297 299 299 299 301 301 303 302 303 306 308 310 313 314 318 327 340 339 336 334 332 331 332 332 332 332 334 336 335 332 329 328 327 329 329 329 330 330 329 329 330
283 278 281 287 291 292 291 287 295 298 297 297 298 300 301 302 304 305 306 306 310 313 315 316 328 338 337 337 335 333 335 335 335 334 334 335 336 334 331 329 329 328 328 328 329 329 330 327 328
281 281 283 284 289 290 288 289 293 296 296 296 297 298 300 301 302 305 306 307 308 312 314 316 319 329 336 337 334 334 334 335 336 335 334 336 336 336 333 331 331 329 328 328 328 329 329 330 330
287 285 284 287 291 290 288 290 291 294 293 293 295 296 297 299 303 305 307 305 307 307 312 315 317 320 332 332 330 331 332 334 335 337 337 337 337 337 334 333 332 331 329 329 329 329 329 328 330
286 284 284 288 292 290 289 289 292 293 293 294 295 295 296 297 297 301 304 306 305 305 307 310 315 318 324 334 333 334 335 336 337 338 338 339 338 338 335 334 333 332 331 329 330 330 327 329 329
285 284 286 286 290 290 287 285 287 291 293 294 294 295 295 295 297 302 305 306 304 305 306 307 309 316 320 331 334 332 333 333 333 335 337 339 340 339 338 336 336 334 334 331 330 330 330 327 329
283 291 289 288 284 278 287 277 284 288 289 291 292 292 294 299 302 303 304 304 304 306 308 307 305 310 317 327 334 334 333 332 335 336 337 338 340 341 340 337 337 336 336 334 333 332 332 332 328
286 291 288 287 283 280 282 278 281 287 286 288 290 295 298 299 300 301 302 303 304 306 306 308 308 308 314 321 335 334 333 335 333 331 333 334 336 340 342 340 338 337 337 337 335 332 331 332 332
292 287 284 282 280 275 280 279 278 282 286 289 293 297 299 299 300 300 302 303 303 305 306 309 308 309 311 318 327 335 334 331 328 329 331 332 335 338 341 341 340 339 338 336 336 336 333 332 331
286 280 274 273 273 274 282 279 282 288 291 291 294 296 298 298 298 298 300 301 303 305 307 309 309 308 310 316 322 333 336 333 330 331 329 332 333 337 339 340 339 339 339 338 338 336 334 331 329
282 281 274 270 273 273 282 277 281 289 292 296 298 298 298 297 298 300 301 302 303 305 307 308 308 307 309 312 318 325 334 335 332 331 330 333 335 337 340 340 340 340 339 338 337 335 334 331 330
281 279 282 277 277 273 277 281 287 290 290 295 295 296 295 297 299 300 301 303 305 307 307 308 308 308 309 313 316 323 329 332 330 329 332 333 336 338 340 341 339 339 338 337 337 335 333 331 330
285 287 277 275 273 272 276 278 279 285 288 290 293 294 295 297 298 300 302 304 306 309 309 308 310 309 309 313 315 323 327 330 329 330 332 334 336 339 339 339 339 338 338 337 336 334 333 331 328
282 280 281 279 275 270 272 276 286 287 289 290 292 294 294 297 297 300 302 305 308 309 310 311 312 312 312 314 314 323 325 327 327 330 333 336 337 339 339 340 338 337 336 335 334 331 330 329 327
286 283 282 275 275 278 278 279 290 289 290 293 293 296 296 298 299 301 303 306 308 309 309 309 313 319 323 321 316 321 325 327 329 331 334 336 337 339 339 339 337 336 335 334 332 330 330 328 326

GFSSGP_sfc_thetae_081.txt.gz
Theta_e
333 323 318 317 304 304 298 299 303 304 305 311 312 310 310 312 314 311 337 340 335 341 356 362 363 363 362 362 360 360 359 360 361 362 362 362 361 361 360 359 357 354 352 348 344 341 339 338 338
331 318 316 311 301 296 298 301 302 305 310 312 311 310 309 309 317 325 333 338 336 345 359 358 363 362 363 362 361 360 359 359 360 360 361 360 360 360 359 358 356 353 350 346 343 341 339 339 339
326 321 310 308 302 295 297 302 305 308 310 308 309 312 312 320 330 323 338 336 337 344 353 359 362 362 362 361 361 360 359 359 359 359 359 359 358 358 357 357 356 352 348 346 343 341 341 340 339
318 320 311 301 298 299 300 305 307 307 310 311 312 308 314 330 332 337 337 335 336 340 349 358 361 361 362 361 361 360 359 359 359 359 358 358 358 357 356 356 355 352 349 346 344 344 342 341 340
316 313 302 300 298 301 303 307 307 306 308 312 312 311 313 325 339 337 337 334 334 340 347 356 361 361 362 361 361 359 359 358 358 358 358 358 358 356 355 355 354 353 351 349 346 345 345 345 342
310 309 299 295 296 302 306 308 307 308 311 313 313 312 315 332 335 334 335 335 336 341 347 352 360 360 360 360 359 359 358 358 358 358 358 358 357 356 355 355 354 353 351 349 347 347 346 345 345
307 304 298 297 297 301 305 309 308 311 312 312 316 311 317 324 334 335 336 337 338 343 345 353 355 359 359 359 358 358 358 357 357 357 357 357 357 356 355 354 353 352 350 349 347 347 347 346 345
313 306 300 300 298 299 307 310 312 312 312 318 317 311 313 323 335 335 336 337 339 341 342 348 353 354 354 355 359 358 358 358 357 357 357 357 357 356 355 352 352 352 351 349 348 348 347 346 345
316 304 300 301 301 302 310 309 313 316 314 315 316 316 319 324 334 333 333 334 335 338 343 347 348 351 352 350 353 358 358 358 358 358 357 356 354 355 353 351 351 352 351 350 349 349 348 348 346
308 303 303 307 308 306 309 310 310 310 311 312 314 317 318 320 325 331 330 329 331 333 339 345 348 349 350 347 351 352 351 353 355 354 355 355 354 354 351 350 350 351 351 349 350 349 349 346 341
305 301 307 308 310 310 308 308 310 309 308 311 310 312 315 318 321 323 325 330 330 333 337 342 348 350 348 344 346 348 348 349 353 354 355 355 352 352 350 347 347 347 348 341 344 344 341 340 341
300 304 307 309 310 306 306 307 305 307 309 312 311 313 314 316 317 319 321 323 329 333 335 339 346 346 349 346 344 344 345 346 346 348 353 351 349 347 346 343 342 345 341 342 342 340 342 343 342
299 299 301 302 301 302 303 302 303 303 308 309 311 312 312 313 316 320 322 325 328 333 336 337 344 348 347 347 344 344 344 343 344 345 347 346 343 343 342 342 340 339 340 339 340 340 341 341 341
298 298 299 299 300 301 300 302 302 304 306 307 309 309 309 309 311 315 316 320 324 330 336 341 342 347 347 346 347 344 344 344 343 342 343 345 343 342 339 339 338 338 339 338 338 338 338 339 338
298 294 296 298 299 299 300 297 298 301 304 305 306 307 308 309 310 311 314 317 320 323 328 333 344 345 346 346 346 345 343 342 341 341 344 344 344 343 341 338 337 337 340 341 340 340 339 337 338
294 293 291 295 297 299 299 292 299 302 302 302 303 305 306 308 309 311 313 315 319 322 328 328 332 346 345 346 344 342 342 342 342 341 342 344 344 344 342 337 337 338 338 338 337 337 336 336 336
291 287 289 292 297 297 296 292 298 302 301 301 303 303 304 306 309 312 312 314 316 320 323 327 331 333 347 348 344 343 343 340 340 341 340 343 343 341 339 336 336 341 335 337 337 337 338 337 336
288 289 290 290 295 297 295 295 298 300 301 301 301 302 303 304 306 309 311 315 317 319 322 325 326 331 336 347 347 344 342 341 340 340 340 342 342 341 341 337 337 339 335 338 338 339 339 338 337
292 290 290 293 296 295 294 294 296 299 299 300 301 302 303 304 305 307 312 316 316 319 321 322 323 332 329 334 340 341 341 342 342 343 342 342 343 342 340 338 338 341 339 340 341 339 338 336 339
291 290 290 293 296 294 294 293 296 298 299 300 302 302 303 302 303 308 312 314 315 316 318 321 321 326 326 325 337 340 343 344 344 345 345 344 342 339 340 340 341 344 341 343 342 338 337 337 339
291 290 290 289 293 295 293 290 293 297 299 300 302 302 302 302 304 309 310 311 313 314 316 318 321 322 323 327 329 338 343 343 342 343 343 345 344 343 343 341 345 345 344 342 341 341 340 336 337
288 295 292 290 289 284 292 283 290 294 295 298 299 301 302 305 307 308 309 310 312 312 314 316 319 322 322 326 327 336 333 334 341 343 345 346 346 346 346 346 346 347 345 345 343 343 341 341 337
290 295 292 291 289 288 287 285 289 293 292 295 299 300 304 306 307 307 308 310 312 313 314 315 319 320 322 323 324 325 335 337 343 344 349 349 348 349 347 347 347 346 344 346 346 343 341 341 340
295 292 290 289 288 282 286 286 287 290 293 295 299 301 304 306 306 308 310 311 312 314 315 317 317 320 320 321 322 326 332 339 339 340 339 340 342 345 348 346 346 348 348 347 346 346 344 343 343
292 289 283 281 281 281 288 285 288 293 296 297 298 300 305 306 306 307 308 309 311 313 315 317 318 317 319 320 321 322 328 336 341 342 341 344 343 344 350 351 350 348 349 349 349 347 345 343 341
290 289 283 275 278 281 286 282 288 295 298 299 301 304 305 305 306 307 309 310 311 312 315 317 317 317 319 320 320 322 326 327 337 343 343 343 344 348 355 351 350 350 350 350 349 347 346 346 343
288 286 289 284 284 281 284 288 293 296 296 298 300 302 302 304 306 307 309 310 311 313 315 316 317 318 320 321 322 322 325 329 335 344 348 343 349 347 350 350 350 350 350 350 350 347 347 345 343
291 293 285 286 277 276 282 284 285 291 293 297 298 300 302 304 305 307 308 310 312 313 315 316 317 317 318 321 325 324 325 328 335 341 345 345 349 348 348 349 350 350 350 350 350 348 348 344 337
289 288 289 287 286 279 278 283 293 293 295 296 299 301 301 302 304 306 307 309 311 312 312 315 315 315 316 319 322 328 330 329 334 340 342 344 349 348 347 348 350 349 349 349 349 348 344 338 338
292 290 290 284 282 285 284 284 296 296 297 299 299 300 302 303 306 306 307 308 310 311 311 312 313 314 315 318 321 323 330 331 334 338 340 345 346 347 346 348 349 348 348 349 347 343 340 338 338

GFSSGP_sfc_thetae_084.txt.gz
Theta_e
336 325 322 321 309 307 306 306 309 308 310 315 316 314 314 317 315 316 341 344 340 343 357 362 363 362 362 362 363 364 363 364 364 363 362 362 362 362 361 361 359 356 353 349 345 342 341 338 337
328 321 320 317 306 303 305 308 306 310 313 316 316 315 314 313 322 324 330 344 338 347 357 357 362 362 362 361 362 362 362 363 363 363 363 362 362 362 361 360 358 355 352 348 344 342 340 340 339
327 323 313 310 308 304 304 307 309 311 314 314 314 317 315 320 330 333 343 344 339 348 355 357 362 362 362 361 361 360 361 362 362 362 362 362 361 361 360 359 358 355 351 346 344 341 341 340 339
323 319 313 305 304 306 304 309 311 311 314 316 317 313 319 327 335 342 345 341 338 346 350 361 361 361 362 362 361 360 360 360 361 362 361 361 361 359 358 358 357 356 351 347 345 345 343 341 341
322 317 304 303 305 308 310 310 310 310 311 315 317 314 319 327 337 343 343 340 337 343 347 363 361 362 362 362 361 360 360 359 359 360 360 360 359 358 357 357 357 355 353 351 348 347 346 346 343
314 313 302 299 303 307 310 311 312 311 312 315 317 316 320 329 334 341 341 340 338 341 347 357 361 361 361 361 360 359 359 359 358 359 358 358 358 358 357 356 355 354 353 351 349 348 348 347 346
311 309 304 303 302 304 307 313 314 313 312 314 319 314 322 324 333 342 340 339 337 342 345 354 358 361 361 361 360 359 358 358 358 358 358 358 358 357 356 355 355 354 353 351 349 348 348 347 345
315 311 306 305 301 302 308 311 316 316 313 320 320 314 317 323 329 340 341 338 337 342 344 350 352 353 356 359 360 359 359 358 358 358 358 358 358 357 355 354 353 354 353 351 350 349 348 347 346
318 307 304 306 305 305 310 309 316 319 316 317 319 319 321 323 327 334 340 336 337 339 342 347 346 349 351 350 356 359 358 358 358 358 358 356 352 354 353 351 353 353 353 352 350 349 349 347 345
310 306 307 312 312 309 311 311 314 313 314 316 317 321 321 322 325 327 332 335 334 336 338 344 347 349 348 344 351 356 353 355 355 354 355 355 352 352 350 351 353 352 352 352 351 350 349 346 339
309 305 311 312 314 314 312 311 314 311 310 316 314 316 318 320 322 323 326 330 335 335 339 343 351 352 350 346 347 348 347 348 351 354 355 356 350 352 351 348 350 349 350 344 345 344 342 340 339
304 309 310 312 314 313 312 313 310 311 313 313 315 316 317 318 319 321 324 327 330 336 337 341 347 353 354 346 344 345 344 346 347 350 356 355 352 351 349 344 344 346 343 345 341 339 342 341 341
304 306 308 311 312 313 312 309 308 308 312 315 315 315 315 316 318 321 323 327 328 329 340 341 344 350 353 355 345 346 345 344 346 348 352 353 349 348 347 345 343 341 341 340 341 340 340 341 342
305 305 305 307 307 308 306 307 307 308 310 315 315 313 314 314 315 318 320 323 325 325 327 337 343 348 351 352 353 351 349 347 345 344 346 352 348 349 344 344 342 339 339 339 340 340 341 341 341
303 300 303 303 304 302 305 301 302 308 308 307 311 313 314 313 313 315 317 320 322 324 327 329 335 349 351 350 350 350 346 345 342 343 350 349 350 349 350 341 340 339 342 343 342 343 343 341 342
299 301 296 303 303 303 301 300 304 307 305 304 306 308 311 313 313 314 315 319 323 324 326 331 328 335 352 352 349 348 345 344 342 341 344 349 349 350 348 341 340 341 342 340 340 342 341 342 343
298 294 296 298 301 301 300 299 305 306 305 303 304 306 308 309 312 313 314 318 322 325 328 328 333 331 339 352 351 352 354 347 343 343 343 348 347 347 347 342 341 349 340 340 341 343 344 344 344
293 293 294 295 299 300 299 298 302 305 304 303 304 305 305 307 310 311 315 319 322 324 328 329 329 335 336 342 348 348 349 348 348 345 344 347 347 347 349 343 343 344 339 340 341 346 346 345 344
296 295 294 296 299 298 298 298 301 303 304 303 303 304 306 307 309 311 316 318 320 323 325 327 328 333 332 329 336 338 342 345 346 348 349 349 347 347 348 343 345 342 342 339 348 348 347 344 345
296 294 294 297 299 298 297 297 301 302 303 305 305 304 306 307 307 311 315 317 317 320 323 325 327 329 330 328 334 335 338 340 345 348 353 351 349 349 347 348 343 342 339 346 350 350 345 345 347
295 294 294 294 297 299 297 295 298 301 303 305 306 307 308 307 307 311 313 316 318 319 321 322 325 327 329 332 330 331 336 341 340 345 347 352 352 349 350 349 342 342 343 342 350 351 348 341 345
293 297 295 293 293 289 296 287 295 298 299 301 304 306 307 308 310 310 311 314 316 317 320 322 326 328 327 331 330 333 329 328 332 340 345 349 353 352 350 350 347 354 347 349 353 351 348 347 344
294 297 295 295 293 292 292 289 294 297 296 300 302 304 307 308 310 310 312 313 316 318 320 322 325 328 329 330 331 328 329 327 330 334 350 358 358 355 351 351 351 356 352 356 357 352 351 348 346
298 296 296 296 293 286 292 290 292 295 297 299 302 304 305 308 309 311 312 314 315 317 319 322 324 326 328 329 330 330 330 330 329 333 336 340 346 351 354 352 355 357 357 356 352 353 352 352 351
297 293 287 285 286 286 292 289 293 298 299 300 300 301 304 308 308 309 311 312 315 316 318 318 320 322 325 327 328 329 330 331 331 333 332 339 340 344 352 356 355 353 355 354 355 355 354 353 350
294 293 287 280 282 287 292 286 293 299 300 301 302 304 306 307 308 310 311 313 314 316 317 318 320 320 321 323 326 330 332 329 328 334 335 336 342 345 356 356 355 354 355 355 356 354 353 355 352
293 290 295 289 289 286 289 292 296 299 299 300 301 304 305 307 308 309 310 313 314 315 317 318 319 320 322 323 325 327 331 333 332 336 342 338 348 343 351 356 356 356 356 355 357 353 354 354 353
296 297 288 289 281 281 287 288 291 295 296 299 300 301 304 307 307 309 310 312 314 315 317 318 318 318 320 322 323 324 329 333 336 335 338 343 348 351 353 355 357 356 355 355 358 355 356 353 351
293 291 292 292 291 284 283 289 298 297 298 299 301 304 305 306 308 309 310 312 313 314 315 317 318 318 319 320 322 324 326 331 333 336 338 340 348 349 347 351 354 354 353 355 356 357 353 352 351
296 294 294 288 286 289 288 288 300 300 301 301 303 305 306 308 309 309 310 310 311 312 314 315 316 315 317 318 320 322 326 329 331 334 339 340 343 345 346 349 351 350 351 355 355 353 351 348 346

GFSSGP_sfc_thetae_087.txt.gz
Theta_e
334 329 321 319 310 311 309 313 317 311 313 318 319 316 317 320 317 315 342 342 340 351 351 357 362 363 364 366 365 365 364 364 363 363 363 363 363 362 362 361 359 356 353 349 345 342 340 338 337
327 325 319 316 309 307 310 316 310 315 316 318 318 317 316 315 325 331 338 342 341 353 352 352 361 362 364 365 365 364 364 364 363 363 362 362 362 362 362 361 359 355 352 349 344 342 339 339 339
328 324 314 312 310 308 310 313 313 315 316 316 315 319 318 320 330 336 344 343 341 353 352 354 360 361 362 364 364 364 364 364 364 363 362 362 362 361 361 360 359 355 352 347 344 342 341 341 339
324 321 315 308 307 313 315 313 314 313 315 317 317 315 320 328 331 340 345 346 340 349 351 358 359 360 361 362 363 362 363 363 364 363 363 363 362 361 360 359 358 356 351 347 345 343 343 341 341
323 317 308 306 307 312 317 316 313 312 313 315 318 315 319 328 334 342 344 345 340 346 349 360 359 360 361 362 362 361 362 362 362 363 363 362 362 360 359 358 357 355 352 349 346 345 345 344 342
315 315 305 302 305 311 315 317 316 312 314 315 316 317 321 330 329 342 345 345 341 345 348 360 359 360 360 361 361 360 360 360 360 361 361 361 360 359 358 357 356 355 354 352 349 348 347 346 344
312 311 306 307 306 307 311 317 316 313 314 314 320 316 322 326 328 341 344 343 341 344 346 358 356 360 361 360 360 359 359 359 359 359 359 359 359 358 357 357 356 356 354 353 351 349 348 347 345
315 311 307 308 306 306 311 313 316 316 314 322 321 315 318 324 328 336 344 340 339 342 344 354 354 354 356 358 361 360 359 359 358 358 358 359 358 357 356 356 355 355 355 353 352 350 349 348 347
318 308 304 306 308 310 313 309 314 319 317 319 320 320 323 325 328 332 340 337 336 339 343 349 349 351 351 351 357 359 359 359 358 358 358 357 351 353 352 351 354 355 354 353 352 351 349 348 346
310 307 308 312 313 312 314 312 311 313 316 317 318 323 324 323 324 325 330 337 336 336 340 345 347 349 348 345 355 355 354 355 355 353 355 354 350 352 350 352 353 355 354 353 352 351 350 346 337
309 305 311 313 315 316 314 313 315 314 311 315 315 320 320 321 322 323 327 333 337 338 339 342 352 358 349 344 348 352 348 350 353 354 358 359 350 351 348 348 350 351 351 345 346 344 341 338 338
305 309 310 312 314 315 314 316 314 315 314 318 319 320 319 319 320 322 324 328 332 338 339 342 348 353 358 347 344 348 346 347 348 350 362 359 353 356 354 347 347 352 346 348 345 342 346 344 342
306 307 310 312 313 314 316 314 314 314 317 318 319 320 318 317 318 322 325 329 330 333 341 340 346 355 360 359 350 350 350 345 348 350 357 354 352 357 352 353 346 346 343 343 344 342 344 342 343
308 307 308 310 310 312 312 313 314 314 317 316 315 317 319 319 317 318 321 325 328 330 331 338 344 355 354 357 359 355 361 349 346 350 352 361 354 360 348 350 345 343 340 340 341 344 344 343 344
307 303 305 307 308 308 311 306 307 314 316 313 314 317 319 321 322 317 319 323 325 328 328 334 343 348 355 356 355 354 348 348 347 346 358 358 359 360 356 347 344 342 345 350 347 345 347 343 345
303 303 298 305 306 307 306 300 308 312 313 311 311 312 314 317 319 319 318 320 326 328 328 331 331 345 354 355 354 351 347 347 347 347 349 355 357 358 356 345 344 343 344 341 341 341 343 345 344
301 296 298 301 306 306 304 300 307 311 312 311 311 311 311 312 315 317 316 320 324 330 330 332 336 335 340 357 354 354 358 353 348 348 345 354 353 352 352 345 345 355 342 342 343 343 347 347 349
295 297 298 298 303 303 301 301 305 309 310 309 309 310 311 313 312 316 316 320 322 326 330 332 334 336 336 339 355 350 350 352 352 350 348 351 353 349 351 347 349 350 343 341 341 349 351 349 347
299 298 297 300 303 300 300 302 304 308 307 306 307 309 310 310 314 314 317 319 320 325 327 331 331 337 338 337 335 339 342 350 348 349 355 353 353 353 352 350 350 349 344 346 353 349 348 346 349
298 297 297 300 302 301 300 300 303 306 306 307 307 308 309 310 311 313 317 318 319 321 325 328 331 334 332 331 336 339 337 339 347 351 354 354 354 354 353 353 350 351 344 352 344 351 345 346 349
298 296 297 297 300 302 299 297 300 304 306 306 307 308 309 310 311 312 315 317 318 319 321 323 327 334 335 334 333 338 340 340 339 337 350 355 355 355 354 355 352 353 348 345 343 351 351 342 349
294 300 299 297 295 291 300 290 298 301 302 304 305 306 307 310 312 313 314 316 317 318 320 321 325 329 331 334 331 340 331 328 332 338 345 351 356 357 356 355 354 356 348 345 350 351 352 353 344
296 300 298 298 295 295 295 292 296 301 300 301 304 307 308 311 312 313 313 315 316 318 319 322 326 327 330 333 333 330 333 329 332 332 345 353 358 360 355 357 357 356 347 350 352 358 359 352 347
301 298 298 297 295 288 293 293 294 298 300 302 305 306 308 309 311 313 314 315 316 317 319 321 324 325 327 330 331 332 332 332 329 331 333 335 341 349 359 357 357 358 353 353 356 357 359 353 351
299 295 288 287 287 287 296 293 295 300 302 303 303 306 307 309 311 311 312 313 315 316 318 319 321 322 325 326 327 329 332 335 333 334 330 333 333 338 352 360 358 357 356 360 362 358 356 355 353
296 295 288 282 283 286 295 289 294 302 304 304 304 305 306 307 310 310 311 313 314 315 317 319 319 320 323 324 326 328 330 328 330 335 334 331 332 337 349 358 359 359 358 359 362 356 355 357 355
296 292 297 290 291 288 291 295 300 301 301 302 303 305 306 308 310 310 312 312 313 316 317 318 319 320 321 322 325 327 329 331 331 339 342 333 339 339 345 355 356 358 359 358 360 355 358 357 358
298 299 290 291 283 281 287 289 290 297 299 301 302 304 306 308 309 311 311 313 314 316 317 319 319 319 321 322 323 324 327 328 332 336 338 343 343 344 344 349 358 360 359 360 361 358 360 360 356
294 293 294 293 291 284 283 288 299 299 301 301 303 304 307 308 309 311 312 313 314 315 315 317 318 319 319 320 321 324 324 326 330 333 336 337 341 343 342 345 350 357 360 361 362 360 358 357 357
299 295 295 288 287 290 289 288 300 302 303 303 303 306 308 309 310 311 312 313 313 313 314 315 317 317 317 318 318 319 323 325 329 330 333 338 340 345 343 344 346 351 356 361 360 356 354 354 352

GFSSGP_sfc_thetae_090.txt.gz
Theta_e
330 329 325 316 310 310 307 311 317 314 313 319 319 317 316 319 317 317 341 343 347 345 355 358 363 366 366 366 365 364 363 362 363 363 363 362 362 362 362 361 360 356 352 349 345 342 341 339 337
323 325 321 313 308 305 308 315 313 315 316 318 317 317 315 316 329 334 337 343 348 347 354 355 362 364 366 365 365 364 363 363 362 362 362 362 362 362 361 360 358 355 351 347 343 341 339 339 338
324 327 313 309 308 306 309 313 314 316 316 316 315 319 317 320 329 334 343 344 349 347 352 357 362 363 365 365 365 364 363 363 363 362 362 362 362 362 361 360 358 355 350 346 343 340 340 339 338
322 321 316 305 305 310 313 317 315 313 315 317 316 314 320 328 328 335 343 344 349 345 347 358 360 362 363 365 364 364 364 363 363 363 362 362 362 361 360 360 358 356 351 346 345 343 342 340 339
320 315 306 303 304 310 315 317 316 312 314 315 317 314 319 327 330 335 343 343 343 347 345 356 360 361 363 364 364 363 364 363 363 363 363 362 362 361 359 359 358 356 353 350 348 346 346 345 344
312 313 303 301 304 309 313 317 319 313 314 315 314 316 319 327 326 333 344 344 344 348 349 357 359 360 361 362 362 362 362 362 362 362 362 362 361 360 359 358 357 356 354 352 350 348 348 346 346
309 308 304 304 305 307 310 317 315 315 315 314 319 315 321 323 326 332 344 344 343 348 355 357 355 359 360 360 360 360 360 361 361 361 361 360 360 359 358 357 357 356 355 354 352 350 349 348 347
311 309 304 306 305 306 311 313 314 315 315 320 321 314 316 322 327 329 342 340 340 344 356 354 352 353 355 357 360 359 359 359 359 359 359 359 358 357 357 356 356 355 355 354 353 351 349 349 348
313 305 301 304 305 308 315 310 314 316 316 318 319 319 322 324 324 325 334 338 337 339 354 352 347 351 351 353 357 359 359 359 359 358 359 356 353 353 353 353 354 355 355 354 353 351 350 349 348
307 303 304 309 310 309 312 313 313 310 312 314 318 322 324 323 322 322 324 336 335 337 344 349 347 349 349 346 357 354 355 355 354 353 356 354 351 351 349 352 353 355 355 354 353 352 351 348 338
307 303 306 309 312 313 312 312 314 310 308 313 316 320 321 320 321 321 322 333 335 338 340 347 349 352 348 345 357 352 352 352 352 352 354 354 349 349 350 351 348 351 353 347 348 346 344 339 336
304 307 308 309 310 310 310 314 312 313 313 318 319 322 320 318 319 318 320 326 335 337 348 348 351 354 353 348 354 353 348 351 351 352 354 355 352 353 352 348 349 348 349 346 344 341 342 339 340
305 307 308 310 310 310 311 310 312 313 318 320 319 319 319 320 320 321 321 329 331 332 336 345 352 362 361 366 365 357 347 349 350 353 354 353 355 352 355 354 352 350 349 347 346 342 345 342 343
307 307 307 308 308 309 308 309 311 315 319 317 317 317 319 319 319 322 324 328 331 333 329 334 346 359 358 361 368 363 361 357 353 352 352 356 354 359 354 355 353 349 348 345 345 345 345 344 343
306 302 305 306 307 306 309 305 307 314 318 316 316 317 317 318 320 320 324 329 329 332 333 332 333 357 360 360 362 360 359 350 356 354 360 354 357 357 356 352 349 348 347 348 348 348 348 345 347
302 303 297 303 305 306 306 298 307 313 314 312 313 314 315 318 321 321 325 327 329 331 334 330 334 340 352 358 357 357 353 355 353 352 355 358 356 357 358 352 350 347 348 347 343 343 342 343 340
300 294 297 299 305 305 304 299 306 309 310 311 313 314 313 314 319 327 322 326 330 332 335 336 338 336 339 352 354 357 357 356 353 351 349 349 353 354 354 349 346 352 346 344 344 343 343 339 343
294 295 297 297 302 304 302 302 306 308 307 309 310 313 313 313 315 320 321 324 328 330 336 336 337 340 342 337 347 355 351 353 353 353 353 348 350 350 350 347 350 350 345 344 343 343 341 342 346
299 297 296 299 304 301 301 301 303 306 307 306 309 312 312 313 316 320 321 323 324 328 331 329 334 339 340 337 330 338 345 350 353 350 351 351 352 349 349 348 345 350 345 344 344 342 341 345 346
299 296 296 300 302 301 300 299 303 305 306 308 309 309 311 313 313 317 320 322 324 330 329 328 328 334 337 339 335 334 332 334 337 342 350 351 351 352 348 347 347 344 344 346 345 341 342 342 346
297 295 295 295 299 301 299 297 299 303 306 307 309 311 312 311 312 315 317 321 323 325 325 330 331 331 331 338 337 340 335 335 334 334 334 354 351 351 350 350 349 348 345 339 339 345 345 337 345
293 299 299 297 295 290 300 289 298 301 303 305 307 308 309 310 313 314 316 319 322 323 327 331 333 333 332 334 336 336 335 331 331 332 335 340 353 350 349 349 349 347 347 341 342 345 343 344 341
295 300 298 297 295 294 294 291 295 300 299 302 305 307 309 311 311 314 315 318 319 323 324 331 334 331 332 332 334 331 330 333 334 331 332 335 338 354 352 352 350 349 346 348 342 346 346 347 342
301 297 297 297 294 287 292 291 292 296 299 303 305 306 308 309 311 313 316 317 319 319 321 327 329 332 333 332 329 332 331 330 329 329 331 332 332 334 350 353 352 351 349 348 346 343 347 347 348
298 294 286 285 286 285 294 292 295 301 303 304 304 305 308 310 311 312 313 313 315 317 321 322 325 327 330 331 330 331 330 333 332 332 330 331 330 330 334 349 352 352 351 351 350 345 348 353 349
296 294 287 281 283 286 293 288 294 302 305 306 306 307 308 308 310 311 312 314 316 317 321 323 324 326 327 328 330 333 332 329 328 330 333 333 332 334 340 344 353 353 354 352 351 350 353 354 351
295 292 298 290 291 287 290 294 299 302 302 303 303 304 305 307 309 310 311 315 315 317 321 322 324 324 326 327 329 332 332 331 328 331 333 331 335 333 334 334 338 348 354 355 353 351 352 353 352
297 299 290 290 282 280 287 288 289 297 299 301 301 302 305 308 308 310 312 315 316 318 322 323 322 322 323 326 327 326 329 330 331 332 331 332 333 336 337 336 336 337 348 352 354 352 353 352 351
295 293 294 293 291 284 282 286 298 298 301 302 302 304 305 307 308 310 311 314 315 317 316 323 323 322 323 327 326 325 326 325 327 327 327 329 333 336 336 339 338 337 339 351 353 352 351 351 350
298 295 295 289 286 289 288 288 301 302 301 304 303 305 306 308 309 309 311 312 314 315 315 317 322 319 319 321 320 322 324 324 323 322 326 329 328 332 334 336 338 338 336 347 351 351 351 350 349

GFSSGP_sfc_thetae_093.txt.gz
Theta_e
326 319 319 314 300 299 296 301 310 311 308 309 312 312 318 323 321 314 335 340 345 349 356 363 365 366 365 364 363 362 362 362 362 362 361 361 361 361 361 360 359 354 351 347 344 343 341 339 338
322 321 317 306 298 295 299 309 308 309 308 311 312 313 318 317 329 332 334 343 346 350 353 358 365 365 365 364 363 362 362 362 362 362 362 361 361 361 360 359 358 354 350 346 344 342 340 339 338
320 321 308 299 298 296 301 311 309 310 311 311 309 315 318 320 327 330 339 343 346 349 349 358 364 364 365 364 363 362 362 362 362 362 362 361 361 360 359 359 357 354 351 346 344 342 341 340 338
316 312 309 296 295 305 308 312 313 314 310 312 311 312 321 326 326 332 341 343 345 346 347 360 363 364 364 364 364 363 362 362 362 362 362 361 361 360 359 359 358 356 351 346 345 344 343 342 340
309 306 297 295 297 303 311 314 314 311 309 310 311 312 316 321 328 337 338 342 343 343 350 357 362 364 364 364 364 363 363 362 361 362 362 362 361 359 358 358 357 356 354 350 347 346 345 344 343
302 305 294 293 299 306 308 315 312 313 314 312 312 313 314 320 320 332 339 336 342 341 351 354 361 362 363 363 363 362 361 361 361 361 361 361 360 359 358 358 357 356 354 351 350 348 347 346 345
299 298 296 298 300 303 307 316 313 313 312 310 313 311 313 316 319 326 336 336 340 343 350 351 355 360 362 361 361 361 360 361 361 360 360 360 360 358 358 357 357 356 354 352 351 349 348 348 347
304 300 297 299 299 301 308 312 316 313 312 317 318 310 308 313 318 321 329 330 341 348 349 349 352 354 354 357 361 360 360 360 360 360 360 359 359 358 357 355 355 356 355 354 353 351 349 348 347
305 296 295 298 300 303 309 306 311 316 314 316 317 318 317 318 318 318 318 331 347 349 347 347 349 350 350 352 357 359 361 360 360 359 359 356 351 352 352 354 354 356 355 355 353 352 350 349 348
299 294 297 305 306 305 308 308 309 308 309 312 315 319 321 318 317 316 315 326 332 345 344 345 346 347 346 353 352 351 354 354 352 352 353 349 346 346 349 352 355 356 355 354 353 352 351 349 340
301 297 301 303 307 309 308 309 311 306 303 309 310 315 319 315 315 315 314 325 331 329 338 342 344 345 344 346 351 349 349 348 348 347 349 346 345 342 348 343 347 346 352 346 349 348 346 341 337
296 302 304 304 306 305 304 307 306 307 306 312 313 318 317 313 313 315 314 322 326 327 328 337 342 344 343 347 349 347 347 345 345 345 346 345 341 338 339 341 341 343 343 342 338 340 340 338 335
298 300 304 305 305 305 306 304 305 306 314 316 316 317 315 314 313 316 320 322 323 327 327 332 342 342 342 349 348 343 343 345 346 345 346 348 343 341 342 341 342 342 342 342 340 338 336 336 335
299 300 301 302 301 302 302 303 303 307 315 316 316 314 314 315 315 315 318 318 323 324 329 331 333 342 346 348 352 350 344 341 344 346 347 347 348 344 343 342 343 342 343 343 342 339 336 337 337
300 295 299 300 300 299 302 298 300 307 312 313 314 313 315 315 316 315 316 318 323 323 325 328 332 339 349 348 349 347 347 344 344 344 346 348 346 345 346 345 341 339 338 337 339 338 336 336 336
295 294 289 297 300 301 299 292 301 305 306 312 313 314 315 313 314 316 318 319 323 324 323 326 332 333 344 348 348 348 346 344 343 343 349 349 349 347 345 345 342 340 339 337 334 331 331 333 332
291 287 290 294 301 300 298 295 301 304 304 303 306 310 313 312 312 316 319 321 324 325 324 326 327 327 329 338 348 348 345 344 344 343 339 346 350 350 347 344 341 342 339 338 334 332 332 330 332
288 288 291 292 298 299 297 297 301 303 303 303 302 303 306 309 310 316 318 321 322 325 325 326 326 327 330 329 335 347 345 345 346 345 343 340 344 350 347 344 342 340 339 335 335 333 333 332 332
294 292 292 295 299 296 295 295 298 301 300 299 300 301 304 306 310 314 318 319 320 321 322 326 325 326 329 328 325 331 342 342 343 344 346 346 343 345 347 343 340 343 338 335 334 333 332 331 337
294 292 291 295 298 297 295 295 297 299 298 299 300 301 305 305 309 314 314 314 316 320 320 321 324 324 326 328 329 329 330 331 338 339 336 345 346 345 344 344 341 339 337 337 334 333 333 335 338
293 291 292 292 296 297 294 292 294 299 300 301 302 302 304 306 306 310 312 312 313 316 316 321 322 323 322 325 326 329 331 329 328 326 327 329 338 346 345 343 342 341 338 337 337 336 332 327 334
289 296 296 294 291 285 294 284 291 296 297 300 302 302 302 304 307 310 312 312 312 315 317 318 320 322 325 325 324 324 324 323 326 326 328 331 336 345 346 345 345 343 342 340 337 336 337 337 334
292 297 294 294 289 287 289 284 289 294 294 297 299 302 301 304 307 308 311 313 314 315 315 319 320 321 322 324 324 323 322 325 327 325 326 329 331 333 337 347 345 345 344 343 338 338 337 339 336
299 294 292 290 286 282 287 286 287 291 294 297 301 301 303 303 306 309 311 311 310 312 313 319 317 317 319 319 320 320 322 323 324 324 325 326 327 327 329 336 346 345 345 343 343 338 339 340 338
293 285 278 277 278 280 290 287 289 296 299 300 301 300 301 305 306 307 306 308 309 308 310 314 315 315 319 317 318 320 320 323 324 325 325 325 325 325 326 328 336 346 347 346 343 342 339 337 338
291 288 283 277 277 281 291 286 289 300 300 303 303 301 302 304 306 306 307 308 308 309 310 313 315 315 319 320 319 321 321 322 320 321 323 324 326 326 329 332 332 332 347 348 346 345 342 341 340
291 287 290 287 288 282 284 289 294 300 301 301 301 301 300 301 304 304 305 306 305 305 308 312 313 315 317 315 316 315 319 319 320 320 321 322 324 329 330 329 327 326 334 347 348 346 345 343 343
294 296 285 287 278 276 283 284 285 294 296 299 299 296 297 300 301 302 304 305 306 306 308 310 312 312 314 316 317 318 318 320 320 320 321 322 323 325 326 328 331 331 330 330 337 347 347 345 345
289 289 290 290 286 278 277 281 293 292 296 297 299 301 298 299 300 302 303 304 305 307 308 310 310 311 313 315 316 317 318 315 315 316 319 319 320 322 327 331 331 332 333 333 330 334 344 346 346
297 291 292 285 282 287 283 283 297 295 296 297 299 301 303 302 302 301 303 303 304 305 306 307 308 309 310 314 315 314 313 314 314 312 313 317 319 322 322 323 326 329 331 333 332 332 342 346 345

GFSSGP_sfc_thetae_096.txt.gz
Theta_e
326 318 315 310 300 297 294 298 304 306 307 308 318 322 320 322 319 312 333 338 347 353 360 364 364 364 363 363 362 361 360 360 360 360 360 360 360 359 359 358 356 352 348 345 343 342 340 339 338
324 319 314 302 296 293 298 305 305 305 310 308 314 319 322 320 330 332 334 343 347 354 359 361 364 363 363 363 361 360 360 361 360 360 360 360 360 359 358 358 356 351 348 345 343 341 340 340 338
316 319 307 297 293 294 300 308 307 312 314 309 307 318 319 321 328 332 338 343 348 352 356 360 364 363 363 363 361 361 361 361 361 361 360 360 360 359 358 357 356 351 347 345 343 342 342 341 339
309 309 306 295 294 300 305 311 311 311 313 312 313 312 318 327 328 336 343 344 346 348 354 362 363 363 363 362 362 361 361 361 361 360 360 360 359 358 358 358 356 354 348 345 343 343 342 341 338
307 303 295 293 294 300 305 308 311 309 309 311 312 310 312 319 333 339 341 342 342 345 353 360 362 363 363 363 362 361 361 361 361 361 360 359 359 358 357 357 355 353 350 347 344 344 345 344 342
300 302 293 291 296 303 306 309 314 314 311 311 310 311 310 316 318 332 340 338 341 343 352 358 360 361 362 362 361 360 360 360 360 360 360 360 358 358 357 357 356 354 352 351 347 347 346 345 343
297 296 293 294 298 301 305 309 311 316 314 312 312 309 310 313 315 320 337 339 339 346 349 355 358 359 361 362 360 360 359 359 359 359 359 359 358 357 357 356 356 356 354 352 351 348 347 346 345
301 298 294 295 296 298 306 307 314 315 314 319 317 308 305 312 316 319 327 337 337 346 348 351 355 357 357 358 361 360 360 359 358 359 359 358 358 357 357 354 354 356 354 353 351 350 349 348 346
301 292 291 295 297 300 305 304 309 314 314 316 316 313 315 316 317 326 335 342 343 345 343 347 352 353 354 355 359 360 361 361 360 359 359 355 352 352 352 352 353 355 355 354 353 351 350 349 348
297 291 293 301 303 302 306 303 306 306 308 311 315 317 317 315 314 319 328 336 341 342 343 343 345 349 351 355 354 354 355 356 355 355 354 350 346 346 349 351 354 355 355 354 353 352 351 349 340
296 292 298 300 302 305 306 306 308 305 302 307 311 314 315 313 311 314 324 327 326 336 344 343 343 344 347 349 351 350 349 348 348 348 348 344 345 342 346 343 347 345 352 346 349 346 345 341 338
293 299 301 302 304 303 301 305 303 304 304 309 314 316 313 312 310 313 320 323 324 326 338 342 342 342 341 348 349 348 348 345 344 344 345 342 338 337 338 340 339 341 342 342 340 340 341 339 337
293 297 301 303 303 303 304 302 303 303 309 314 313 315 313 310 311 316 320 321 323 326 330 334 341 341 339 346 345 345 345 346 344 343 344 343 339 336 335 336 339 340 339 340 338 337 337 336 335
296 297 298 299 299 299 300 302 301 305 308 313 313 312 312 312 312 313 316 319 320 323 327 329 339 342 343 345 343 343 343 345 344 342 343 345 342 337 337 337 338 338 338 339 339 338 335 333 333
296 292 295 296 297 297 299 297 298 303 309 310 312 312 312 313 312 313 315 318 319 321 325 330 333 345 344 346 347 345 343 343 343 344 343 345 345 342 338 339 339 339 340 339 340 338 336 333 334
292 290 286 294 298 299 297 292 298 302 302 304 310 311 312 313 314 313 315 318 320 320 321 329 338 339 347 346 346 346 344 342 343 344 345 346 345 345 344 342 340 339 338 337 334 334 331 331 331
288 284 287 291 297 297 295 293 299 302 301 301 308 310 311 311 312 314 316 319 320 320 320 324 330 335 340 342 345 346 344 341 342 340 344 345 347 346 343 344 343 342 339 336 335 332 329 326 327
285 285 288 289 294 294 293 293 298 300 300 301 301 308 309 311 309 313 316 319 320 321 321 323 324 325 330 332 334 342 345 344 344 342 339 344 347 348 346 343 342 340 338 336 333 332 330 329 327
291 289 288 292 296 293 291 292 295 298 298 300 298 298 300 307 311 313 317 319 320 321 322 322 321 323 326 325 327 330 331 340 341 342 343 342 339 346 346 345 342 339 337 337 334 331 331 328 331
292 289 289 293 296 293 292 291 295 296 297 297 298 299 300 303 308 314 315 316 316 317 319 321 322 321 322 323 324 324 328 331 335 333 333 337 343 342 343 345 342 340 340 337 334 332 329 330 333
291 289 289 290 294 294 291 289 292 296 297 299 299 299 302 304 307 311 313 314 314 315 315 317 318 319 319 320 322 324 326 324 325 326 329 330 331 332 342 343 343 340 338 338 337 334 330 328 331
287 294 294 292 289 282 291 281 289 293 294 297 298 297 298 302 307 311 312 311 315 315 317 317 319 319 319 322 319 318 319 319 324 326 328 329 333 335 342 343 342 341 341 338 336 338 335 330 327
290 295 292 292 287 283 286 282 288 291 292 294 297 298 298 299 305 308 309 311 312 313 312 317 318 317 320 320 319 317 316 318 322 324 324 325 329 332 333 336 343 342 341 340 337 335 334 334 332
297 292 289 287 284 279 284 283 285 289 291 294 298 300 302 303 303 308 310 311 311 313 312 315 315 315 318 318 318 318 317 317 318 319 322 323 325 326 327 328 332 343 343 343 341 337 336 334 335
291 284 278 276 277 279 286 284 287 292 296 298 297 300 302 303 301 306 309 309 310 310 310 316 315 313 315 316 316 316 315 318 317 320 321 321 322 324 325 325 326 331 343 342 342 341 338 337 337
289 287 283 275 275 280 288 282 288 297 299 300 301 301 300 300 305 308 308 308 308 309 309 315 311 309 314 314 314 315 315 315 317 319 317 321 321 325 327 329 329 329 330 335 343 342 342 341 339
289 285 288 286 288 281 283 287 293 297 297 299 299 300 300 300 303 306 307 308 306 306 308 309 312 311 312 314 314 315 316 316 317 317 317 317 320 323 326 328 325 327 329 333 338 340 340 340 340
292 294 285 287 278 278 282 284 285 289 294 296 297 300 301 301 302 302 304 306 306 306 308 309 311 313 312 314 313 314 312 315 317 316 316 318 319 320 322 323 324 326 329 330 328 328 335 342 342
289 288 288 286 285 281 277 280 289 291 293 294 296 299 299 301 302 302 301 302 303 303 303 305 308 311 310 312 313 312 313 314 317 318 317 316 315 315 318 322 326 327 326 326 327 327 330 329 336
293 289 287 280 279 285 284 284 296 295 296 296 297 301 300 302 301 301 302 302 301 302 304 305 306 309 311 312 313 313 314 314 313 312 311 311 312 315 317 320 321 322 325 325 323 325 329 331 331

GFSSGP_sfc_thetae_099.txt.gz
Theta_e
326 319 314 307 300 297 295 297 302 305 307 310 319 319 318 321 317 310 330 339 349 353 360 362 363 363 362 361 360 360 359 359 359 359 359 359 359 359 357 356 355 351 347 344 343 342 340 339 338
322 317 311 301 295 293 298 302 303 305 309 310 314 317 316 318 329 330 332 343 348 355 359 359 363 363 362 361 360 359 359 359 359 359 359 359 358 357 355 355 354 350 346 344 343 341 340 339 338
310 316 305 296 293 294 298 306 305 308 310 309 307 316 317 319 330 332 337 344 351 355 358 359 363 362 362 361 360 360 359 359 359 359 358 358 358 358 357 355 354 349 346 344 342 341 341 340 339
307 307 303 295 291 298 303 311 310 309 310 312 310 310 316 319 325 336 342 348 350 354 357 361 362 362 361 361 360 360 360 359 359 358 358 358 356 357 357 355 354 352 346 344 342 342 342 340 338
307 303 294 292 293 299 303 305 311 310 308 310 310 308 309 315 333 340 342 345 347 350 355 360 362 362 362 361 361 360 360 359 359 359 358 357 357 356 356 355 353 350 347 345 343 343 344 343 342
301 300 292 291 296 302 304 306 308 313 311 311 309 308 308 315 324 336 340 340 345 348 355 358 360 361 361 361 360 359 359 359 359 359 358 358 357 356 356 355 353 352 350 349 346 346 346 345 343
298 296 294 293 297 300 305 307 307 310 313 310 311 307 309 311 315 336 336 337 342 348 353 356 356 358 361 360 359 358 357 357 358 357 357 357 357 356 356 355 355 354 352 351 350 348 347 346 345
299 296 292 295 296 298 305 307 306 308 313 317 315 307 304 310 316 326 336 335 337 346 351 353 354 355 356 357 360 359 358 358 357 357 357 357 357 356 356 353 354 354 353 351 351 350 349 347 346
301 291 290 293 297 300 304 304 308 310 311 314 313 313 313 316 331 331 333 334 341 344 344 351 352 353 353 355 357 359 359 358 358 357 357 355 350 350 351 352 352 354 353 353 352 351 350 348 347
295 290 292 299 300 301 301 302 304 305 306 307 309 314 314 315 331 334 333 334 337 339 341 348 350 350 351 353 354 354 355 356 353 353 352 348 346 345 349 350 353 353 355 354 353 352 351 348 339
295 292 296 299 299 300 300 301 304 303 301 305 306 311 312 316 324 331 335 336 338 340 342 343 347 348 348 351 351 353 355 353 352 352 351 344 345 343 346 342 344 344 350 345 347 345 344 341 340
291 297 298 300 302 301 300 302 300 302 302 306 308 311 312 310 321 327 333 330 331 340 341 343 344 344 343 346 349 349 351 350 349 349 347 343 339 338 338 339 337 339 341 342 340 339 339 340 339
291 295 297 300 300 299 302 300 300 301 304 307 310 312 310 308 311 318 323 322 326 334 341 342 343 344 343 344 342 343 345 347 347 346 345 344 339 335 333 334 336 337 338 339 337 337 337 337 337
293 293 295 296 297 297 297 299 299 302 305 305 306 310 309 309 312 315 318 321 324 328 332 339 341 343 340 345 343 341 340 342 341 344 344 344 341 337 334 332 333 335 337 337 338 337 336 334 334
294 290 293 294 295 295 297 295 296 302 304 304 307 309 310 309 313 316 317 318 322 327 329 336 340 341 339 344 343 341 340 341 341 340 342 343 341 338 335 333 333 336 337 337 337 338 337 333 333
290 288 285 292 295 297 295 291 298 300 301 303 304 307 311 310 310 313 317 317 319 322 327 333 342 340 341 343 345 344 343 339 341 340 341 343 343 342 339 335 335 338 338 338 337 336 335 333 332
286 282 284 289 294 294 294 290 297 300 299 298 300 303 308 310 311 310 314 317 318 323 327 330 337 341 343 345 346 345 344 341 339 340 342 343 344 343 343 342 341 339 337 335 335 333 330 327 327
283 283 286 286 292 292 291 291 294 297 297 297 298 301 306 308 311 313 312 314 317 316 321 326 328 336 338 341 342 340 342 342 344 343 341 341 344 345 341 341 340 342 339 337 334 332 330 329 328
289 287 286 290 293 292 290 291 293 295 295 295 296 297 302 307 311 309 311 314 317 317 318 321 324 325 328 325 327 329 339 341 338 342 344 342 341 345 344 342 340 338 337 338 335 332 331 329 330
290 287 287 290 294 291 290 290 293 293 294 295 296 296 296 299 301 309 312 315 317 318 318 318 318 321 324 323 322 324 328 330 332 335 340 343 343 342 341 342 341 339 339 336 334 332 330 329 330
289 287 288 288 292 291 290 288 290 293 295 297 298 297 297 300 301 306 312 314 316 316 318 318 317 318 319 320 321 323 323 322 323 325 329 332 333 335 336 337 340 340 338 338 337 334 331 331 329
285 292 292 291 287 282 289 282 287 290 292 294 296 296 296 297 302 307 310 312 312 316 316 318 318 316 317 319 317 317 317 316 319 321 324 328 331 332 336 340 341 341 339 336 336 337 335 330 331
289 294 291 290 286 282 284 280 283 288 289 292 294 296 298 298 299 304 308 312 313 313 314 314 315 315 316 317 315 314 314 316 318 319 320 321 325 329 332 333 332 333 338 338 339 336 335 333 332
295 290 287 285 282 277 283 282 282 286 289 291 294 297 299 300 298 302 308 310 310 311 313 315 314 313 316 317 316 315 313 313 314 316 317 318 320 322 326 326 328 328 331 336 339 340 336 336 334
289 283 277 276 276 279 285 282 285 289 293 294 296 297 298 299 300 300 303 306 309 310 310 313 312 312 315 315 315 315 315 314 315 314 316 318 319 319 321 323 323 325 331 339 340 339 339 336 334
287 285 279 275 275 279 286 280 286 294 297 298 298 298 297 298 299 301 302 308 311 311 310 313 311 311 313 313 313 313 312 313 314 314 317 315 316 318 322 323 326 328 329 328 329 336 339 340 338
289 284 286 282 284 278 282 286 292 295 296 297 297 297 296 297 299 300 304 306 309 310 310 313 312 311 313 313 312 312 312 312 313 314 315 314 315 320 319 322 323 322 324 328 330 329 332 337 337
292 293 283 283 277 275 281 283 284 290 291 295 296 296 296 298 300 301 301 302 304 306 309 311 313 312 311 313 312 312 313 314 314 314 314 314 315 318 320 319 319 321 323 327 326 325 327 329 333
289 288 289 287 284 277 277 280 288 289 292 294 297 297 297 297 299 300 303 301 301 301 302 307 308 309 308 309 311 311 312 312 313 313 314 315 315 316 316 315 317 320 324 321 321 322 325 326 328
293 290 290 283 282 285 281 281 294 293 295 297 298 300 300 299 299 303 305 305 303 300 300 301 302 304 307 309 310 310 311 311 310 313 315 316 315 314 313 315 318 321 320 320 320 319 319 320 322

GFSSGP_sfc_thetae_102.txt.gz
Theta_e
324 315 313 307 299 296 292 296 301 303 305 308 312 317 319 320 316 308 331 339 347 353 359 360 362 361 361 360 360 360 360 360 360 360 360 360 360 359 358 357 355 351 348 345 344 343 342 340 339
313 315 309 300 296 293 295 300 301 303 308 309 307 313 316 315 328 329 332 344 350 355 358 358 362 361 361 360 360 359 359 360 360 359 359 359 359 357 355 355 354 350 346 345 343 342 341 340 339
308 314 304 295 292 293 298 305 304 307 309 308 308 314 316 315 328 331 336 346 352 354 356 357 362 361 360 360 359 359 359 359 359 359 359 358 358 356 355 355 353 349 346 344 343 342 342 341 340
307 307 302 294 291 297 302 307 310 309 311 310 308 306 313 318 322 334 343 350 351 354 355 360 362 361 360 360 359 358 358 358 358 358 358 358 356 356 356 354 353 351 347 344 343 342 342 341 340
306 302 294 291 293 298 302 304 305 309 308 307 307 306 308 314 338 340 345 348 349 354 355 358 361 361 361 360 359 358 358 357 357 358 357 357 356 355 355 354 352 349 348 345 343 343 344 343 342
300 300 292 290 295 301 304 303 304 312 309 308 307 307 307 313 334 337 343 344 350 352 356 358 361 361 360 360 359 358 357 357 357 357 357 357 356 355 355 354 352 351 350 349 345 346 346 344 343
296 296 293 291 296 299 304 306 303 310 311 309 310 305 307 311 319 337 338 342 348 353 354 355 356 359 360 360 359 358 356 356 356 356 356 356 356 356 355 355 354 353 352 350 349 347 346 344 343
298 296 293 294 296 297 304 305 304 304 307 318 314 307 303 310 316 334 335 337 342 350 353 353 353 354 356 356 359 358 357 357 356 356 356 356 356 355 355 353 354 353 352 350 350 349 347 345 345
299 291 289 294 296 299 303 301 304 307 306 309 312 312 313 320 330 331 331 336 340 344 350 351 351 351 352 354 356 358 358 357 357 356 356 354 351 351 351 352 351 353 353 352 351 350 348 347 347
293 288 291 298 299 298 300 299 301 303 302 304 307 312 314 321 328 329 329 331 336 340 346 349 348 350 349 353 354 353 353 353 353 352 352 349 347 347 349 350 352 352 354 353 352 351 350 349 343
292 290 294 297 299 299 298 299 301 300 298 302 302 309 311 316 326 329 330 332 334 339 345 347 347 349 350 351 353 352 353 353 352 352 352 350 346 346 348 345 347 348 350 348 349 348 347 345 342
290 295 297 297 299 298 298 300 298 300 301 304 306 308 309 313 321 329 330 332 332 338 341 346 347 347 347 349 351 350 350 352 350 349 349 346 344 341 341 342 341 341 343 343 344 343 343 343 343
290 293 296 298 297 297 299 298 298 298 303 304 304 307 309 313 316 323 333 332 334 336 339 343 346 345 345 347 348 348 348 349 349 349 347 346 343 341 339 339 339 338 339 341 340 341 340 340 340
292 292 293 294 294 294 295 297 297 300 304 303 302 302 307 308 314 317 321 324 328 336 338 342 344 344 345 346 346 345 347 347 344 345 347 346 343 341 338 336 336 336 338 339 340 339 339 338 338
292 288 291 293 293 294 294 293 293 300 301 302 303 304 306 307 309 317 323 323 326 332 338 340 342 344 343 343 344 342 342 341 340 341 342 344 343 340 338 335 333 334 336 338 339 339 339 338 337
288 287 284 290 294 296 294 289 296 299 298 299 301 303 308 309 309 315 318 322 323 327 332 338 341 341 341 342 343 341 341 341 340 340 341 342 342 342 339 336 334 336 337 338 339 339 339 338 337
285 282 283 288 292 292 292 288 295 298 297 296 297 299 301 304 310 311 314 317 322 327 330 334 339 339 339 340 343 341 340 340 342 341 342 343 344 343 342 340 339 339 339 339 338 338 337 334 332
281 282 284 285 290 290 289 289 294 296 295 295 295 297 299 301 304 311 311 315 318 323 328 333 337 339 338 340 343 343 343 342 342 342 341 342 344 344 343 342 341 342 342 341 338 337 336 334 334
287 285 285 288 292 289 289 289 292 294 294 294 295 295 296 297 304 308 310 311 314 316 320 325 330 337 339 339 340 339 339 340 341 341 341 340 343 345 343 343 340 340 339 340 339 338 336 335 334
288 285 285 289 292 289 289 288 291 293 293 294 295 295 296 297 298 301 307 311 314 316 317 321 325 329 338 338 330 331 333 336 336 337 339 340 340 341 338 338 336 341 340 340 339 337 336 334 334
287 285 286 287 290 290 287 285 289 292 293 295 296 296 296 297 298 301 304 309 311 314 316 319 323 324 325 325 324 323 324 324 328 329 334 337 338 339 335 330 333 339 339 339 339 338 335 334 334
284 291 290 289 286 281 287 281 285 289 290 293 295 294 295 296 297 300 303 307 311 314 316 316 317 320 322 322 321 321 319 318 321 323 327 331 334 333 335 334 335 336 339 337 338 339 338 336 334
288 291 289 289 284 281 283 279 283 287 288 290 292 294 295 297 297 298 300 305 309 313 314 316 316 316 317 319 320 319 317 317 319 321 323 324 328 331 333 336 338 337 337 337 338 338 336 337 336
293 289 285 283 281 276 282 281 281 285 289 290 293 295 296 297 299 299 300 302 307 310 312 314 315 314 315 316 315 315 315 315 316 317 318 320 322 324 327 329 329 328 329 333 336 337 337 337 336
288 283 277 276 276 279 285 280 285 288 292 292 293 295 296 298 298 300 301 301 305 308 311 314 314 313 315 316 315 315 314 314 315 315 316 318 320 320 323 326 326 327 332 337 339 339 338 337 334
285 284 279 275 274 280 285 278 284 291 294 296 296 296 297 297 298 300 303 302 301 308 311 315 314 313 315 315 315 316 315 314 314 315 316 317 317 319 323 326 328 330 330 329 331 334 337 338 338
286 282 286 281 281 278 281 285 291 294 294 295 296 296 296 297 298 301 302 304 304 307 310 314 314 313 314 314 314 315 314 312 314 315 316 317 317 320 322 323 326 325 326 328 331 332 331 334 337
292 294 285 284 278 274 279 281 283 289 291 295 295 295 296 297 299 299 300 303 303 304 307 311 312 314 314 315 316 313 313 313 314 314 315 316 317 319 321 324 323 321 323 327 329 326 328 330 331
289 288 289 288 286 280 279 280 288 289 291 293 294 296 297 297 298 299 300 303 303 304 307 307 308 309 311 311 312 312 312 314 314 314 315 316 317 317 319 320 319 319 321 326 323 324 327 326 326
294 290 291 284 282 284 279 282 293 291 293 295 295 297 298 300 300 300 300 303 305 306 304 305 306 306 308 310 310 310 311 312 313 314 316 316 316 317 319 319 317 319 322 322 321 323 324 321 321

GFSSGP_sfc_thetae_105.txt.gz
Theta_e
327 318 322 317 308 309 305 306 310 310 312 316 317 323 324 326 321 318 341 346 346 355 359 359 362 362 363 363 363 363 363 362 362 362 361 360 361 361 360 360 357 353 350 347 345 343 342 342 343
318 320 318 312 306 305 306 308 309 312 314 315 316 321 323 322 333 335 339 345 350 357 358 356 361 361 362 361 362 361 362 362 362 361 360 360 360 360 358 357 355 352 348 345 344 343 341 340 339
314 318 314 309 305 305 306 310 312 314 315 316 316 320 320 319 331 337 342 348 353 356 357 358 361 360 360 360 360 360 360 361 360 360 360 360 359 358 357 355 354 352 347 345 344 343 343 341 341
314 316 312 304 301 305 309 312 310 315 315 316 315 316 319 322 327 340 346 350 354 355 355 361 361 360 360 360 359 360 360 359 359 359 359 358 358 356 355 355 353 351 349 346 345 344 343 342 342
315 312 305 302 301 303 307 310 311 312 314 314 315 313 317 320 343 346 348 350 352 354 354 358 360 360 360 358 358 359 359 358 359 359 359 358 357 356 355 355 354 352 351 348 345 344 345 344 342
308 310 301 298 300 304 308 311 312 315 315 315 315 314 317 323 342 347 349 350 353 355 356 358 360 360 359 359 358 358 357 357 357 357 357 357 356 356 355 355 353 352 351 349 346 346 346 345 343
306 305 300 300 300 302 306 312 310 312 315 314 318 314 317 321 340 347 349 351 354 356 356 357 357 358 360 359 358 357 356 356 356 356 356 356 356 355 355 355 354 353 352 350 349 347 346 345 344
307 307 300 301 300 301 307 309 311 310 311 315 319 315 316 321 342 345 347 349 351 355 355 356 357 355 355 356 359 358 357 356 356 356 356 356 356 356 355 354 354 353 351 350 350 348 347 346 345
307 301 299 301 301 303 307 305 310 311 310 311 314 316 319 327 340 340 341 344 347 351 354 355 354 356 355 354 356 358 357 357 357 355 356 353 350 351 351 351 353 353 352 351 351 350 349 348 347
303 299 299 303 305 305 305 304 306 306 307 308 311 314 320 331 334 337 336 336 341 346 350 353 354 355 355 353 356 356 355 354 354 353 354 352 353 353 350 351 351 352 353 352 352 351 350 348 342
300 298 300 302 306 306 303 304 306 305 305 307 308 311 314 323 333 335 336 336 336 343 349 352 354 357 355 354 355 355 355 355 356 356 357 356 353 352 350 350 350 352 352 349 349 349 347 347 348
299 301 302 303 305 304 303 305 303 305 306 310 311 312 313 314 326 332 335 335 335 339 347 351 354 355 356 355 354 355 353 355 354 355 358 353 351 352 351 349 349 351 349 349 348 346 349 350 350
299 300 302 304 304 303 304 301 302 303 308 310 310 310 311 313 319 331 337 339 339 339 343 349 353 355 355 355 354 355 353 354 355 355 354 351 352 351 351 349 349 348 347 345 347 349 350 350 350
300 299 300 301 302 302 301 302 302 304 309 308 309 310 311 313 317 323 333 338 341 342 343 347 351 355 354 354 355 354 354 354 354 351 350 349 353 353 350 349 347 346 346 345 346 348 349 349 349
300 297 299 301 301 301 302 299 300 306 306 307 308 310 311 314 316 317 325 337 341 344 346 346 349 351 352 352 353 354 353 352 351 352 354 355 355 354 352 348 346 344 345 345 345 347 348 347 347
297 296 294 298 299 301 301 295 302 305 304 305 306 307 308 311 317 319 323 333 340 342 345 347 346 348 350 351 353 351 350 347 348 348 352 351 351 352 350 347 345 345 346 343 342 344 345 347 346
294 292 293 295 299 299 299 295 301 304 303 304 306 307 307 309 312 319 322 325 332 338 342 347 348 347 349 350 350 351 352 349 348 350 348 348 348 349 349 347 348 349 347 346 345 346 348 346 347
290 290 292 292 297 297 297 297 301 304 302 304 304 306 307 308 311 314 317 322 328 334 339 344 347 350 349 348 349 348 347 346 345 346 348 350 346 350 350 349 350 351 350 349 348 350 351 346 346
293 292 292 295 299 296 297 298 300 303 303 304 305 306 307 309 312 313 316 320 323 329 333 338 342 348 347 345 343 343 342 344 343 345 348 348 349 351 350 351 351 351 349 348 346 348 344 344 345
293 292 292 296 298 296 297 297 300 302 302 304 304 306 307 309 311 313 315 317 323 325 332 334 339 345 347 347 348 346 346 345 343 343 348 348 347 349 350 351 350 345 343 346 343 340 338 341 343
293 292 293 293 296 296 296 294 297 300 302 303 305 306 307 307 308 310 312 316 320 324 327 331 336 340 346 350 349 343 347 347 346 345 346 346 345 345 347 346 344 344 344 341 343 336 328 327 340
291 296 296 294 292 289 295 287 295 298 299 301 304 305 307 307 310 310 312 315 318 321 325 328 332 338 340 344 343 344 341 340 344 344 346 345 347 345 344 344 341 342 337 338 337 334 333 334 335
294 296 295 294 293 291 292 289 293 296 296 299 303 305 306 308 308 308 310 313 315 317 321 326 329 330 336 340 344 343 344 346 340 344 341 345 346 346 344 344 341 339 339 340 338 340 336 335 333
298 295 293 292 291 286 292 290 291 294 297 300 303 304 305 306 308 310 313 315 315 318 319 324 327 329 331 336 338 340 342 335 333 337 336 335 338 341 342 342 343 343 343 341 342 342 343 337 338
296 293 286 285 285 285 294 290 293 298 300 302 301 303 306 308 308 309 310 312 315 317 318 320 324 326 329 330 335 335 337 335 335 333 331 332 331 332 337 339 340 340 341 340 341 343 341 342 341
295 294 287 281 283 286 291 287 292 299 302 302 303 305 306 307 309 310 311 314 315 317 317 318 320 323 327 328 330 331 331 330 330 331 328 328 330 332 337 336 337 338 338 340 342 340 340 343 342
295 290 296 289 289 286 289 293 298 300 300 301 303 305 305 307 309 310 311 312 314 317 319 319 320 321 325 326 327 327 328 328 326 329 331 328 331 328 332 335 335 337 336 335 338 337 340 341 341
295 298 290 291 282 281 288 288 290 296 298 300 302 303 304 307 308 310 310 312 313 315 318 320 321 321 323 325 326 326 326 326 325 327 328 329 330 329 330 331 333 333 332 332 336 333 333 333 333
294 292 293 293 291 284 283 288 298 297 299 300 301 302 303 305 308 309 310 311 314 315 314 317 319 319 320 322 323 324 324 322 324 325 327 329 331 330 328 329 331 329 328 330 334 332 329 329 329
296 294 294 289 286 289 288 288 300 299 300 301 301 302 304 307 308 309 309 310 311 312 312 314 315 315 318 320 318 319 322 322 322 323 326 329 329 329 328 328 328 326 324 327 328 326 325 324 322

GFSSGP_sfc_thetae_108.txt.gz
Theta_e
331 324 327 323 312 316 312 314 318 316 318 324 325 327 326 330 326 324 347 346 346 351 356 359 363 365 365 365 365 364 363 361 361 361 360 361 361 361 360 360 358 355 350 347 346 345 346 348 349
324 323 325 319 311 311 313 316 316 316 320 324 327 328 327 327 336 340 343 345 350 354 357 354 362 363 364 365 364 364 363 362 362 361 361 361 361 361 359 358 356 351 348 346 345 343 343 343 343
321 321 317 314 313 311 311 317 317 318 322 321 322 327 326 326 337 340 346 346 352 355 356 357 362 362 363 364 363 363 363 363 362 362 361 361 361 360 359 357 356 351 347 346 345 343 343 341 341
319 320 317 308 310 315 316 319 317 319 319 322 324 322 327 329 334 344 345 346 352 353 355 359 361 361 362 361 362 362 362 362 362 361 360 360 360 358 357 356 354 353 350 347 345 345 343 342 342
319 317 309 308 310 312 318 317 317 318 319 319 321 320 325 335 346 348 345 346 349 352 355 360 360 361 361 360 360 361 361 360 360 360 360 359 358 356 356 355 353 352 351 348 346 345 346 345 343
312 315 305 305 308 310 315 317 317 318 321 319 319 321 324 343 348 348 348 347 348 351 355 359 360 360 360 360 360 360 359 359 359 359 359 358 357 355 355 354 352 352 351 349 346 345 344 344 344
309 309 305 307 306 306 311 316 316 318 320 319 322 317 324 333 349 351 350 350 349 352 354 358 356 358 359 359 359 358 358 358 358 357 357 357 356 355 355 354 352 351 350 348 346 345 344 343 341
311 311 306 306 304 304 312 314 316 315 318 320 323 318 320 333 348 352 352 349 348 351 352 355 355 353 352 353 359 358 357 357 357 356 356 356 354 353 353 354 354 351 349 348 347 346 344 344 345
313 305 304 305 305 306 311 311 315 316 315 316 319 320 323 328 346 347 348 347 346 347 351 352 351 351 350 349 353 357 356 356 357 356 356 354 347 350 351 350 354 352 351 349 348 348 348 347 347
307 302 305 311 311 309 311 311 311 311 313 314 316 318 321 329 337 340 343 342 342 344 348 350 351 351 350 346 353 353 350 350 350 349 352 348 347 350 347 351 352 352 352 351 351 350 349 347 341
307 303 306 307 310 312 311 309 313 310 309 314 314 317 318 318 329 334 337 341 342 344 347 349 354 356 353 349 350 351 350 350 350 351 352 351 348 351 349 347 350 350 351 347 350 348 347 345 349
303 307 307 308 308 308 306 309 307 309 311 315 315 316 317 317 319 329 334 339 341 343 347 350 355 357 358 351 351 351 349 350 350 352 356 353 352 351 349 346 347 350 348 348 348 345 349 352 354
305 306 307 308 308 308 308 306 306 307 311 313 314 314 315 316 319 323 335 340 342 342 346 349 354 357 360 362 353 353 353 351 353 353 356 354 351 351 350 349 349 348 347 346 345 346 352 354 354
306 307 306 307 307 308 305 306 307 308 311 311 312 313 315 316 318 320 325 336 341 345 346 350 352 359 359 360 362 356 356 354 354 354 355 357 355 354 350 351 349 347 347 345 344 344 347 348 352
304 301 304 305 306 305 307 303 304 309 311 310 311 313 314 316 318 321 322 326 338 346 349 349 352 356 360 359 358 359 356 355 354 355 359 358 358 359 357 352 351 349 349 350 347 346 345 346 349
301 302 298 304 305 305 304 299 306 309 309 309 310 311 312 315 317 320 324 327 332 342 350 353 350 353 357 360 359 357 355 355 354 354 355 358 359 359 359 352 351 350 349 345 343 342 341 344 347
300 296 298 300 305 304 303 300 305 308 308 308 310 310 311 313 316 319 322 324 331 339 348 352 355 353 355 358 356 357 361 355 354 355 355 358 358 358 354 347 347 356 348 346 344 344 349 350 351
296 296 297 297 302 302 301 301 304 308 307 308 309 310 311 312 314 318 322 323 326 332 341 348 352 357 356 355 355 353 352 352 351 351 351 353 354 354 352 350 356 355 350 348 348 353 352 352 352
297 296 296 299 302 301 301 302 304 307 308 307 308 310 311 312 315 317 320 323 325 330 335 343 347 355 355 352 351 350 347 349 348 348 351 350 351 350 355 351 355 355 353 356 358 355 354 348 351
297 296 297 300 302 300 301 300 304 306 307 308 308 309 310 312 314 316 318 320 323 328 332 336 342 350 355 353 353 351 350 349 349 347 349 349 349 354 354 355 352 355 351 356 354 353 346 346 347
298 297 297 296 300 302 300 298 301 305 306 307 309 310 311 311 312 314 315 318 322 324 328 332 338 342 350 355 354 352 352 352 349 347 346 348 349 348 349 351 351 354 352 347 349 349 349 337 338
295 300 299 298 297 293 300 291 299 302 303 306 307 309 310 311 312 314 315 317 320 322 325 329 334 339 343 351 353 357 348 346 348 350 348 349 350 348 347 350 351 352 348 348 346 345 342 340 333
297 300 299 298 297 296 296 293 298 303 300 303 306 308 311 312 313 313 315 317 319 321 323 326 332 335 339 347 352 351 352 347 349 347 355 356 355 351 349 350 350 349 347 350 348 345 343 339 334
301 299 299 300 297 291 296 295 295 299 301 304 307 308 310 310 312 315 317 318 319 321 322 325 329 333 336 338 343 348 353 352 345 349 348 349 350 351 352 350 350 351 348 346 346 346 345 342 339
300 297 291 290 291 289 299 295 298 303 305 305 306 307 310 312 313 314 316 317 320 322 324 325 326 328 333 335 337 340 347 354 354 352 346 348 344 344 352 351 351 348 349 348 348 347 346 346 341
300 299 292 286 288 292 296 291 298 303 306 307 307 309 310 311 313 314 315 317 317 320 323 325 326 327 328 330 334 337 340 342 347 348 345 343 341 342 349 348 349 349 349 349 348 345 345 347 345
298 295 301 294 295 291 294 298 303 305 305 305 306 308 309 310 312 313 315 316 318 319 321 323 325 327 328 329 331 334 337 341 343 345 344 340 345 338 341 343 343 342 342 343 345 342 343 344 344
299 302 294 295 286 285 291 293 295 299 302 305 305 306 308 310 310 312 314 316 317 319 321 322 323 326 328 328 330 331 335 337 338 338 337 337 336 333 333 335 337 338 338 340 342 339 341 342 341
297 296 297 297 294 288 287 292 302 302 303 303 306 307 308 308 309 311 313 314 316 317 318 320 321 322 325 327 329 330 331 331 331 331 331 332 336 332 330 331 332 332 334 336 337 337 334 336 336
299 296 296 290 290 294 291 292 305 305 305 304 305 305 307 308 309 311 313 313 314 316 317 318 322 320 320 322 325 325 327 327 328 328 329 332 332 331 331 328 327 329 329 331 331 330 328 327 327

GFSSGP_sfc_thetae_111.txt.gz
Theta_e
331 329 327 324 314 316 312 313 321 319 318 325 326 324 326 332 330 325 350 346 349 354 359 361 365 366 367 367 365 364 363 362 361 362 361 361 361 361 360 360 358 355 351 348 347 347 349 350 350
324 325 324 320 312 310 312 318 318 321 322 326 326 326 326 328 340 342 343 345 350 354 358 359 364 366 366 366 365 364 363 362 361 361 361 361 361 361 359 358 356 352 348 346 345 344 345 346 348
324 324 317 316 313 310 312 319 320 321 323 325 323 327 329 329 339 343 347 347 351 353 355 361 364 365 365 364 365 364 363 362 362 361 361 361 361 361 360 357 354 350 347 345 344 343 342 341 341
320 320 318 311 311 316 316 323 322 321 322 325 325 323 330 336 339 346 345 347 350 351 352 360 363 363 364 362 364 364 363 363 362 362 361 361 361 359 358 355 354 351 347 345 344 343 342 340 339
320 317 311 311 312 317 321 324 322 321 322 322 324 323 327 342 347 344 343 347 347 349 352 360 362 363 364 364 363 363 363 362 362 362 361 360 358 357 355 354 351 349 348 346 345 343 342 341 340
312 315 307 308 312 317 320 324 322 322 324 323 321 323 329 346 346 344 344 346 347 349 355 358 360 361 361 362 362 362 361 361 361 360 360 359 357 355 353 352 350 349 348 346 345 344 343 341 341
310 310 307 309 311 315 316 322 320 321 322 322 325 320 330 341 347 347 348 347 346 350 355 356 354 359 361 361 360 360 360 360 360 359 358 358 356 354 353 351 350 348 348 346 345 345 344 343 342
312 311 308 309 309 311 316 318 320 320 320 324 326 319 322 339 346 348 349 346 346 348 352 354 353 352 353 356 360 359 359 359 359 358 357 356 354 353 353 353 352 350 348 347 346 345 344 345 346
314 306 304 308 309 311 316 313 319 320 318 321 324 323 327 339 343 344 345 344 344 345 350 352 350 349 346 345 354 357 357 357 358 357 357 355 346 349 350 348 354 351 350 348 348 348 348 348 348
309 304 306 312 314 313 314 313 316 314 315 317 320 322 327 331 337 338 339 340 341 343 346 349 349 349 345 340 351 349 351 352 351 350 354 347 345 349 344 351 354 352 352 351 351 351 350 348 340
309 304 308 310 313 315 314 314 316 313 311 316 317 322 323 322 330 334 336 338 340 344 346 347 354 358 348 342 347 342 343 345 347 349 354 352 345 348 346 349 349 349 351 345 349 349 347 344 344
305 309 309 310 311 310 312 315 313 314 314 318 318 319 319 320 321 326 333 334 338 342 346 349 351 358 358 345 346 345 343 345 345 346 357 356 348 354 351 344 346 352 348 350 348 345 347 350 352
307 308 309 311 310 310 310 308 309 310 314 316 317 317 317 319 322 325 328 335 338 340 345 349 353 359 363 366 349 351 349 347 348 349 355 351 348 355 351 352 346 347 346 346 346 345 347 351 353
309 308 309 310 310 310 307 307 309 310 314 313 314 315 317 319 321 324 325 330 337 342 344 349 352 364 360 361 366 357 359 351 350 349 353 360 353 359 349 352 348 347 346 344 343 343 344 346 347
309 304 307 308 308 308 310 305 305 311 312 311 312 313 315 318 319 320 324 327 337 342 348 353 356 360 364 363 363 361 353 352 351 350 361 361 361 363 357 349 349 346 350 350 347 346 347 343 345
304 305 300 306 307 308 307 300 308 312 311 310 311 313 314 316 318 321 323 327 330 333 345 353 350 354 364 365 363 358 357 355 354 355 358 363 361 363 362 350 351 352 350 347 345 342 340 338 340
303 298 300 302 307 307 305 302 308 311 310 310 311 312 313 314 317 321 322 324 329 335 341 348 355 353 359 366 361 362 364 357 356 357 357 364 359 359 357 352 352 359 352 348 346 344 345 342 345
298 299 301 301 305 305 303 303 307 310 310 310 311 312 313 314 315 319 322 324 325 330 338 348 353 363 364 359 363 358 356 357 356 355 356 363 361 360 363 356 357 356 348 348 347 351 348 347 347
302 301 300 303 306 303 303 303 305 309 309 309 310 311 313 314 317 319 321 323 324 327 332 340 348 362 360 354 352 352 350 352 353 354 360 360 361 360 363 355 354 357 353 355 358 354 355 347 353
300 299 299 302 305 304 303 303 306 308 308 310 310 311 312 314 316 317 319 322 323 326 330 334 340 352 356 355 358 355 355 351 352 354 358 359 360 359 358 358 351 358 354 359 362 357 350 350 353
300 298 299 299 303 304 302 300 302 306 309 310 311 313 313 313 314 316 317 319 321 324 328 330 334 341 352 360 358 358 357 357 350 351 351 355 355 354 357 357 355 355 356 349 362 359 356 343 348
296 302 301 300 298 294 303 293 302 305 306 308 309 310 311 313 314 316 317 318 320 321 324 327 333 336 339 352 350 356 349 345 346 348 350 353 356 354 353 356 356 357 350 352 355 355 354 353 340
299 303 301 301 299 298 298 295 299 305 303 306 309 310 312 313 315 315 315 317 320 322 323 326 332 333 338 343 352 345 350 347 347 349 355 359 359 357 353 355 356 359 351 356 355 355 354 345 340
304 301 301 301 299 292 297 297 298 301 304 306 309 310 312 313 313 315 317 319 320 322 323 327 329 337 336 338 342 350 352 352 346 350 347 347 350 354 357 353 356 359 357 357 354 355 357 350 346
302 299 292 291 292 291 301 298 300 306 307 308 308 310 312 314 314 315 316 318 320 321 323 325 327 329 332 333 335 339 345 352 352 354 347 348 345 349 357 358 358 356 359 358 355 357 353 351 346
301 300 293 288 290 294 301 296 301 308 309 309 310 311 312 313 314 315 316 317 318 320 322 323 324 326 329 331 332 338 341 335 339 347 348 345 346 347 355 358 358 357 355 353 355 349 347 351 349
298 295 302 296 298 293 296 301 306 308 308 309 309 310 311 312 313 314 315 317 318 319 321 322 323 325 328 330 333 334 336 340 339 346 351 345 350 348 349 356 354 353 353 354 357 347 352 352 351
302 304 294 296 288 287 293 296 297 303 304 307 308 309 311 312 313 313 314 315 317 318 320 321 323 323 325 328 331 331 333 334 340 344 347 349 350 347 343 347 347 349 350 349 353 347 349 348 344
299 297 299 298 295 289 289 294 304 305 306 306 307 309 310 311 311 312 312 314 316 317 318 320 320 322 322 324 327 331 332 332 335 336 339 343 346 341 341 340 342 342 341 344 346 345 339 340 344
303 299 299 294 292 296 294 295 306 307 309 307 308 309 310 309 309 310 312 313 314 315 316 318 320 321 321 323 323 326 327 327 326 327 333 335 335 335 333 332 330 330 330 335 335 334 332 331 331

GFSSGP_sfc_thetae_117.txt.gz
Theta_e
330 317 317 312 302 300 299 305 313 313 313 319 320 327 327 329 324 321 345 353 357 359 361 363 364 365 364 364 363 362 361 361 361 361 361 361 362 362 361 359 357 355 352 350 350 351 351 352 353
317 317 312 307 297 293 299 310 310 315 318 318 320 321 330 328 336 336 343 354 357 359 359 360 364 364 364 364 363 361 361 361 361 361 361 361 361 361 360 358 356 353 349 348 349 349 350 351 352
321 316 303 300 297 296 299 310 313 318 320 319 317 326 329 330 335 336 348 354 356 355 358 362 364 363 364 364 362 361 361 361 361 361 361 361 361 360 359 357 354 353 348 346 346 345 346 346 346
310 307 305 296 295 303 306 311 314 319 319 321 319 322 329 339 336 345 350 354 351 353 359 363 363 364 363 364 363 361 361 361 361 361 361 361 361 359 357 355 354 352 351 346 346 347 346 345 344
307 302 295 294 298 305 311 315 318 317 320 318 319 324 328 337 343 346 348 351 349 355 359 362 364 364 365 364 363 362 361 360 360 361 361 360 359 358 356 355 354 352 352 348 346 347 346 345 344
299 301 292 293 299 306 313 316 318 320 322 320 320 328 328 337 337 345 346 346 348 354 357 360 363 363 363 364 362 361 360 360 360 360 360 359 358 357 356 354 353 353 352 350 348 348 346 344 344
297 296 294 296 299 304 310 318 317 318 319 319 323 325 328 330 333 340 343 344 354 354 354 357 359 361 363 362 362 361 360 360 359 358 358 358 358 356 355 354 353 353 352 351 350 348 346 345 344
301 297 295 299 299 300 310 315 321 320 318 326 327 324 326 332 335 337 339 350 351 352 351 352 355 358 358 359 362 361 360 360 359 359 358 357 356 355 354 352 353 353 352 351 350 349 347 346 345
305 295 294 297 300 304 310 314 320 325 317 320 325 333 337 341 340 333 333 346 347 348 347 348 352 353 355 356 360 361 361 361 359 358 357 354 349 349 351 350 353 353 352 352 350 349 347 347 347
298 294 296 302 304 305 309 311 315 315 313 314 319 324 330 338 335 334 332 335 344 343 344 346 347 348 349 356 355 356 357 356 354 354 353 348 343 344 347 348 353 353 353 352 351 350 350 349 340
299 295 299 303 305 307 307 309 313 310 307 313 313 320 324 325 329 332 333 334 340 344 343 344 344 344 342 348 353 353 354 353 351 350 350 344 342 343 344 339 347 344 351 344 347 345 344 341 338
295 301 302 303 305 306 305 310 311 309 309 315 316 318 315 313 312 314 325 335 337 343 342 343 344 344 339 341 348 349 349 349 348 347 348 344 339 336 335 341 340 342 343 340 337 339 339 338 337
298 300 303 305 304 304 305 304 309 308 312 313 315 315 313 311 312 313 316 326 333 337 342 342 343 341 339 345 343 342 344 345 345 344 347 344 339 337 338 341 340 342 342 339 336 337 339 340 340
301 301 302 303 303 303 301 303 303 306 311 310 311 313 311 312 313 313 315 317 329 335 340 345 342 340 339 343 341 338 339 342 342 343 344 345 340 337 343 340 341 342 342 340 338 340 339 340 341
302 297 300 302 301 300 302 299 301 306 308 306 308 310 310 311 311 313 315 317 324 338 343 345 346 344 340 344 345 338 336 339 339 340 341 344 343 337 342 341 342 342 343 340 342 341 337 337 338
296 295 289 298 302 303 301 293 303 305 305 304 306 308 309 308 310 313 316 316 322 334 338 342 338 346 343 341 347 351 340 338 338 341 340 343 343 344 340 343 340 342 341 340 339 337 335 335 334
293 288 291 296 301 302 299 294 302 305 305 304 304 305 307 307 309 312 317 316 322 328 333 338 341 349 348 347 347 349 350 346 342 343 345 345 343 347 346 345 344 340 340 338 337 335 333 332 332
289 290 292 293 299 299 297 297 301 304 303 304 304 305 306 307 308 312 313 315 321 329 331 337 345 348 349 352 350 351 349 349 351 347 345 349 346 345 347 346 343 343 342 341 339 336 335 332 333
297 295 294 297 301 298 297 297 299 302 301 301 303 304 305 307 310 310 315 317 318 320 320 323 333 341 348 349 348 348 348 348 346 348 348 347 351 348 347 349 345 344 344 341 341 338 334 335 333
297 294 293 297 301 297 296 296 299 301 301 301 303 303 305 306 308 311 311 314 316 319 323 323 324 331 345 345 348 348 346 348 347 348 349 350 353 352 350 347 347 349 345 344 341 340 336 336 335
295 293 294 294 299 298 295 292 296 301 302 303 304 304 306 306 306 308 311 312 316 317 319 322 323 325 330 337 341 343 345 345 344 346 348 349 349 354 352 350 347 346 349 347 344 342 337 335 337
291 298 298 297 293 286 295 284 293 297 298 301 303 302 304 306 308 309 309 312 313 314 316 322 327 326 328 329 331 332 334 336 339 339 345 346 348 349 352 352 351 349 348 347 341 343 344 340 334
294 299 297 296 291 288 290 285 289 296 296 299 302 302 304 306 307 307 308 310 313 313 315 319 324 325 326 327 327 326 327 330 333 337 340 340 346 349 349 350 348 349 349 345 341 342 343 344 340
301 296 294 292 289 282 289 288 289 293 296 299 301 304 305 305 306 309 310 311 312 314 319 320 322 323 325 324 325 327 325 326 328 329 332 335 337 339 346 348 347 346 342 343 342 342 344 344 343
296 288 281 280 281 281 292 288 291 297 301 302 303 304 305 307 306 308 308 310 310 312 313 316 316 316 319 320 321 324 326 327 329 331 330 329 330 333 334 338 342 338 333 333 330 329 325 335 340
293 290 282 277 279 284 294 289 293 304 306 308 308 307 307 307 306 307 308 308 310 312 313 313 313 312 314 314 317 324 325 325 325 326 325 331 333 334 335 335 338 334 332 334 333 331 325 327 337
296 289 294 288 288 283 287 293 299 305 305 306 306 307 306 306 306 306 307 308 308 309 312 313 313 314 316 315 319 320 324 325 324 326 326 328 330 332 332 333 335 329 328 327 328 328 326 333 330
299 301 290 289 280 279 287 289 292 300 302 305 305 306 307 306 306 305 305 306 306 305 308 310 313 314 314 315 316 319 320 322 322 322 322 323 324 326 328 333 334 330 326 323 321 320 323 321 320
296 295 295 292 291 283 281 288 300 301 302 301 303 306 304 304 303 302 303 304 307 308 309 311 310 310 311 314 314 315 318 320 321 320 321 321 323 323 323 323 324 330 326 324 322 323 323 323 320
297 295 297 289 286 288 286 288 302 302 303 304 304 306 307 307 306 302 304 304 307 308 309 308 309 308 310 310 310 311 315 317 316 316 317 319 319 316 320 321 322 322 327 325 324 323 325 322 322

GFSSGP_sfc_thetae_120.txt.gz
Theta_e
330 316 312 310 300 298 295 301 308 309 311 316 318 326 326 325 322 316 341 349 357 357 359 360 363 363 363 362 362 361 360 360 360 361 361 361 361 360 360 358 358 355 353 351 351 351 352 353 353
318 315 310 304 295 290 294 304 305 309 315 318 329 330 328 326 333 341 343 355 356 357 358 358 362 362 363 362 361 360 360 360 360 360 361 361 361 359 358 357 355 352 350 349 350 351 351 351 352
320 313 302 298 293 293 295 305 308 312 315 316 320 329 331 329 339 342 351 354 356 356 357 358 362 362 362 362 361 360 360 360 360 360 360 360 360 359 357 355 354 352 348 347 347 348 348 349 349
308 304 302 294 293 299 303 306 310 311 315 319 323 323 332 337 339 347 353 355 354 355 357 361 362 361 362 362 361 360 360 360 360 360 360 360 359 358 356 354 353 352 349 346 345 345 346 346 345
305 299 293 291 294 300 306 308 310 310 314 317 321 325 328 339 347 351 352 352 352 354 358 360 361 362 362 362 361 360 360 359 359 360 360 359 358 357 355 354 353 352 351 348 345 346 346 345 344
298 297 289 290 295 302 305 309 312 311 318 317 327 327 326 343 346 348 349 350 355 355 358 359 362 362 361 361 360 360 359 358 359 359 359 359 358 356 355 354 353 353 352 351 348 348 346 344 343
294 292 290 292 295 299 304 310 308 312 316 317 328 324 325 338 344 347 347 352 354 356 356 358 359 361 363 361 360 359 358 358 358 357 357 357 357 356 354 353 353 353 352 351 350 349 347 345 344
297 293 290 293 296 297 306 307 309 315 317 323 332 323 320 330 343 344 345 350 351 352 355 356 357 359 359 358 361 359 358 358 358 358 357 357 356 355 354 352 352 353 352 351 350 349 348 346 345
298 289 289 292 296 299 307 306 312 319 319 323 330 329 333 335 340 340 345 346 347 348 351 353 355 356 356 357 359 360 360 359 358 358 357 354 349 349 349 349 352 353 352 351 350 349 348 347 347
292 288 291 297 299 299 305 306 307 314 316 318 321 335 339 339 336 340 341 341 343 343 346 351 352 352 353 357 357 357 355 355 354 353 352 348 344 343 347 347 352 353 352 352 350 350 349 347 336
292 290 295 299 301 303 303 304 306 310 309 315 317 329 330 334 332 337 340 342 342 343 345 348 350 351 351 353 352 354 354 354 352 351 349 343 342 342 342 339 344 343 349 342 345 343 342 338 337
290 297 298 300 302 302 302 306 304 307 309 317 320 317 316 317 328 329 331 334 343 342 343 345 347 347 348 351 351 352 352 351 350 349 348 343 338 338 337 337 337 339 340 338 337 337 337 337 337
291 296 299 301 302 302 302 303 302 308 313 311 313 318 312 310 311 317 330 334 343 341 342 343 344 344 345 349 349 350 350 350 349 348 348 345 340 337 337 337 337 339 338 339 335 334 333 334 334
296 297 299 300 299 301 300 301 301 305 310 310 309 310 308 310 311 312 315 324 333 341 340 341 342 342 341 345 345 345 348 348 347 346 346 346 340 337 336 336 336 336 337 338 337 333 332 333 335
298 294 297 299 300 297 300 297 299 305 307 306 306 307 309 310 312 312 313 318 324 338 340 339 341 341 338 340 342 341 342 345 343 344 344 345 342 334 336 336 337 337 338 337 336 332 333 334 336
293 291 290 298 299 300 300 293 300 303 303 304 306 306 308 309 309 309 312 315 324 333 338 340 343 340 336 339 339 337 337 340 340 341 341 343 343 338 333 338 338 339 338 338 336 336 336 334 332
289 286 288 293 299 299 298 294 300 304 302 302 303 304 306 305 306 309 311 313 330 337 338 339 339 338 337 336 343 339 334 335 336 336 338 339 342 343 338 334 339 338 339 338 338 335 334 333 331
287 288 291 291 297 296 294 293 298 302 301 301 301 302 304 305 306 308 310 315 324 332 336 338 336 339 342 340 341 345 344 336 337 338 340 339 341 341 342 340 337 339 338 338 336 335 332 331 334
293 291 291 294 297 295 293 294 298 300 298 298 300 300 301 303 307 308 311 316 323 326 332 335 339 343 347 347 346 344 343 344 345 347 343 344 344 342 340 342 341 342 340 340 337 335 333 332 330
295 292 291 295 298 294 293 294 298 300 299 299 300 300 302 302 305 308 310 314 315 316 319 324 333 342 345 347 347 346 344 347 346 347 346 347 348 346 343 341 341 343 340 339 337 334 333 332 332
295 292 292 293 296 296 293 290 294 298 299 300 301 301 302 303 303 305 310 310 312 316 317 318 320 331 338 340 337 337 338 340 339 343 344 345 345 349 347 346 344 343 341 339 339 338 336 335 337
290 296 296 295 291 285 292 282 289 294 296 298 299 300 301 303 304 305 308 308 313 315 316 317 322 323 325 328 328 328 329 328 333 336 341 340 343 345 346 348 348 346 342 342 342 343 340 337 335
293 297 295 294 289 285 287 283 287 292 293 295 298 299 300 303 305 304 305 310 310 314 317 319 320 322 323 323 322 321 319 323 327 327 329 331 334 337 340 344 343 345 347 347 345 341 335 328 325
299 294 291 288 285 280 286 286 285 290 292 295 299 301 302 302 302 305 307 312 314 315 318 319 319 319 320 321 322 323 322 323 323 322 323 327 328 331 334 337 336 338 340 342 340 329 325 322 322
293 285 279 278 279 280 288 286 287 293 299 300 301 302 301 302 305 308 308 310 310 312 312 313 314 315 317 318 317 319 321 322 321 321 322 322 322 325 329 330 332 336 335 334 329 326 326 324 321
290 287 280 275 277 280 290 285 289 301 303 304 305 303 304 304 306 304 305 307 308 309 311 311 311 313 312 313 313 319 321 320 319 321 322 322 323 325 327 327 330 334 332 333 330 330 331 330 328
295 289 291 285 284 281 285 290 296 303 303 304 304 304 302 302 304 304 303 304 306 308 309 310 310 312 313 313 316 318 320 321 319 321 319 321 321 323 324 324 326 328 331 331 332 331 330 329 326
299 300 289 286 279 277 284 286 287 296 299 301 303 302 301 300 300 301 302 302 303 305 307 310 311 310 311 313 314 315 316 318 318 317 318 317 318 319 319 320 321 322 326 326 325 325 326 324 323
293 292 293 292 290 280 281 287 299 299 301 300 301 304 304 303 301 300 301 304 305 306 308 307 307 308 310 312 311 311 311 316 317 316 317 316 316 316 315 317 319 320 319 323 323 320 320 321 321
296 291 291 285 286 287 283 284 301 301 302 304 301 306 306 305 302 300 301 304 305 307 308 309 308 308 307 309 308 309 311 313 312 313 313 314 314 314 314 315 317 318 319 318 321 322 323 320 320